<?xml version="1.0" encoding="UTF-8" standalone="no" ?><gpx xmlns="http://www.topografix.com/GPX/1/1" xmlns:gpxx="http://www.garmin.com/xmlschemas/GpxExtensions/v3" xmlns:wptx1="http://www.garmin.com/xmlschemas/WaypointExtension/v1" xmlns:gpxtpx="http://www.garmin.com/xmlschemas/TrackPointExtension/v1" creator="GuideVTT.com" version="1.1" xmlns:xsi="http://www.w3.org/2001/XMLSchema-instance" xsi:schemaLocation="http://www.topografix.com/GPX/1/1 http://www.topografix.com/GPX/1/1/gpx.xsd http://www.garmin.com/xmlschemas/GpxExtensions/v3 http://www8.garmin.com/xmlschemas/GpxExtensionsv3.xsd http://www.garmin.com/xmlschemas/WaypointExtension/v1 http://www8.garmin.com/xmlschemas/WaypointExtensionv1.xsd http://www.garmin.com/xmlschemas/TrackPointExtension/v1 http://www.garmin.com/xmlschemas/TrackPointExtensionv1.xsd">
<metadata><link href="http://www.garmin.com"><text>Garmin International</text></link><time>2013-06-22T15:13:50Z</time></metadata>
<trk><name>trace_27-oct-12_172421.gpx</name><extensions><gpxx:TrackExtension><gpxx:DisplayColor>Cyan</gpxx:DisplayColor></gpxx:TrackExtension></extensions><trkseg>
<trkpt lat="45.9314951487" lon="2.8405941278"><ele></ele><time>2013-8-16T17:7:13Z</time></trkpt>
<trkpt lat="45.9314950649" lon="2.8405937925"><ele></ele><time>2013-8-16T17:7:16Z</time></trkpt>
<trkpt lat="45.9314948972" lon="2.8405936249"><ele></ele><time>2013-8-16T17:7:19Z</time></trkpt>
<trkpt lat="45.9314946458" lon="2.8405929543"><ele></ele><time>2013-8-16T17:7:22Z</time></trkpt>
<trkpt lat="45.9314946458" lon="2.8405921999"><ele></ele><time>2013-8-16T17:7:25Z</time></trkpt>
<trkpt lat="45.9314942267" lon="2.8405922838"><ele></ele><time>2013-8-16T17:7:28Z</time></trkpt>
<trkpt lat="45.9315290116" lon="2.8406103887"><ele></ele><time>2013-8-16T17:7:31Z</time></trkpt>
<trkpt lat="45.9314792231" lon="2.8408567328"><ele></ele><time>2013-8-16T17:7:34Z</time></trkpt>
<trkpt lat="45.9314663149" lon="2.8409089521"><ele></ele><time>2013-8-16T17:7:37Z</time></trkpt>
<trkpt lat="45.9314521495" lon="2.8409649432"><ele></ele><time>2013-8-16T17:7:40Z</time></trkpt>
<trkpt lat="45.9314180352" lon="2.8410801943"><ele></ele><time>2013-8-16T17:7:43Z</time></trkpt>
<trkpt lat="45.9314048756" lon="2.8411457408"><ele></ele><time>2013-8-16T17:7:46Z</time></trkpt>
<trkpt lat="45.9312681668" lon="2.8418028820"><ele></ele><time>2013-8-16T17:7:49Z</time></trkpt>
<trkpt lat="45.9312152769" lon="2.8420334682"><ele></ele><time>2013-8-16T17:7:52Z</time></trkpt>
<trkpt lat="45.9311981779" lon="2.8421099950"><ele></ele><time>2013-8-16T17:7:55Z</time></trkpt>
<trkpt lat="45.9311793186" lon="2.8421821631"><ele></ele><time>2013-8-16T17:7:58Z</time></trkpt>
<trkpt lat="45.9310804959" lon="2.8425806388"><ele></ele><time>2013-8-16T17:8:1Z</time></trkpt>
<trkpt lat="45.9310816694" lon="2.8425974865"><ele></ele><time>2013-8-16T17:8:4Z</time></trkpt>
<trkpt lat="45.9310813341" lon="2.8426179383"><ele></ele><time>2013-8-16T17:8:7Z</time></trkpt>
<trkpt lat="45.9310878720" lon="2.8426441737"><ele></ele><time>2013-8-16T17:8:10Z</time></trkpt>
<trkpt lat="45.9311031271" lon="2.8426730074"><ele></ele><time>2013-8-16T17:8:13Z</time></trkpt>
<trkpt lat="45.9311234951" lon="2.8426991589"><ele></ele><time>2013-8-16T17:8:16Z</time></trkpt>
<trkpt lat="45.9311455395" lon="2.8427238017"><ele></ele><time>2013-8-16T17:8:19Z</time></trkpt>
<trkpt lat="45.9311717749" lon="2.8427400626"><ele></ele><time>2013-8-16T17:8:22Z</time></trkpt>
<trkpt lat="45.9312002733" lon="2.8427532222"><ele></ele><time>2013-8-16T17:8:25Z</time></trkpt>
<trkpt lat="45.9315576777" lon="2.8429243807"><ele></ele><time>2013-8-16T17:8:28Z</time></trkpt>
<trkpt lat="45.9315699153" lon="2.8429619316"><ele></ele><time>2013-8-16T17:8:31Z</time></trkpt>
<trkpt lat="45.9315701667" lon="2.8430035897"><ele></ele><time>2013-8-16T17:8:34Z</time></trkpt>
<trkpt lat="45.9315604437" lon="2.8431031667"><ele></ele><time>2013-8-16T17:8:37Z</time></trkpt>
<trkpt lat="45.9314401634" lon="2.8436534386"><ele></ele><time>2013-8-16T17:8:40Z</time></trkpt>
<trkpt lat="45.9313603677" lon="2.8439949173"><ele></ele><time>2013-8-16T17:8:43Z</time></trkpt>
<trkpt lat="45.9313208889" lon="2.8441742063"><ele></ele><time>2013-8-16T17:8:46Z</time></trkpt>
<trkpt lat="45.9313001856" lon="2.8442607075"><ele></ele><time>2013-8-16T17:8:49Z</time></trkpt>
<trkpt lat="45.9312866908" lon="2.8443410899"><ele></ele><time>2013-8-16T17:8:52Z</time></trkpt>
<trkpt lat="45.9312736150" lon="2.8444072232"><ele></ele><time>2013-8-16T17:8:55Z</time></trkpt>
<trkpt lat="45.9312577732" lon="2.8444716800"><ele></ele><time>2013-8-16T17:8:58Z</time></trkpt>
<trkpt lat="45.9312501457" lon="2.8445364721"><ele></ele><time>2013-8-16T17:9:1Z</time></trkpt>
<trkpt lat="45.9312479664" lon="2.8445948102"><ele></ele><time>2013-8-16T17:9:4Z</time></trkpt>
<trkpt lat="45.9312361479" lon="2.8446307685"><ele></ele><time>2013-8-16T17:9:7Z</time></trkpt>
<trkpt lat="45.9312102478" lon="2.8446461074"><ele></ele><time>2013-8-16T17:9:10Z</time></trkpt>
<trkpt lat="45.9311729483" lon="2.8446501307"><ele></ele><time>2013-8-16T17:9:13Z</time></trkpt>
<trkpt lat="45.9311267640" lon="2.8446479514"><ele></ele><time>2013-8-16T17:9:16Z</time></trkpt>
<trkpt lat="45.9309946653" lon="2.8446396533"><ele></ele><time>2013-8-16T17:9:19Z</time></trkpt>
<trkpt lat="45.9309508279" lon="2.8446320258"><ele></ele><time>2013-8-16T17:9:22Z</time></trkpt>
<trkpt lat="45.9307557810" lon="2.8446444310"><ele></ele><time>2013-8-16T17:9:25Z</time></trkpt>
<trkpt lat="45.9306763206" lon="2.8447772004"><ele></ele><time>2013-8-16T17:9:28Z</time></trkpt>
<trkpt lat="45.9306602273" lon="2.8448351193"><ele></ele><time>2013-8-16T17:9:31Z</time></trkpt>
<trkpt lat="45.9306309745" lon="2.8449643683"><ele></ele><time>2013-8-16T17:9:34Z</time></trkpt>
<trkpt lat="45.9306121152" lon="2.8450308368"><ele></ele><time>2013-8-16T17:9:37Z</time></trkpt>
<trkpt lat="45.9303890727" lon="2.8451817110"><ele></ele><time>2013-8-16T17:9:40Z</time></trkpt>
<trkpt lat="45.9303558804" lon="2.8451756760"><ele></ele><time>2013-8-16T17:9:43Z</time></trkpt>
<trkpt lat="45.9300865699" lon="2.8450894263"><ele></ele><time>2013-8-16T17:9:46Z</time></trkpt>
<trkpt lat="45.9299966320" lon="2.8450160846"><ele></ele><time>2013-8-16T17:9:49Z</time></trkpt>
<trkpt lat="45.9297094680" lon="2.8449011687"><ele></ele><time>2013-8-16T17:9:52Z</time></trkpt>
<trkpt lat="45.9295054525" lon="2.8448362928"><ele></ele><time>2013-8-16T17:9:55Z</time></trkpt>
<trkpt lat="45.9292764589" lon="2.8447357938"><ele></ele><time>2013-8-16T17:9:58Z</time></trkpt>
<trkpt lat="45.9292902891" lon="2.8448788729"><ele></ele><time>2013-8-16T17:10:1Z</time></trkpt>
<trkpt lat="45.9294161014" lon="2.8452698048"><ele></ele><time>2013-8-16T17:10:4Z</time></trkpt>
<trkpt lat="45.9294280875" lon="2.8452877421"><ele></ele><time>2013-8-16T17:10:7Z</time></trkpt>
<trkpt lat="45.9295152593" lon="2.8455765825"><ele></ele><time>2013-8-16T17:10:10Z</time></trkpt>
<trkpt lat="45.9295959771" lon="2.8459734656"><ele></ele><time>2013-8-16T17:10:13Z</time></trkpt>
<trkpt lat="45.9296248946" lon="2.8463074844"><ele></ele><time>2013-8-16T17:10:16Z</time></trkpt>
<trkpt lat="45.9296643734" lon="2.8467372246"><ele></ele><time>2013-8-16T17:10:19Z</time></trkpt>
<trkpt lat="45.9296468552" lon="2.8468781244"><ele></ele><time>2013-8-16T17:10:22Z</time></trkpt>
<trkpt lat="45.9294596035" lon="2.8471070342"><ele></ele><time>2013-8-16T17:10:25Z</time></trkpt>
<trkpt lat="45.9293044545" lon="2.8471873328"><ele></ele><time>2013-8-16T17:10:28Z</time></trkpt>
<trkpt lat="45.9292199649" lon="2.8472412284"><ele></ele><time>2013-8-16T17:10:31Z</time></trkpt>
<trkpt lat="45.9292071406" lon="2.8472460061"><ele></ele><time>2013-8-16T17:10:34Z</time></trkpt>
<trkpt lat="45.9291878622" lon="2.8472386301"><ele></ele><time>2013-8-16T17:10:37Z</time></trkpt>
<trkpt lat="45.9291819949" lon="2.8472689725"><ele></ele><time>2013-8-16T17:10:40Z</time></trkpt>
<trkpt lat="45.9291732777" lon="2.8473016620"><ele></ele><time>2013-8-16T17:10:43Z</time></trkpt>
<trkpt lat="45.9291648120" lon="2.8473000694"><ele></ele><time>2013-8-16T17:10:46Z</time></trkpt>
<trkpt lat="45.9291613754" lon="2.8473056015"><ele></ele><time>2013-8-16T17:10:49Z</time></trkpt>
<trkpt lat="45.9291509818" lon="2.8473119717"><ele></ele><time>2013-8-16T17:10:52Z</time></trkpt>
<trkpt lat="45.9291312005" lon="2.8473192640"><ele></ele><time>2013-8-16T17:10:55Z</time></trkpt>
<trkpt lat="45.9290446155" lon="2.8473211080"><ele></ele><time>2013-8-16T17:10:58Z</time></trkpt>
<trkpt lat="45.9289703518" lon="2.8473346867"><ele></ele><time>2013-8-16T17:11:1Z</time></trkpt>
<trkpt lat="45.9289318789" lon="2.8473724052"><ele></ele><time>2013-8-16T17:11:4Z</time></trkpt>
<trkpt lat="45.9288706910" lon="2.8474503569"><ele></ele><time>2013-8-16T17:11:7Z</time></trkpt>
<trkpt lat="45.9288454615" lon="2.8478259500"><ele></ele><time>2013-8-16T17:11:10Z</time></trkpt>
<trkpt lat="45.9288524184" lon="2.8481911495"><ele></ele><time>2013-8-16T17:11:13Z</time></trkpt>
<trkpt lat="45.9288483113" lon="2.8484699316"><ele></ele><time>2013-8-16T17:11:16Z</time></trkpt>
<trkpt lat="45.9288608842" lon="2.8485341370"><ele></ele><time>2013-8-16T17:11:19Z</time></trkpt>
<trkpt lat="45.9288413543" lon="2.8486542497"><ele></ele><time>2013-8-16T17:11:22Z</time></trkpt>
<trkpt lat="45.9287670907" lon="2.8489886876"><ele></ele><time>2013-8-16T17:11:25Z</time></trkpt>
<trkpt lat="45.9287000354" lon="2.8491838183"><ele></ele><time>2013-8-16T17:11:28Z</time></trkpt>
<trkpt lat="45.9285832755" lon="2.8494411428"><ele></ele><time>2013-8-16T17:11:31Z</time></trkpt>
<trkpt lat="45.9285431262" lon="2.8495134786"><ele></ele><time>2013-8-16T17:11:34Z</time></trkpt>
<trkpt lat="45.9283703752" lon="2.8496727347"><ele></ele><time>2013-8-16T17:11:37Z</time></trkpt>
<trkpt lat="45.9283081815" lon="2.8497183323"><ele></ele><time>2013-8-16T17:11:40Z</time></trkpt>
<trkpt lat="45.9281069320" lon="2.8498793487"><ele></ele><time>2013-8-16T17:11:43Z</time></trkpt>
<trkpt lat="45.9280643519" lon="2.8498911671"><ele></ele><time>2013-8-16T17:11:46Z</time></trkpt>
<trkpt lat="45.9279625118" lon="2.8499535285"><ele></ele><time>2013-8-16T17:11:49Z</time></trkpt>
<trkpt lat="45.9278373700" lon="2.8503577039"><ele></ele><time>2013-8-16T17:11:52Z</time></trkpt>
<trkpt lat="45.9277063608" lon="2.8508265037"><ele></ele><time>2013-8-16T17:11:55Z</time></trkpt>
<trkpt lat="45.9276140761" lon="2.8510932997"><ele></ele><time>2013-8-16T17:11:58Z</time></trkpt>
<trkpt lat="45.9274350386" lon="2.8508955706"><ele></ele><time>2013-8-16T17:12:1Z</time></trkpt>
<trkpt lat="45.9270689171" lon="2.8502924088"><ele></ele><time>2013-8-16T17:12:4Z</time></trkpt>
<trkpt lat="45.9267168771" lon="2.8496825416"><ele></ele><time>2013-8-16T17:12:7Z</time></trkpt>
<trkpt lat="45.9266897198" lon="2.8496374469"><ele></ele><time>2013-8-16T17:12:10Z</time></trkpt>
<trkpt lat="45.9264711197" lon="2.8492983151"><ele></ele><time>2013-8-16T17:12:13Z</time></trkpt>
<trkpt lat="45.9264415316" lon="2.8492538910"><ele></ele><time>2013-8-16T17:12:16Z</time></trkpt>
<trkpt lat="45.9264121111" lon="2.8492077067"><ele></ele><time>2013-8-16T17:12:19Z</time></trkpt>
<trkpt lat="45.9262240212" lon="2.8488936368"><ele></ele><time>2013-8-16T17:12:22Z</time></trkpt>
<trkpt lat="45.9258220252" lon="2.8482111823"><ele></ele><time>2013-8-16T17:12:25Z</time></trkpt>
<trkpt lat="45.9257814568" lon="2.8481391817"><ele></ele><time>2013-8-16T17:12:28Z</time></trkpt>
<trkpt lat="45.9256034251" lon="2.8478336614"><ele></ele><time>2013-8-16T17:12:31Z</time></trkpt>
<trkpt lat="45.9254448395" lon="2.8475481737"><ele></ele><time>2013-8-16T17:12:34Z</time></trkpt>
<trkpt lat="45.9253759403" lon="2.8474427294"><ele></ele><time>2013-8-16T17:12:37Z</time></trkpt>
<trkpt lat="45.9253312647" lon="2.8474208526"><ele></ele><time>2013-8-16T17:12:40Z</time></trkpt>
<trkpt lat="45.9252819791" lon="2.8474216070"><ele></ele><time>2013-8-16T17:12:43Z</time></trkpt>
<trkpt lat="45.9252366330" lon="2.8474481776"><ele></ele><time>2013-8-16T17:12:46Z</time></trkpt>
<trkpt lat="45.9251953103" lon="2.8474871535"><ele></ele><time>2013-8-16T17:12:49Z</time></trkpt>
<trkpt lat="45.9251632076" lon="2.8475374449"><ele></ele><time>2013-8-16T17:12:52Z</time></trkpt>
<trkpt lat="45.9251388162" lon="2.8475946095"><ele></ele><time>2013-8-16T17:12:55Z</time></trkpt>
<trkpt lat="45.9250444360" lon="2.8478166461"><ele></ele><time>2013-8-16T17:12:58Z</time></trkpt>
<trkpt lat="45.9246346448" lon="2.8486225661"><ele></ele><time>2013-8-16T17:13:1Z</time></trkpt>
<trkpt lat="45.9243556950" lon="2.8491822258"><ele></ele><time>2013-8-16T17:13:4Z</time></trkpt>
<trkpt lat="45.9241106082" lon="2.8496969584"><ele></ele><time>2013-8-16T17:13:7Z</time></trkpt>
<trkpt lat="45.9240195807" lon="2.8499018122"><ele></ele><time>2013-8-16T17:13:10Z</time></trkpt>
<trkpt lat="45.9239989612" lon="2.8499699570"><ele></ele><time>2013-8-16T17:13:13Z</time></trkpt>
<trkpt lat="45.9239876457" lon="2.8500342462"><ele></ele><time>2013-8-16T17:13:16Z</time></trkpt>
<trkpt lat="45.9239775036" lon="2.8500982001"><ele></ele><time>2013-8-16T17:13:19Z</time></trkpt>
<trkpt lat="45.9239578061" lon="2.8501509223"><ele></ele><time>2013-8-16T17:13:22Z</time></trkpt>
<trkpt lat="45.9239299782" lon="2.8501951788"><ele></ele><time>2013-8-16T17:13:25Z</time></trkpt>
<trkpt lat="45.9238934331" lon="2.8502288740"><ele></ele><time>2013-8-16T17:13:28Z</time></trkpt>
<trkpt lat="45.9238463268" lon="2.8502520081"><ele></ele><time>2013-8-16T17:13:31Z</time></trkpt>
<trkpt lat="45.9237936884" lon="2.8502651677"><ele></ele><time>2013-8-16T17:13:34Z</time></trkpt>
<trkpt lat="45.9237348475" lon="2.8502728790"><ele></ele><time>2013-8-16T17:13:37Z</time></trkpt>
<trkpt lat="45.9236704744" lon="2.8502783272"><ele></ele><time>2013-8-16T17:13:40Z</time></trkpt>
<trkpt lat="45.9235452488" lon="2.8502908163"><ele></ele><time>2013-8-16T17:13:43Z</time></trkpt>
<trkpt lat="45.9234868269" lon="2.8502907325"><ele></ele><time>2013-8-16T17:13:46Z</time></trkpt>
<trkpt lat="45.9233828913" lon="2.8502730466"><ele></ele><time>2013-8-16T17:13:49Z</time></trkpt>
<trkpt lat="45.9233390540" lon="2.8502544388"><ele></ele><time>2013-8-16T17:13:52Z</time></trkpt>
<trkpt lat="45.9232990723" lon="2.8502355795"><ele></ele><time>2013-8-16T17:13:55Z</time></trkpt>
<trkpt lat="45.9229665622" lon="2.8500673547"><ele></ele><time>2013-8-16T17:13:58Z</time></trkpt>
<trkpt lat="45.9229402430" lon="2.8500858787"><ele></ele><time>2013-8-16T17:14:1Z</time></trkpt>
<trkpt lat="45.9226860199" lon="2.8503278643"><ele></ele><time>2013-8-16T17:14:4Z</time></trkpt>
<trkpt lat="45.9224716108" lon="2.8502655867"><ele></ele><time>2013-8-16T17:14:7Z</time></trkpt>
<trkpt lat="45.9223385900" lon="2.8502016328"><ele></ele><time>2013-8-16T17:14:10Z</time></trkpt>
<trkpt lat="45.9220745601" lon="2.8500779159"><ele></ele><time>2013-8-16T17:14:13Z</time></trkpt>
<trkpt lat="45.9216902498" lon="2.8499013931"><ele></ele><time>2013-8-16T17:14:16Z</time></trkpt>
<trkpt lat="45.9214387927" lon="2.8498236928"><ele></ele><time>2013-8-16T17:14:19Z</time></trkpt>
<trkpt lat="45.9211809654" lon="2.8497211821"><ele></ele><time>2013-8-16T17:14:22Z</time></trkpt>
<trkpt lat="45.9211192746" lon="2.8496806137"><ele></ele><time>2013-8-16T17:14:25Z</time></trkpt>
<trkpt lat="45.9209977370" lon="2.8494448308"><ele></ele><time>2013-8-16T17:14:28Z</time></trkpt>
<trkpt lat="45.9209275804" lon="2.8491084650"><ele></ele><time>2013-8-16T17:14:31Z</time></trkpt>
<trkpt lat="45.9209160972" lon="2.8489110712"><ele></ele><time>2013-8-16T17:14:34Z</time></trkpt>
<trkpt lat="45.9208599385" lon="2.8485866915"><ele></ele><time>2013-8-16T17:14:37Z</time></trkpt>
<trkpt lat="45.9208420012" lon="2.8484157845"><ele></ele><time>2013-8-16T17:14:40Z</time></trkpt>
<trkpt lat="45.9208264109" lon="2.8482390940"><ele></ele><time>2013-8-16T17:14:43Z</time></trkpt>
<trkpt lat="45.9208215494" lon="2.8482157085"><ele></ele><time>2013-8-16T17:14:46Z</time></trkpt>
<trkpt lat="45.9208117425" lon="2.8478916641"><ele></ele><time>2013-8-16T17:14:49Z</time></trkpt>
<trkpt lat="45.9208145924" lon="2.8478163108"><ele></ele><time>2013-8-16T17:14:52Z</time></trkpt>
<trkpt lat="45.9208102338" lon="2.8477828670"><ele></ele><time>2013-8-16T17:14:55Z</time></trkpt>
<trkpt lat="45.9208078030" lon="2.8477531113"><ele></ele><time>2013-8-16T17:14:58Z</time></trkpt>
<trkpt lat="45.9208040312" lon="2.8477241099"><ele></ele><time>2013-8-16T17:15:1Z</time></trkpt>
<trkpt lat="45.9208012652" lon="2.8476956952"><ele></ele><time>2013-8-16T17:15:4Z</time></trkpt>
<trkpt lat="45.9207549971" lon="2.8472422343"><ele></ele><time>2013-8-16T17:15:7Z</time></trkpt>
<trkpt lat="45.9207089804" lon="2.8467957303"><ele></ele><time>2013-8-16T17:15:10Z</time></trkpt>
<trkpt lat="45.9206146840" lon="2.8463814128"><ele></ele><time>2013-8-16T17:15:13Z</time></trkpt>
<trkpt lat="45.9205019474" lon="2.8459142055"><ele></ele><time>2013-8-16T17:15:16Z</time></trkpt>
<trkpt lat="45.9204044659" lon="2.8454524465"><ele></ele><time>2013-8-16T17:15:19Z</time></trkpt>
<trkpt lat="45.9202127717" lon="2.8448352870"><ele></ele><time>2013-8-16T17:15:22Z</time></trkpt>
<trkpt lat="45.9201848600" lon="2.8447914496"><ele></ele><time>2013-8-16T17:15:25Z</time></trkpt>
<trkpt lat="45.9201556072" lon="2.8447519708"><ele></ele><time>2013-8-16T17:15:28Z</time></trkpt>
<trkpt lat="45.9198293835" lon="2.8444538265"><ele></ele><time>2013-8-16T17:15:31Z</time></trkpt>
<trkpt lat="45.9195155650" lon="2.8442789800"><ele></ele><time>2013-8-16T17:15:34Z</time></trkpt>
<trkpt lat="45.9191034269" lon="2.8441030439"><ele></ele><time>2013-8-16T17:15:37Z</time></trkpt>
<trkpt lat="45.9187588468" lon="2.8439411055"><ele></ele><time>2013-8-16T17:15:40Z</time></trkpt>
<trkpt lat="45.9185478743" lon="2.8437861241"><ele></ele><time>2013-8-16T17:15:43Z</time></trkpt>
<trkpt lat="45.9184370656" lon="2.8433201741"><ele></ele><time>2013-8-16T17:15:46Z</time></trkpt>
<trkpt lat="45.9183593653" lon="2.8427949641"><ele></ele><time>2013-8-16T17:15:49Z</time></trkpt>
<trkpt lat="45.9183299448" lon="2.8426204529"><ele></ele><time>2013-8-16T17:15:52Z</time></trkpt>
<trkpt lat="45.9183123428" lon="2.8425273299"><ele></ele><time>2013-8-16T17:15:55Z</time></trkpt>
<trkpt lat="45.9182467125" lon="2.8420515731"><ele></ele><time>2013-8-16T17:15:58Z</time></trkpt>
<trkpt lat="45.9181401785" lon="2.8412268776"><ele></ele><time>2013-8-16T17:16:1Z</time></trkpt>
<trkpt lat="45.9181164578" lon="2.8412092756"><ele></ele><time>2013-8-16T17:16:4Z</time></trkpt>
<trkpt lat="45.9180920664" lon="2.8412042465"><ele></ele><time>2013-8-16T17:16:7Z</time></trkpt>
<trkpt lat="45.9180694353" lon="2.8412120417"><ele></ele><time>2013-8-16T17:16:10Z</time></trkpt>
<trkpt lat="45.9180491511" lon="2.8412281349"><ele></ele><time>2013-8-16T17:16:13Z</time></trkpt>
<trkpt lat="45.9180279449" lon="2.8412514366"><ele></ele><time>2013-8-16T17:16:16Z</time></trkpt>
<trkpt lat="45.9178519249" lon="2.8414407838"><ele></ele><time>2013-8-16T17:16:19Z</time></trkpt>
<trkpt lat="45.9176847897" lon="2.8417291213"><ele></ele><time>2013-8-16T17:16:22Z</time></trkpt>
<trkpt lat="45.9174931794" lon="2.8419892956"><ele></ele><time>2013-8-16T17:16:25Z</time></trkpt>
<trkpt lat="45.9172705561" lon="2.8422602825"><ele></ele><time>2013-8-16T17:16:28Z</time></trkpt>
<trkpt lat="45.9172562230" lon="2.8422791418"><ele></ele><time>2013-8-16T17:16:31Z</time></trkpt>
<trkpt lat="45.9172372799" lon="2.8423037007"><ele></ele><time>2013-8-16T17:16:34Z</time></trkpt>
<trkpt lat="45.9170019161" lon="2.8425924573"><ele></ele><time>2013-8-16T17:16:37Z</time></trkpt>
<trkpt lat="45.9167827293" lon="2.8428252228"><ele></ele><time>2013-8-16T17:16:40Z</time></trkpt>
<trkpt lat="45.9167592600" lon="2.8428450041"><ele></ele><time>2013-8-16T17:16:43Z</time></trkpt>
<trkpt lat="45.9167405684" lon="2.8428707365"><ele></ele><time>2013-8-16T17:16:46Z</time></trkpt>
<trkpt lat="45.9167199489" lon="2.8428908531"><ele></ele><time>2013-8-16T17:16:49Z</time></trkpt>
<trkpt lat="45.9166968986" lon="2.8429107182"><ele></ele><time>2013-8-16T17:16:52Z</time></trkpt>
<trkpt lat="45.9166738484" lon="2.8429255541"><ele></ele><time>2013-8-16T17:16:55Z</time></trkpt>
<trkpt lat="45.9166456852" lon="2.8429434076"><ele></ele><time>2013-8-16T17:16:58Z</time></trkpt>
<trkpt lat="45.9165662248" lon="2.8429680504"><ele></ele><time>2013-8-16T17:17:1Z</time></trkpt>
<trkpt lat="45.9165419172" lon="2.8429696430"><ele></ele><time>2013-8-16T17:17:4Z</time></trkpt>
<trkpt lat="45.9165179450" lon="2.8429734986"><ele></ele><time>2013-8-16T17:17:7Z</time></trkpt>
<trkpt lat="45.9164926317" lon="2.8429759294"><ele></ele><time>2013-8-16T17:17:10Z</time></trkpt>
<trkpt lat="45.9164693300" lon="2.8429869935"><ele></ele><time>2013-8-16T17:17:13Z</time></trkpt>
<trkpt lat="45.9163202997" lon="2.8430867381"><ele></ele><time>2013-8-16T17:17:16Z</time></trkpt>
<trkpt lat="45.9163047932" lon="2.8431036696"><ele></ele><time>2013-8-16T17:17:19Z</time></trkpt>
<trkpt lat="45.9162885323" lon="2.8431150690"><ele></ele><time>2013-8-16T17:17:22Z</time></trkpt>
<trkpt lat="45.9162674099" lon="2.8431312460"><ele></ele><time>2013-8-16T17:17:25Z</time></trkpt>
<trkpt lat="45.9162454493" lon="2.8431453276"><ele></ele><time>2013-8-16T17:17:28Z</time></trkpt>
<trkpt lat="45.9161010291" lon="2.8431936912"><ele></ele><time>2013-8-16T17:17:31Z</time></trkpt>
<trkpt lat="45.9160794877" lon="2.8432019893"><ele></ele><time>2013-8-16T17:17:34Z</time></trkpt>
<trkpt lat="45.9160591196" lon="2.8432175796"><ele></ele><time>2013-8-16T17:17:37Z</time></trkpt>
<trkpt lat="45.9160385840" lon="2.8432322480"><ele></ele><time>2013-8-16T17:17:40Z</time></trkpt>
<trkpt lat="45.9160189703" lon="2.8432435635"><ele></ele><time>2013-8-16T17:17:43Z</time></trkpt>
<trkpt lat="45.9158038069" lon="2.8433777578"><ele></ele><time>2013-8-16T17:17:46Z</time></trkpt>
<trkpt lat="45.9157857019" lon="2.8433840442"><ele></ele><time>2013-8-16T17:17:49Z</time></trkpt>
<trkpt lat="45.9157650825" lon="2.8433879837"><ele></ele><time>2013-8-16T17:17:52Z</time></trkpt>
<trkpt lat="45.9155532718" lon="2.8435272910"><ele></ele><time>2013-8-16T17:17:55Z</time></trkpt>
<trkpt lat="45.9152460750" lon="2.8437042329"><ele></ele><time>2013-8-16T17:17:58Z</time></trkpt>
<trkpt lat="45.9149345197" lon="2.8439024650"><ele></ele><time>2013-8-16T17:18:1Z</time></trkpt>
<trkpt lat="45.9148793668" lon="2.8439328074"><ele></ele><time>2013-8-16T17:18:4Z</time></trkpt>
<trkpt lat="45.9148587473" lon="2.8439380880"><ele></ele><time>2013-8-16T17:18:7Z</time></trkpt>
<trkpt lat="45.9148389660" lon="2.8439456318"><ele></ele><time>2013-8-16T17:18:10Z</time></trkpt>
<trkpt lat="45.9148202743" lon="2.8439508285"><ele></ele><time>2013-8-16T17:18:13Z</time></trkpt>
<trkpt lat="45.9148040134" lon="2.8439546004"><ele></ele><time>2013-8-16T17:18:16Z</time></trkpt>
<trkpt lat="45.9147861600" lon="2.8439621441"><ele></ele><time>2013-8-16T17:18:19Z</time></trkpt>
<trkpt lat="45.9147683904" lon="2.8439758904"><ele></ele><time>2013-8-16T17:18:22Z</time></trkpt>
<trkpt lat="45.9145118203" lon="2.8441408463"><ele></ele><time>2013-8-16T17:18:25Z</time></trkpt>
<trkpt lat="45.9143280052" lon="2.8444555867"><ele></ele><time>2013-8-16T17:18:28Z</time></trkpt>
<trkpt lat="45.9141969122" lon="2.8447756916"><ele></ele><time>2013-8-16T17:18:31Z</time></trkpt>
<trkpt lat="45.9139030427" lon="2.8451727424"><ele></ele><time>2013-8-16T17:18:34Z</time></trkpt>
<trkpt lat="45.9135970194" lon="2.8454186674"><ele></ele><time>2013-8-16T17:18:37Z</time></trkpt>
<trkpt lat="45.9133758210" lon="2.8455190826"><ele></ele><time>2013-8-16T17:18:40Z</time></trkpt>
<trkpt lat="45.9131784271" lon="2.8457240202"><ele></ele><time>2013-8-16T17:18:43Z</time></trkpt>
<trkpt lat="45.9131628368" lon="2.8457435500"><ele></ele><time>2013-8-16T17:18:46Z</time></trkpt>
<trkpt lat="45.9131464921" lon="2.8457719646"><ele></ele><time>2013-8-16T17:18:49Z</time></trkpt>
<trkpt lat="45.9131312370" lon="2.8458008822"><ele></ele><time>2013-8-16T17:18:52Z</time></trkpt>
<trkpt lat="45.9131146409" lon="2.8458317276"><ele></ele><time>2013-8-16T17:18:55Z</time></trkpt>
<trkpt lat="45.9130983800" lon="2.8458587173"><ele></ele><time>2013-8-16T17:18:58Z</time></trkpt>
<trkpt lat="45.9130877350" lon="2.8458948433"><ele></ele><time>2013-8-16T17:19:1Z</time></trkpt>
<trkpt lat="45.9130754974" lon="2.8459305502"><ele></ele><time>2013-8-16T17:19:4Z</time></trkpt>
<trkpt lat="45.9130617511" lon="2.8459670953"><ele></ele><time>2013-8-16T17:19:7Z</time></trkpt>
<trkpt lat="45.9130493458" lon="2.8460035566"><ele></ele><time>2013-8-16T17:19:10Z</time></trkpt>
<trkpt lat="45.9128921013" lon="2.8464746196"><ele></ele><time>2013-8-16T17:19:13Z</time></trkpt>
<trkpt lat="45.9127822146" lon="2.8468909487"><ele></ele><time>2013-8-16T17:19:16Z</time></trkpt>
<trkpt lat="45.9126745071" lon="2.8472555615"><ele></ele><time>2013-8-16T17:19:19Z</time></trkpt>
<trkpt lat="45.9125548135" lon="2.8476227727"><ele></ele><time>2013-8-16T17:19:22Z</time></trkpt>
<trkpt lat="45.9124059509" lon="2.8479843680"><ele></ele><time>2013-8-16T17:19:25Z</time></trkpt>
<trkpt lat="45.9123989101" lon="2.8480147943"><ele></ele><time>2013-8-16T17:19:28Z</time></trkpt>
<trkpt lat="45.9123907797" lon="2.8480465617"><ele></ele><time>2013-8-16T17:19:31Z</time></trkpt>
<trkpt lat="45.9122490417" lon="2.8485250846"><ele></ele><time>2013-8-16T17:19:34Z</time></trkpt>
<trkpt lat="45.9120551683" lon="2.8490203712"><ele></ele><time>2013-8-16T17:19:37Z</time></trkpt>
<trkpt lat="45.9119109157" lon="2.8494314197"><ele></ele><time>2013-8-16T17:19:40Z</time></trkpt>
<trkpt lat="45.9118948225" lon="2.8494907636"><ele></ele><time>2013-8-16T17:19:43Z</time></trkpt>
<trkpt lat="45.9117882047" lon="2.8498006426"><ele></ele><time>2013-8-16T17:19:46Z</time></trkpt>
<trkpt lat="45.9117768053" lon="2.8498489223"><ele></ele><time>2013-8-16T17:19:49Z</time></trkpt>
<trkpt lat="45.9117656574" lon="2.8498902451"><ele></ele><time>2013-8-16T17:19:52Z</time></trkpt>
<trkpt lat="45.9117201436" lon="2.8500163928"><ele></ele><time>2013-8-16T17:19:55Z</time></trkpt>
<trkpt lat="45.9116510767" lon="2.8502484038"><ele></ele><time>2013-8-16T17:19:58Z</time></trkpt>
<trkpt lat="45.9116366599" lon="2.8503175545"><ele></ele><time>2013-8-16T17:20:1Z</time></trkpt>
<trkpt lat="45.9116218239" lon="2.8503864538"><ele></ele><time>2013-8-16T17:20:4Z</time></trkpt>
<trkpt lat="45.9116047248" lon="2.8505444527"><ele></ele><time>2013-8-16T17:20:7Z</time></trkpt>
<trkpt lat="45.9116002824" lon="2.8506024554"><ele></ele><time>2013-8-16T17:20:10Z</time></trkpt>
<trkpt lat="45.9116001986" lon="2.8506691754"><ele></ele><time>2013-8-16T17:20:13Z</time></trkpt>
<trkpt lat="45.9116102569" lon="2.8508029506"><ele></ele><time>2013-8-16T17:20:16Z</time></trkpt>
<trkpt lat="45.9116386715" lon="2.8510893602"><ele></ele><time>2013-8-16T17:20:19Z</time></trkpt>
<trkpt lat="45.9117006138" lon="2.8516038414"><ele></ele><time>2013-8-16T17:20:22Z</time></trkpt>
<trkpt lat="45.9117069840" lon="2.8516817093"><ele></ele><time>2013-8-16T17:20:25Z</time></trkpt>
<trkpt lat="45.9117125161" lon="2.8517641034"><ele></ele><time>2013-8-16T17:20:28Z</time></trkpt>
<trkpt lat="45.9117162880" lon="2.8520593140"><ele></ele><time>2013-8-16T17:20:31Z</time></trkpt>
<trkpt lat="45.9117092472" lon="2.8521252796"><ele></ele><time>2013-8-16T17:20:34Z</time></trkpt>
<trkpt lat="45.9116887953" lon="2.8521808516"><ele></ele><time>2013-8-16T17:20:37Z</time></trkpt>
<trkpt lat="45.9116635658" lon="2.8522229288"><ele></ele><time>2013-8-16T17:20:40Z</time></trkpt>
<trkpt lat="45.9116364084" lon="2.8522534389"><ele></ele><time>2013-8-16T17:20:43Z</time></trkpt>
<trkpt lat="45.9116126876" lon="2.8522832785"><ele></ele><time>2013-8-16T17:20:46Z</time></trkpt>
<trkpt lat="45.9115939122" lon="2.8523054905"><ele></ele><time>2013-8-16T17:20:49Z</time></trkpt>
<trkpt lat="45.9115778189" lon="2.8523223381"><ele></ele><time>2013-8-16T17:20:52Z</time></trkpt>
<trkpt lat="45.9115423635" lon="2.8524732962"><ele></ele><time>2013-8-16T17:20:55Z</time></trkpt>
<trkpt lat="45.9115399327" lon="2.8524953406"><ele></ele><time>2013-8-16T17:20:58Z</time></trkpt>
<trkpt lat="45.9115408547" lon="2.8524950054"><ele></ele><time>2013-8-16T17:21:1Z</time></trkpt>
<trkpt lat="45.9115358256" lon="2.8524947539"><ele></ele><time>2013-8-16T17:21:4Z</time></trkpt>
<trkpt lat="45.9115344007" lon="2.8525138646"><ele></ele><time>2013-8-16T17:21:7Z</time></trkpt>
<trkpt lat="45.9115253482" lon="2.8525236715"><ele></ele><time>2013-8-16T17:21:10Z</time></trkpt>
<trkpt lat="45.9115253482" lon="2.8525234200"><ele></ele><time>2013-8-16T17:21:13Z</time></trkpt>
<trkpt lat="45.9115255997" lon="2.8525235876"><ele></ele><time>2013-8-16T17:21:16Z</time></trkpt>
<trkpt lat="45.9115257673" lon="2.8525243420"><ele></ele><time>2013-8-16T17:21:19Z</time></trkpt>
<trkpt lat="45.9115250129" lon="2.8525308799"><ele></ele><time>2013-8-16T17:21:22Z</time></trkpt>
<trkpt lat="45.9115110990" lon="2.8525381722"><ele></ele><time>2013-8-16T17:21:25Z</time></trkpt>
<trkpt lat="45.9114907309" lon="2.8525428660"><ele></ele><time>2013-8-16T17:21:28Z</time></trkpt>
<trkpt lat="45.9114633221" lon="2.8525465541"><ele></ele><time>2013-8-16T17:21:31Z</time></trkpt>
<trkpt lat="45.9114292916" lon="2.8525498230"><ele></ele><time>2013-8-16T17:21:34Z</time></trkpt>
<trkpt lat="45.9113905672" lon="2.8525593784"><ele></ele><time>2013-8-16T17:21:37Z</time></trkpt>
<trkpt lat="45.9113478195" lon="2.8525721189"><ele></ele><time>2013-8-16T17:21:40Z</time></trkpt>
<trkpt lat="45.9113012161" lon="2.8525902238"><ele></ele><time>2013-8-16T17:21:43Z</time></trkpt>
<trkpt lat="45.9112463146" lon="2.8526139446"><ele></ele><time>2013-8-16T17:21:46Z</time></trkpt>
<trkpt lat="45.9111773316" lon="2.8526347317"><ele></ele><time>2013-8-16T17:21:49Z</time></trkpt>
<trkpt lat="45.9111035708" lon="2.8526558541"><ele></ele><time>2013-8-16T17:21:52Z</time></trkpt>
<trkpt lat="45.9108949453" lon="2.8527168743"><ele></ele><time>2013-8-16T17:21:55Z</time></trkpt>
<trkpt lat="45.9106565639" lon="2.8527869470"><ele></ele><time>2013-8-16T17:21:58Z</time></trkpt>
<trkpt lat="45.9106032550" lon="2.8528094105"><ele></ele><time>2013-8-16T17:22:1Z</time></trkpt>
<trkpt lat="45.9105552267" lon="2.8528384957"><ele></ele><time>2013-8-16T17:22:4Z</time></trkpt>
<trkpt lat="45.9105128981" lon="2.8528700955"><ele></ele><time>2013-8-16T17:22:7Z</time></trkpt>
<trkpt lat="45.9104749281" lon="2.8529084846"><ele></ele><time>2013-8-16T17:22:10Z</time></trkpt>
<trkpt lat="45.9104391374" lon="2.8529529925"><ele></ele><time>2013-8-16T17:22:13Z</time></trkpt>
<trkpt lat="45.9104073700" lon="2.8530088998"><ele></ele><time>2013-8-16T17:22:16Z</time></trkpt>
<trkpt lat="45.9103812184" lon="2.8530695848"><ele></ele><time>2013-8-16T17:22:19Z</time></trkpt>
<trkpt lat="45.9103370458" lon="2.8531748615"><ele></ele><time>2013-8-16T17:22:22Z</time></trkpt>
<trkpt lat="45.9102130774" lon="2.8532435093"><ele></ele><time>2013-8-16T17:22:25Z</time></trkpt>
<trkpt lat="45.9101756942" lon="2.8532218840"><ele></ele><time>2013-8-16T17:22:28Z</time></trkpt>
<trkpt lat="45.9101410769" lon="2.8531831596"><ele></ele><time>2013-8-16T17:22:31Z</time></trkpt>
<trkpt lat="45.9101137519" lon="2.8531339578"><ele></ele><time>2013-8-16T17:22:34Z</time></trkpt>
<trkpt lat="45.9100938030" lon="2.8530798107"><ele></ele><time>2013-8-16T17:22:37Z</time></trkpt>
<trkpt lat="45.9100772068" lon="2.8530285135"><ele></ele><time>2013-8-16T17:22:40Z</time></trkpt>
<trkpt lat="45.9100587666" lon="2.8529880289"><ele></ele><time>2013-8-16T17:22:43Z</time></trkpt>
<trkpt lat="45.9100298490" lon="2.8529649787"><ele></ele><time>2013-8-16T17:22:46Z</time></trkpt>
<trkpt lat="45.9099938907" lon="2.8529588599"><ele></ele><time>2013-8-16T17:22:49Z</time></trkpt>
<trkpt lat="45.9099560883" lon="2.8529690858"><ele></ele><time>2013-8-16T17:22:52Z</time></trkpt>
<trkpt lat="45.9099208005" lon="2.8530019429"><ele></ele><time>2013-8-16T17:22:55Z</time></trkpt>
<trkpt lat="45.9098948166" lon="2.8530610353"><ele></ele><time>2013-8-16T17:22:58Z</time></trkpt>
<trkpt lat="45.9098798968" lon="2.8531295992"><ele></ele><time>2013-8-16T17:23:1Z</time></trkpt>
<trkpt lat="45.9098690003" lon="2.8532006778"><ele></ele><time>2013-8-16T17:23:4Z</time></trkpt>
<trkpt lat="45.9098557569" lon="2.8532708343"><ele></ele><time>2013-8-16T17:23:7Z</time></trkpt>
<trkpt lat="45.9098375682" lon="2.8533367999"><ele></ele><time>2013-8-16T17:23:10Z</time></trkpt>
<trkpt lat="45.9097280167" lon="2.8536574915"><ele></ele><time>2013-8-16T17:23:13Z</time></trkpt>
<trkpt lat="45.9097054694" lon="2.8537084535"><ele></ele><time>2013-8-16T17:23:16Z</time></trkpt>
<trkpt lat="45.9096928965" lon="2.8537305817"><ele></ele><time>2013-8-16T17:23:19Z</time></trkpt>
<trkpt lat="45.9096817486" lon="2.8537516203"><ele></ele><time>2013-8-16T17:23:22Z</time></trkpt>
<trkpt lat="45.9096699301" lon="2.8537746705"><ele></ele><time>2013-8-16T17:23:25Z</time></trkpt>
<trkpt lat="45.9096608777" lon="2.8537967149"><ele></ele><time>2013-8-16T17:23:28Z</time></trkpt>
<trkpt lat="45.9096504003" lon="2.8538202681"><ele></ele><time>2013-8-16T17:23:31Z</time></trkpt>
<trkpt lat="45.9095184691" lon="2.8540632594"><ele></ele><time>2013-8-16T17:23:34Z</time></trkpt>
<trkpt lat="45.9095100872" lon="2.8540884051"><ele></ele><time>2013-8-16T17:23:37Z</time></trkpt>
<trkpt lat="45.9094988555" lon="2.8541111201"><ele></ele><time>2013-8-16T17:23:40Z</time></trkpt>
<trkpt lat="45.9094885457" lon="2.8541311529"><ele></ele><time>2013-8-16T17:23:43Z</time></trkpt>
<trkpt lat="45.9094769787" lon="2.8541547060"><ele></ele><time>2013-8-16T17:23:46Z</time></trkpt>
<trkpt lat="45.9094670042" lon="2.8541773371"><ele></ele><time>2013-8-16T17:23:49Z</time></trkpt>
<trkpt lat="45.9094566107" lon="2.8541997168"><ele></ele><time>2013-8-16T17:23:52Z</time></trkpt>
<trkpt lat="45.9093767311" lon="2.8544199932"><ele></ele><time>2013-8-16T17:23:55Z</time></trkpt>
<trkpt lat="45.9093657508" lon="2.8544349130"><ele></ele><time>2013-8-16T17:23:58Z</time></trkpt>
<trkpt lat="45.9093565308" lon="2.8544501681"><ele></ele><time>2013-8-16T17:24:1Z</time></trkpt>
<trkpt lat="45.9093354084" lon="2.8545038123"><ele></ele><time>2013-8-16T17:24:4Z</time></trkpt>
<trkpt lat="45.9093074128" lon="2.8545693588"><ele></ele><time>2013-8-16T17:24:7Z</time></trkpt>
<trkpt lat="45.9093004558" lon="2.8545789141"><ele></ele><time>2013-8-16T17:24:10Z</time></trkpt>
<trkpt lat="45.9092509188" lon="2.8546774853"><ele></ele><time>2013-8-16T17:24:13Z</time></trkpt>
<trkpt lat="45.9092294611" lon="2.8547341470"><ele></ele><time>2013-8-16T17:24:16Z</time></trkpt>
<trkpt lat="45.9091610648" lon="2.8549125139"><ele></ele><time>2013-8-16T17:24:19Z</time></trkpt>
<trkpt lat="45.9091609810" lon="2.8550058883"><ele></ele><time>2013-8-16T17:24:22Z</time></trkpt>
<trkpt lat="45.9091873001" lon="2.8550061397"><ele></ele><time>2013-8-16T17:24:25Z</time></trkpt>
<trkpt lat="45.9091831930" lon="2.8550171200"><ele></ele><time>2013-8-16T17:24:28Z</time></trkpt>
<trkpt lat="45.9091772418" lon="2.8550491389"><ele></ele><time>2013-8-16T17:24:31Z</time></trkpt>
<trkpt lat="45.9091754816" lon="2.8551012743"><ele></ele><time>2013-8-16T17:24:34Z</time></trkpt>
<trkpt lat="45.9091385175" lon="2.8551902063"><ele></ele><time>2013-8-16T17:24:37Z</time></trkpt>
<trkpt lat="45.9091320634" lon="2.8552097362"><ele></ele><time>2013-8-16T17:24:40Z</time></trkpt>
<trkpt lat="45.9090569615" lon="2.8553549945"><ele></ele><time>2013-8-16T17:24:43Z</time></trkpt>
<trkpt lat="45.9090422932" lon="2.8553638794"><ele></ele><time>2013-8-16T17:24:46Z</time></trkpt>
<trkpt lat="45.9090287983" lon="2.8553705849"><ele></ele><time>2013-8-16T17:24:49Z</time></trkpt>
<trkpt lat="45.9090157226" lon="2.8553782124"><ele></ele><time>2013-8-16T17:24:52Z</time></trkpt>
<trkpt lat="45.9089995455" lon="2.8553860914"><ele></ele><time>2013-8-16T17:24:55Z</time></trkpt>
<trkpt lat="45.9087656066" lon="2.8553770389"><ele></ele><time>2013-8-16T17:24:58Z</time></trkpt>
<trkpt lat="45.9086269699" lon="2.8552722652"><ele></ele><time>2013-8-16T17:25:1Z</time></trkpt>
<trkpt lat="45.9085682128" lon="2.8552318644"><ele></ele><time>2013-8-16T17:25:4Z</time></trkpt>
<trkpt lat="45.9084540512" lon="2.8551516496"><ele></ele><time>2013-8-16T17:25:7Z</time></trkpt>
<trkpt lat="45.9083553962" lon="2.8550977539"><ele></ele><time>2013-8-16T17:25:10Z</time></trkpt>
<trkpt lat="45.9082538914" lon="2.8550462890"><ele></ele><time>2013-8-16T17:25:13Z</time></trkpt>
<trkpt lat="45.9081502073" lon="2.8549983446"><ele></ele><time>2013-8-16T17:25:16Z</time></trkpt>
<trkpt lat="45.9081139974" lon="2.8549898788"><ele></ele><time>2013-8-16T17:25:19Z</time></trkpt>
<trkpt lat="45.9081078786" lon="2.8549825028"><ele></ele><time>2013-8-16T17:25:22Z</time></trkpt>
<trkpt lat="45.9080611076" lon="2.8549746238"><ele></ele><time>2013-8-16T17:25:25Z</time></trkpt>
<trkpt lat="45.9080416616" lon="2.8549675830"><ele></ele><time>2013-8-16T17:25:28Z</time></trkpt>
<trkpt lat="45.9079535678" lon="2.8549365699"><ele></ele><time>2013-8-16T17:25:31Z</time></trkpt>
<trkpt lat="45.9078640491" lon="2.8549355641"><ele></ele><time>2013-8-16T17:25:34Z</time></trkpt>
<trkpt lat="45.9077684116" lon="2.8549190518"><ele></ele><time>2013-8-16T17:25:37Z</time></trkpt>
<trkpt lat="45.9076657332" lon="2.8548938222"><ele></ele><time>2013-8-16T17:25:40Z</time></trkpt>
<trkpt lat="45.9075353108" lon="2.8549130168"><ele></ele><time>2013-8-16T17:25:43Z</time></trkpt>
<trkpt lat="45.9073856939" lon="2.8549366537"><ele></ele><time>2013-8-16T17:25:46Z</time></trkpt>
<trkpt lat="45.9072605520" lon="2.8549380787"><ele></ele><time>2013-8-16T17:25:49Z</time></trkpt>
<trkpt lat="45.9072323889" lon="2.8549389169"><ele></ele><time>2013-8-16T17:25:52Z</time></trkpt>
<trkpt lat="45.9071786609" lon="2.8549421020"><ele></ele><time>2013-8-16T17:25:55Z</time></trkpt>
<trkpt lat="45.9071515035" lon="2.8549545072"><ele></ele><time>2013-8-16T17:25:58Z</time></trkpt>
<trkpt lat="45.9071487375" lon="2.8549506515"><ele></ele><time>2013-8-16T17:26:1Z</time></trkpt>
<trkpt lat="45.9071093425" lon="2.8549486399"><ele></ele><time>2013-8-16T17:26:4Z</time></trkpt>
<trkpt lat="45.9070940036" lon="2.8549499810"><ele></ele><time>2013-8-16T17:26:7Z</time></trkpt>
<trkpt lat="45.9070794191" lon="2.8549497295"><ele></ele><time>2013-8-16T17:26:10Z</time></trkpt>
<trkpt lat="45.9070650022" lon="2.8549517412"><ele></ele><time>2013-8-16T17:26:13Z</time></trkpt>
<trkpt lat="45.9070500825" lon="2.8549529146"><ele></ele><time>2013-8-16T17:26:16Z</time></trkpt>
<trkpt lat="45.9070336539" lon="2.8549510706"><ele></ele><time>2013-8-16T17:26:19Z</time></trkpt>
<trkpt lat="45.9069596417" lon="2.8549507353"><ele></ele><time>2013-8-16T17:26:22Z</time></trkpt>
<trkpt lat="45.9069427941" lon="2.8549579438"><ele></ele><time>2013-8-16T17:26:25Z</time></trkpt>
<trkpt lat="45.9069224261" lon="2.8549617156"><ele></ele><time>2013-8-16T17:26:28Z</time></trkpt>
<trkpt lat="45.9069064166" lon="2.8549721092"><ele></ele><time>2013-8-16T17:26:31Z</time></trkpt>
<trkpt lat="45.9068924189" lon="2.8549842630"><ele></ele><time>2013-8-16T17:26:34Z</time></trkpt>
<trkpt lat="45.9068772476" lon="2.8549990989"><ele></ele><time>2013-8-16T17:26:37Z</time></trkpt>
<trkpt lat="45.9068640880" lon="2.8550148569"><ele></ele><time>2013-8-16T17:26:40Z</time></trkpt>
<trkpt lat="45.9068536945" lon="2.8550312854"><ele></ele><time>2013-8-16T17:26:43Z</time></trkpt>
<trkpt lat="45.9068423789" lon="2.8550459538"><ele></ele><time>2013-8-16T17:26:46Z</time></trkpt>
<trkpt lat="45.9068289679" lon="2.8550634719"><ele></ele><time>2013-8-16T17:26:49Z</time></trkpt>
<trkpt lat="45.9068171494" lon="2.8550839238"><ele></ele><time>2013-8-16T17:26:52Z</time></trkpt>
<trkpt lat="45.9068057500" lon="2.8551062196"><ele></ele><time>2013-8-16T17:26:55Z</time></trkpt>
<trkpt lat="45.9067968652" lon="2.8551268391"><ele></ele><time>2013-8-16T17:26:58Z</time></trkpt>
<trkpt lat="45.9067842085" lon="2.8551530745"><ele></ele><time>2013-8-16T17:27:1Z</time></trkpt>
<trkpt lat="45.9067724738" lon="2.8551796451"><ele></ele><time>2013-8-16T17:27:4Z</time></trkpt>
<trkpt lat="45.9067610744" lon="2.8552057128"><ele></ele><time>2013-8-16T17:27:7Z</time></trkpt>
<trkpt lat="45.9067502618" lon="2.8552270867"><ele></ele><time>2013-8-16T17:27:10Z</time></trkpt>
<trkpt lat="45.9067416284" lon="2.8552534897"><ele></ele><time>2013-8-16T17:27:13Z</time></trkpt>
<trkpt lat="45.9066139720" lon="2.8555017617"><ele></ele><time>2013-8-16T17:27:16Z</time></trkpt>
<trkpt lat="45.9064732399" lon="2.8556958865"><ele></ele><time>2013-8-16T17:27:19Z</time></trkpt>
<trkpt lat="45.9064716473" lon="2.8556918632"><ele></ele><time>2013-8-16T17:27:22Z</time></trkpt>
<trkpt lat="45.9064693842" lon="2.8557093814"><ele></ele><time>2013-8-16T17:27:25Z</time></trkpt>
<trkpt lat="45.9064726532" lon="2.8557112254"><ele></ele><time>2013-8-16T17:27:28Z</time></trkpt>
<trkpt lat="45.9064738266" lon="2.8557108901"><ele></ele><time>2013-8-16T17:27:31Z</time></trkpt>
<trkpt lat="45.9064741619" lon="2.8557116445"><ele></ele><time>2013-8-16T17:27:34Z</time></trkpt>
<trkpt lat="45.9064724017" lon="2.8557101358"><ele></ele><time>2013-8-16T17:27:37Z</time></trkpt>
<trkpt lat="45.9064721502" lon="2.8557103872"><ele></ele><time>2013-8-16T17:27:40Z</time></trkpt>
<trkpt lat="45.9064714797" lon="2.8557115607"><ele></ele><time>2013-8-16T17:27:43Z</time></trkpt>
<trkpt lat="45.9064724855" lon="2.8557155002"><ele></ele><time>2013-8-16T17:27:46Z</time></trkpt>
<trkpt lat="45.9064723179" lon="2.8557156678"><ele></ele><time>2013-8-16T17:27:49Z</time></trkpt>
<trkpt lat="45.9064723179" lon="2.8557158355"><ele></ele><time>2013-8-16T17:27:52Z</time></trkpt>
<trkpt lat="45.9064719826" lon="2.8557162546"><ele></ele><time>2013-8-16T17:27:55Z</time></trkpt>
<trkpt lat="45.9064724017" lon="2.8557164222"><ele></ele><time>2013-8-16T17:27:58Z</time></trkpt>
<trkpt lat="45.9064727370" lon="2.8557165898"><ele></ele><time>2013-8-16T17:28:1Z</time></trkpt>
<trkpt lat="45.9064728208" lon="2.8557166737"><ele></ele><time>2013-8-16T17:28:4Z</time></trkpt>
<trkpt lat="45.9064730722" lon="2.8557169251"><ele></ele><time>2013-8-16T17:28:7Z</time></trkpt>
<trkpt lat="45.9064730722" lon="2.8557165898"><ele></ele><time>2013-8-16T17:28:10Z</time></trkpt>
<trkpt lat="45.9064730722" lon="2.8557157516"><ele></ele><time>2013-8-16T17:28:13Z</time></trkpt>
<trkpt lat="45.9064730722" lon="2.8557155002"><ele></ele><time>2013-8-16T17:28:16Z</time></trkpt>
<trkpt lat="45.9064733237" lon="2.8557152487"><ele></ele><time>2013-8-16T17:28:19Z</time></trkpt>
<trkpt lat="45.9064733237" lon="2.8557144944"><ele></ele><time>2013-8-16T17:28:22Z</time></trkpt>
<trkpt lat="45.9064735752" lon="2.8557139914"><ele></ele><time>2013-8-16T17:28:25Z</time></trkpt>
<trkpt lat="45.9064738266" lon="2.8557134047"><ele></ele><time>2013-8-16T17:28:28Z</time></trkpt>
<trkpt lat="45.9064734913" lon="2.8557113092"><ele></ele><time>2013-8-16T17:28:31Z</time></trkpt>
<trkpt lat="45.9064731561" lon="2.8557106387"><ele></ele><time>2013-8-16T17:28:34Z</time></trkpt>
<trkpt lat="45.9064727370" lon="2.8557103034"><ele></ele><time>2013-8-16T17:28:37Z</time></trkpt>
<trkpt lat="45.9064724855" lon="2.8557103034"><ele></ele><time>2013-8-16T17:28:40Z</time></trkpt>
<trkpt lat="45.9064612538" lon="2.8557623550"><ele></ele><time>2013-8-16T17:28:43Z</time></trkpt>
<trkpt lat="45.9064677916" lon="2.8557914402"><ele></ele><time>2013-8-16T17:28:46Z</time></trkpt>
<trkpt lat="45.9064729884" lon="2.8558253031"><ele></ele><time>2013-8-16T17:28:49Z</time></trkpt>
<trkpt lat="45.9064947814" lon="2.8559400514"><ele></ele><time>2013-8-16T17:28:52Z</time></trkpt>
<trkpt lat="45.9064903390" lon="2.8559768479"><ele></ele><time>2013-8-16T17:28:55Z</time></trkpt>
<trkpt lat="45.9064789396" lon="2.8560046759"><ele></ele><time>2013-8-16T17:28:58Z</time></trkpt>
<trkpt lat="45.9064640198" lon="2.8560247924"><ele></ele><time>2013-8-16T17:29:1Z</time></trkpt>
<trkpt lat="45.9064450767" lon="2.8560381196"><ele></ele><time>2013-8-16T17:29:4Z</time></trkpt>
<trkpt lat="45.9064259659" lon="2.8560465854"><ele></ele><time>2013-8-16T17:29:7Z</time></trkpt>
<trkpt lat="45.9064092860" lon="2.8560477588"><ele></ele><time>2013-8-16T17:29:10Z</time></trkpt>
<trkpt lat="45.9063900076" lon="2.8560444899"><ele></ele><time>2013-8-16T17:29:13Z</time></trkpt>
<trkpt lat="45.9063730761" lon="2.8560388740"><ele></ele><time>2013-8-16T17:29:16Z</time></trkpt>
<trkpt lat="45.9063578211" lon="2.8560375329"><ele></ele><time>2013-8-16T17:29:19Z</time></trkpt>
<trkpt lat="45.9063432366" lon="2.8560339287"><ele></ele><time>2013-8-16T17:29:22Z</time></trkpt>
<trkpt lat="45.9063288197" lon="2.8560289834"><ele></ele><time>2013-8-16T17:29:25Z</time></trkpt>
<trkpt lat="45.9063141514" lon="2.8560271394"><ele></ele><time>2013-8-16T17:29:28Z</time></trkpt>
<trkpt lat="45.9062546398" lon="2.8560190927"><ele></ele><time>2013-8-16T17:29:31Z</time></trkpt>
<trkpt lat="45.9062258061" lon="2.8560077772"><ele></ele><time>2013-8-16T17:29:34Z</time></trkpt>
<trkpt lat="45.9060103074" lon="2.8559952881"><ele></ele><time>2013-8-16T17:29:37Z</time></trkpt>
<trkpt lat="45.9058942180" lon="2.8559946176"><ele></ele><time>2013-8-16T17:29:40Z</time></trkpt>
<trkpt lat="45.9058339521" lon="2.8560001496"><ele></ele><time>2013-8-16T17:29:43Z</time></trkpt>
<trkpt lat="45.9058185294" lon="2.8560055979"><ele></ele><time>2013-8-16T17:29:46Z</time></trkpt>
<trkpt lat="45.9055001847" lon="2.8560076095"><ele></ele><time>2013-8-16T17:29:49Z</time></trkpt>
<trkpt lat="45.9052112605" lon="2.8560954519"><ele></ele><time>2013-8-16T17:29:52Z</time></trkpt>
<trkpt lat="45.9051229153" lon="2.8561570588"><ele></ele><time>2013-8-16T17:29:55Z</time></trkpt>
<trkpt lat="45.9047560394" lon="2.8563574702"><ele></ele><time>2013-8-16T17:29:58Z</time></trkpt>
<trkpt lat="45.9045960288" lon="2.8565041535"><ele></ele><time>2013-8-16T17:30:1Z</time></trkpt>
<trkpt lat="45.9045729786" lon="2.8565178160"><ele></ele><time>2013-8-16T17:30:4Z</time></trkpt>
<trkpt lat="45.9045483358" lon="2.8565327358"><ele></ele><time>2013-8-16T17:30:7Z</time></trkpt>
<trkpt lat="45.9045215137" lon="2.8565523494"><ele></ele><time>2013-8-16T17:30:10Z</time></trkpt>
<trkpt lat="45.9044930991" lon="2.8565744776"><ele></ele><time>2013-8-16T17:30:13Z</time></trkpt>
<trkpt lat="45.9044661932" lon="2.8565999586"><ele></ele><time>2013-8-16T17:30:16Z</time></trkpt>
<trkpt lat="45.9041802865" lon="2.8569311276"><ele></ele><time>2013-8-16T17:30:19Z</time></trkpt>
<trkpt lat="45.9036953095" lon="2.8573683277"><ele></ele><time>2013-8-16T17:30:22Z</time></trkpt>
<trkpt lat="45.9032559302" lon="2.8578042705"><ele></ele><time>2013-8-16T17:30:25Z</time></trkpt>
<trkpt lat="45.9031764697" lon="2.8579095472"><ele></ele><time>2013-8-16T17:30:28Z</time></trkpt>
<trkpt lat="45.9031378292" lon="2.8579211142"><ele></ele><time>2013-8-16T17:30:31Z</time></trkpt>
<trkpt lat="45.9030939918" lon="2.8579224553"><ele></ele><time>2013-8-16T17:30:34Z</time></trkpt>
<trkpt lat="45.9030438680" lon="2.8579137381"><ele></ele><time>2013-8-16T17:30:37Z</time></trkpt>
<trkpt lat="45.9029903077" lon="2.8578957170"><ele></ele><time>2013-8-16T17:30:40Z</time></trkpt>
<trkpt lat="45.9029338136" lon="2.8578685597"><ele></ele><time>2013-8-16T17:30:43Z</time></trkpt>
<trkpt lat="45.9027616493" lon="2.8577545658"><ele></ele><time>2013-8-16T17:30:46Z</time></trkpt>
<trkpt lat="45.9025837854" lon="2.8576500434"><ele></ele><time>2013-8-16T17:30:49Z</time></trkpt>
<trkpt lat="45.9024848789" lon="2.8575932980"><ele></ele><time>2013-8-16T17:30:52Z</time></trkpt>
<trkpt lat="45.9023911692" lon="2.8575621173"><ele></ele><time>2013-8-16T17:30:55Z</time></trkpt>
<trkpt lat="45.9021050949" lon="2.8574956488"><ele></ele><time>2013-8-16T17:30:58Z</time></trkpt>
<trkpt lat="45.9020876605" lon="2.8574821539"><ele></ele><time>2013-8-16T17:31:1Z</time></trkpt>
<trkpt lat="45.9020681307" lon="2.8574768733"><ele></ele><time>2013-8-16T17:31:4Z</time></trkpt>
<trkpt lat="45.9020475112" lon="2.8574785497"><ele></ele><time>2013-8-16T17:31:7Z</time></trkpt>
<trkpt lat="45.9020007402" lon="2.8575388994"><ele></ele><time>2013-8-16T17:31:10Z</time></trkpt>
<trkpt lat="45.9019295778" lon="2.8579717409"><ele></ele><time>2013-8-16T17:31:13Z</time></trkpt>
<trkpt lat="45.9019125625" lon="2.8583775926"><ele></ele><time>2013-8-16T17:31:16Z</time></trkpt>
<trkpt lat="45.9018885903" lon="2.8587836120"><ele></ele><time>2013-8-16T17:31:19Z</time></trkpt>
<trkpt lat="45.9018686414" lon="2.8590257652"><ele></ele><time>2013-8-16T17:31:22Z</time></trkpt>
<trkpt lat="45.9018325992" lon="2.8593902942"><ele></ele><time>2013-8-16T17:31:25Z</time></trkpt>
<trkpt lat="45.9016514663" lon="2.8601458389"><ele></ele><time>2013-8-16T17:31:28Z</time></trkpt>
<trkpt lat="45.9016077127" lon="2.8602805361"><ele></ele><time>2013-8-16T17:31:31Z</time></trkpt>
<trkpt lat="45.9014225565" lon="2.8608505893"><ele></ele><time>2013-8-16T17:31:34Z</time></trkpt>
<trkpt lat="45.9012734424" lon="2.8612784017"><ele></ele><time>2013-8-16T17:31:37Z</time></trkpt>
<trkpt lat="45.9012581874" lon="2.8617596906"><ele></ele><time>2013-8-16T17:31:40Z</time></trkpt>
<trkpt lat="45.9013157710" lon="2.8623113036"><ele></ele><time>2013-8-16T17:31:43Z</time></trkpt>
<trkpt lat="45.9013791382" lon="2.8629144654"><ele></ele><time>2013-8-16T17:31:46Z</time></trkpt>
<trkpt lat="45.9014022723" lon="2.8632370010"><ele></ele><time>2013-8-16T17:31:49Z</time></trkpt>
<trkpt lat="45.9014166053" lon="2.8634317126"><ele></ele><time>2013-8-16T17:31:52Z</time></trkpt>
<trkpt lat="45.9014417510" lon="2.8638303559"><ele></ele><time>2013-8-16T17:31:55Z</time></trkpt>
<trkpt lat="45.9014584310" lon="2.8640656359"><ele></ele><time>2013-8-16T17:31:58Z</time></trkpt>
<trkpt lat="45.9015982412" lon="2.8645422310"><ele></ele><time>2013-8-16T17:32:1Z</time></trkpt>
<trkpt lat="45.9016562440" lon="2.8646674566"><ele></ele><time>2013-8-16T17:32:4Z</time></trkpt>
<trkpt lat="45.9017983172" lon="2.8651659284"><ele></ele><time>2013-8-16T17:32:7Z</time></trkpt>
<trkpt lat="45.9017778654" lon="2.8652714565"><ele></ele><time>2013-8-16T17:32:10Z</time></trkpt>
<trkpt lat="45.9017410688" lon="2.8656340577"><ele></ele><time>2013-8-16T17:32:13Z</time></trkpt>
<trkpt lat="45.9017380513" lon="2.8656690940"><ele></ele><time>2013-8-16T17:32:16Z</time></trkpt>
<trkpt lat="45.9016248956" lon="2.8661343735"><ele></ele><time>2013-8-16T17:32:19Z</time></trkpt>
<trkpt lat="45.9015988279" lon="2.8662024345"><ele></ele><time>2013-8-16T17:32:22Z</time></trkpt>
<trkpt lat="45.9012270905" lon="2.8663026821"><ele></ele><time>2013-8-16T17:32:25Z</time></trkpt>
<trkpt lat="45.9011766315" lon="2.8663057834"><ele></ele><time>2013-8-16T17:32:28Z</time></trkpt>
<trkpt lat="45.9010712709" lon="2.8662854992"><ele></ele><time>2013-8-16T17:32:31Z</time></trkpt>
<trkpt lat="45.9010192193" lon="2.8662563302"><ele></ele><time>2013-8-16T17:32:34Z</time></trkpt>
<trkpt lat="45.9009705205" lon="2.8662171029"><ele></ele><time>2013-8-16T17:32:37Z</time></trkpt>
<trkpt lat="45.9009270184" lon="2.8661663085"><ele></ele><time>2013-8-16T17:32:40Z</time></trkpt>
<trkpt lat="45.9008896351" lon="2.8661050368"><ele></ele><time>2013-8-16T17:32:43Z</time></trkpt>
<trkpt lat="45.9008594602" lon="2.8660368081"><ele></ele><time>2013-8-16T17:32:46Z</time></trkpt>
<trkpt lat="45.9008394275" lon="2.8659640532"><ele></ele><time>2013-8-16T17:32:49Z</time></trkpt>
<trkpt lat="45.9008345660" lon="2.8658882808"><ele></ele><time>2013-8-16T17:32:52Z</time></trkpt>
<trkpt lat="45.9008411877" lon="2.8658135980"><ele></ele><time>2013-8-16T17:32:55Z</time></trkpt>
<trkpt lat="45.9008529224" lon="2.8657410108"><ele></ele><time>2013-8-16T17:32:58Z</time></trkpt>
<trkpt lat="45.9008724522" lon="2.8656758834"><ele></ele><time>2013-8-16T17:33:1Z</time></trkpt>
<trkpt lat="45.9008902218" lon="2.8656144440"><ele></ele><time>2013-8-16T17:33:4Z</time></trkpt>
<trkpt lat="45.9009015374" lon="2.8655542620"><ele></ele><time>2013-8-16T17:33:7Z</time></trkpt>
<trkpt lat="45.9009059798" lon="2.8654927388"><ele></ele><time>2013-8-16T17:33:10Z</time></trkpt>
<trkpt lat="45.9009046387" lon="2.8654327244"><ele></ele><time>2013-8-16T17:33:13Z</time></trkpt>
<trkpt lat="45.9008975979" lon="2.8653759789"><ele></ele><time>2013-8-16T17:33:16Z</time></trkpt>
<trkpt lat="45.9008901380" lon="2.8653245140"><ele></ele><time>2013-8-16T17:33:19Z</time></trkpt>
<trkpt lat="45.9008819237" lon="2.8652733844"><ele></ele><time>2013-8-16T17:33:22Z</time></trkpt>
<trkpt lat="45.9008711111" lon="2.8652219195"><ele></ele><time>2013-8-16T17:33:25Z</time></trkpt>
<trkpt lat="45.9006212465" lon="2.8649495076"><ele></ele><time>2013-8-16T17:33:28Z</time></trkpt>
<trkpt lat="45.9005801752" lon="2.8649485018"><ele></ele><time>2013-8-16T17:33:31Z</time></trkpt>
<trkpt lat="45.9005386848" lon="2.8649479151"><ele></ele><time>2013-8-16T17:33:34Z</time></trkpt>
<trkpt lat="45.9004978649" lon="2.8649531119"><ele></ele><time>2013-8-16T17:33:37Z</time></trkpt>
<trkpt lat="45.9001421370" lon="2.8649020661"><ele></ele><time>2013-8-16T17:33:40Z</time></trkpt>
<trkpt lat="45.8997634426" lon="2.8648016509"><ele></ele><time>2013-8-16T17:33:43Z</time></trkpt>
<trkpt lat="45.8997419011" lon="2.8648006450"><ele></ele><time>2013-8-16T17:33:46Z</time></trkpt>
<trkpt lat="45.8997201920" lon="2.8648048360"><ele></ele><time>2013-8-16T17:33:49Z</time></trkpt>
<trkpt lat="45.8996988181" lon="2.8648039140"><ele></ele><time>2013-8-16T17:33:52Z</time></trkpt>
<trkpt lat="45.8996766061" lon="2.8647991363"><ele></ele><time>2013-8-16T17:33:55Z</time></trkpt>
<trkpt lat="45.8996552322" lon="2.8647973761"><ele></ele><time>2013-8-16T17:33:58Z</time></trkpt>
<trkpt lat="45.8996312600" lon="2.8647950292"><ele></ele><time>2013-8-16T17:34:1Z</time></trkpt>
<trkpt lat="45.8993114904" lon="2.8647348471"><ele></ele><time>2013-8-16T17:34:4Z</time></trkpt>
<trkpt lat="45.8990104962" lon="2.8646463342"><ele></ele><time>2013-8-16T17:34:7Z</time></trkpt>
<trkpt lat="45.8987447899" lon="2.8645926900"><ele></ele><time>2013-8-16T17:34:10Z</time></trkpt>
<trkpt lat="45.8984178957" lon="2.8645234555"><ele></ele><time>2013-8-16T17:34:13Z</time></trkpt>
<trkpt lat="45.8981399518" lon="2.8645078652"><ele></ele><time>2013-8-16T17:34:16Z</time></trkpt>
<trkpt lat="45.8978685457" lon="2.8645144869"><ele></ele><time>2013-8-16T17:34:19Z</time></trkpt>
<trkpt lat="45.8978143986" lon="2.8645449132"><ele></ele><time>2013-8-16T17:34:22Z</time></trkpt>
<trkpt lat="45.8978150692" lon="2.8645424824"><ele></ele><time>2013-8-16T17:34:25Z</time></trkpt>
<trkpt lat="45.8978154883" lon="2.8645425662"><ele></ele><time>2013-8-16T17:34:28Z</time></trkpt>
<trkpt lat="45.8978151530" lon="2.8645431530"><ele></ele><time>2013-8-16T17:34:31Z</time></trkpt>
<trkpt lat="45.8978143148" lon="2.8645434044"><ele></ele><time>2013-8-16T17:34:34Z</time></trkpt>
<trkpt lat="45.8978138957" lon="2.8645433206"><ele></ele><time>2013-8-16T17:34:37Z</time></trkpt>
<trkpt lat="45.8978131413" lon="2.8645434882"><ele></ele><time>2013-8-16T17:34:40Z</time></trkpt>
<trkpt lat="45.8977981377" lon="2.8645497747"><ele></ele><time>2013-8-16T17:34:43Z</time></trkpt>
<trkpt lat="45.8977972157" lon="2.8645540494"><ele></ele><time>2013-8-16T17:34:46Z</time></trkpt>
<trkpt lat="45.8977972995" lon="2.8645537980"><ele></ele><time>2013-8-16T17:34:49Z</time></trkpt>
<trkpt lat="45.8977964614" lon="2.8645555582"><ele></ele><time>2013-8-16T17:34:52Z</time></trkpt>
<trkpt lat="45.8977962937" lon="2.8645563964"><ele></ele><time>2013-8-16T17:34:55Z</time></trkpt>
<trkpt lat="45.8977961261" lon="2.8645574860"><ele></ele><time>2013-8-16T17:34:58Z</time></trkpt>
<trkpt lat="45.8977956232" lon="2.8645584080"><ele></ele><time>2013-8-16T17:35:1Z</time></trkpt>
<trkpt lat="45.8977956232" lon="2.8645590786"><ele></ele><time>2013-8-16T17:35:4Z</time></trkpt>
<trkpt lat="45.8977956232" lon="2.8645592462"><ele></ele><time>2013-8-16T17:35:7Z</time></trkpt>
<trkpt lat="45.8977955393" lon="2.8645594977"><ele></ele><time>2013-8-16T17:35:10Z</time></trkpt>
<trkpt lat="45.8977952879" lon="2.8645595815"><ele></ele><time>2013-8-16T17:35:13Z</time></trkpt>
<trkpt lat="45.8977949526" lon="2.8645595815"><ele></ele><time>2013-8-16T17:35:16Z</time></trkpt>
<trkpt lat="45.8977946173" lon="2.8645594977"><ele></ele><time>2013-8-16T17:35:19Z</time></trkpt>
<trkpt lat="45.8977951203" lon="2.8645600844"><ele></ele><time>2013-8-16T17:35:22Z</time></trkpt>
<trkpt lat="45.8977952879" lon="2.8645605873"><ele></ele><time>2013-8-16T17:35:25Z</time></trkpt>
<trkpt lat="45.8977955393" lon="2.8645606712"><ele></ele><time>2013-8-16T17:35:28Z</time></trkpt>
<trkpt lat="45.8977983054" lon="2.8645599168"><ele></ele><time>2013-8-16T17:35:31Z</time></trkpt>
<trkpt lat="45.8977979701" lon="2.8645568993"><ele></ele><time>2013-8-16T17:35:34Z</time></trkpt>
<trkpt lat="45.8977979701" lon="2.8645567317"><ele></ele><time>2013-8-16T17:35:37Z</time></trkpt>
<trkpt lat="45.8977977186" lon="2.8645569831"><ele></ele><time>2013-8-16T17:35:40Z</time></trkpt>
<trkpt lat="45.8977977186" lon="2.8645579889"><ele></ele><time>2013-8-16T17:35:43Z</time></trkpt>
<trkpt lat="45.8977978863" lon="2.8645587433"><ele></ele><time>2013-8-16T17:35:46Z</time></trkpt>
<trkpt lat="45.8977952041" lon="2.8645589948"><ele></ele><time>2013-8-16T17:35:49Z</time></trkpt>
<trkpt lat="45.8977952879" lon="2.8645564802"><ele></ele><time>2013-8-16T17:35:52Z</time></trkpt>
<trkpt lat="45.8977952041" lon="2.8645559773"><ele></ele><time>2013-8-16T17:35:55Z</time></trkpt>
<trkpt lat="45.8977949526" lon="2.8645554744"><ele></ele><time>2013-8-16T17:35:58Z</time></trkpt>
<trkpt lat="45.8977948688" lon="2.8645547200"><ele></ele><time>2013-8-16T17:36:1Z</time></trkpt>
<trkpt lat="45.8977947850" lon="2.8645544685"><ele></ele><time>2013-8-16T17:36:4Z</time></trkpt>
<trkpt lat="45.8977948688" lon="2.8645543847"><ele></ele><time>2013-8-16T17:36:7Z</time></trkpt>
<trkpt lat="45.8977947012" lon="2.8645541333"><ele></ele><time>2013-8-16T17:36:10Z</time></trkpt>
<trkpt lat="45.8977969643" lon="2.8645503614"><ele></ele><time>2013-8-16T17:36:13Z</time></trkpt>
<trkpt lat="45.8977968805" lon="2.8645492718"><ele></ele><time>2013-8-16T17:36:16Z</time></trkpt>
<trkpt lat="45.8977966290" lon="2.8645486012"><ele></ele><time>2013-8-16T17:36:19Z</time></trkpt>
<trkpt lat="45.8977965452" lon="2.8645486012"><ele></ele><time>2013-8-16T17:36:22Z</time></trkpt>
<trkpt lat="45.8977953717" lon="2.8645456675"><ele></ele><time>2013-8-16T17:36:25Z</time></trkpt>
<trkpt lat="45.8977953717" lon="2.8645455837"><ele></ele><time>2013-8-16T17:36:28Z</time></trkpt>
<trkpt lat="45.8977957070" lon="2.8645454999"><ele></ele><time>2013-8-16T17:36:31Z</time></trkpt>
<trkpt lat="45.8977958746" lon="2.8645455837"><ele></ele><time>2013-8-16T17:36:34Z</time></trkpt>
<trkpt lat="45.8977961261" lon="2.8645455837"><ele></ele><time>2013-8-16T17:36:37Z</time></trkpt>
<trkpt lat="45.8977961261" lon="2.8645454999"><ele></ele><time>2013-8-16T17:36:40Z</time></trkpt>
<trkpt lat="45.8977962099" lon="2.8645453323"><ele></ele><time>2013-8-16T17:36:43Z</time></trkpt>
<trkpt lat="45.8977962937" lon="2.8645452484"><ele></ele><time>2013-8-16T17:36:46Z</time></trkpt>
<trkpt lat="45.8977968805" lon="2.8645447455"><ele></ele><time>2013-8-16T17:36:49Z</time></trkpt>
<trkpt lat="45.8977971319" lon="2.8645446617"><ele></ele><time>2013-8-16T17:36:52Z</time></trkpt>
<trkpt lat="45.8977971319" lon="2.8645444941"><ele></ele><time>2013-8-16T17:36:55Z</time></trkpt>
<trkpt lat="45.8977984730" lon="2.8645439073"><ele></ele><time>2013-8-16T17:36:58Z</time></trkpt>
<trkpt lat="45.8977983054" lon="2.8645439073"><ele></ele><time>2013-8-16T17:37:1Z</time></trkpt>
<trkpt lat="45.8977982216" lon="2.8645438235"><ele></ele><time>2013-8-16T17:37:4Z</time></trkpt>
<trkpt lat="45.8977981377" lon="2.8645439912"><ele></ele><time>2013-8-16T17:37:7Z</time></trkpt>
<trkpt lat="45.8977983054" lon="2.8645440750"><ele></ele><time>2013-8-16T17:37:10Z</time></trkpt>
<trkpt lat="45.8977852296" lon="2.8645330947"><ele></ele><time>2013-8-16T17:37:13Z</time></trkpt>
<trkpt lat="45.8977739140" lon="2.8645170014"><ele></ele><time>2013-8-16T17:37:16Z</time></trkpt>
<trkpt lat="45.8975163382" lon="2.8644057736"><ele></ele><time>2013-8-16T17:37:19Z</time></trkpt>
<trkpt lat="45.8973046951" lon="2.8643202782"><ele></ele><time>2013-8-16T17:37:22Z</time></trkpt>
<trkpt lat="45.8970217220" lon="2.8641737625"><ele></ele><time>2013-8-16T17:37:25Z</time></trkpt>
<trkpt lat="45.8965269383" lon="2.8639304359"><ele></ele><time>2013-8-16T17:37:28Z</time></trkpt>
<trkpt lat="45.8961018920" lon="2.8637532424"><ele></ele><time>2013-8-16T17:37:31Z</time></trkpt>
<trkpt lat="45.8956643566" lon="2.8635458741"><ele></ele><time>2013-8-16T17:37:34Z</time></trkpt>
<trkpt lat="45.8952827286" lon="2.8632904775"><ele></ele><time>2013-8-16T17:37:37Z</time></trkpt>
<trkpt lat="45.8949095663" lon="2.8632252663"><ele></ele><time>2013-8-16T17:37:40Z</time></trkpt>
<trkpt lat="45.8946065605" lon="2.8632135317"><ele></ele><time>2013-8-16T17:37:43Z</time></trkpt>
<trkpt lat="45.8943856135" lon="2.8631054889"><ele></ele><time>2013-8-16T17:37:46Z</time></trkpt>
<trkpt lat="45.8942121081" lon="2.8628342506"><ele></ele><time>2013-8-16T17:37:49Z</time></trkpt>
<trkpt lat="45.8940499183" lon="2.8625846375"><ele></ele><time>2013-8-16T17:37:52Z</time></trkpt>
<trkpt lat="45.8938811067" lon="2.8624320030"><ele></ele><time>2013-8-16T17:37:55Z</time></trkpt>
<trkpt lat="45.8938080166" lon="2.8623683844"><ele></ele><time>2013-8-16T17:37:58Z</time></trkpt>
<trkpt lat="45.8937896602" lon="2.8623600863"><ele></ele><time>2013-8-16T17:38:1Z</time></trkpt>
<trkpt lat="45.8937693760" lon="2.8623501118"><ele></ele><time>2013-8-16T17:38:4Z</time></trkpt>
<trkpt lat="45.8937535342" lon="2.8623408079"><ele></ele><time>2013-8-16T17:38:7Z</time></trkpt>
<trkpt lat="45.8937394526" lon="2.8623327613"><ele></ele><time>2013-8-16T17:38:10Z</time></trkpt>
<trkpt lat="45.8937289752" lon="2.8623273969"><ele></ele><time>2013-8-16T17:38:13Z</time></trkpt>
<trkpt lat="45.8935570624" lon="2.8622863255"><ele></ele><time>2013-8-16T17:38:16Z</time></trkpt>
<trkpt lat="45.8932888415" lon="2.8621566575"><ele></ele><time>2013-8-16T17:38:19Z</time></trkpt>
<trkpt lat="45.8930375520" lon="2.8619836550"><ele></ele><time>2013-8-16T17:38:22Z</time></trkpt>
<trkpt lat="45.8929409087" lon="2.8619091399"><ele></ele><time>2013-8-16T17:38:25Z</time></trkpt>
<trkpt lat="45.8929332811" lon="2.8618946392"><ele></ele><time>2013-8-16T17:38:28Z</time></trkpt>
<trkpt lat="45.8929246478" lon="2.8618808929"><ele></ele><time>2013-8-16T17:38:31Z</time></trkpt>
<trkpt lat="45.8929126617" lon="2.8618712537"><ele></ele><time>2013-8-16T17:38:34Z</time></trkpt>
<trkpt lat="45.8928964846" lon="2.8618673980"><ele></ele><time>2013-8-16T17:38:37Z</time></trkpt>
<trkpt lat="45.8928821515" lon="2.8618765343"><ele></ele><time>2013-8-16T17:38:40Z</time></trkpt>
<trkpt lat="45.8928692434" lon="2.8618940525"><ele></ele><time>2013-8-16T17:38:43Z</time></trkpt>
<trkpt lat="45.8928547427" lon="2.8619124088"><ele></ele><time>2013-8-16T17:38:46Z</time></trkpt>
<trkpt lat="45.8928388171" lon="2.8619278315"><ele></ele><time>2013-8-16T17:38:49Z</time></trkpt>
<trkpt lat="45.8928207960" lon="2.8619376384"><ele></ele><time>2013-8-16T17:38:52Z</time></trkpt>
<trkpt lat="45.8926585224" lon="2.8620847408"><ele></ele><time>2013-8-16T17:38:55Z</time></trkpt>
<trkpt lat="45.8925959934" lon="2.8620698210"><ele></ele><time>2013-8-16T17:38:58Z</time></trkpt>
<trkpt lat="45.8925860189" lon="2.8620542306"><ele></ele><time>2013-8-16T17:39:1Z</time></trkpt>
<trkpt lat="45.8925794810" lon="2.8620312642"><ele></ele><time>2013-8-16T17:39:4Z</time></trkpt>
<trkpt lat="45.8925760444" lon="2.8620081302"><ele></ele><time>2013-8-16T17:39:7Z</time></trkpt>
<trkpt lat="45.8925771341" lon="2.8619810566"><ele></ele><time>2013-8-16T17:39:10Z</time></trkpt>
<trkpt lat="45.8925762959" lon="2.8619549889"><ele></ele><time>2013-8-16T17:39:13Z</time></trkpt>
<trkpt lat="45.8925696742" lon="2.8619317710"><ele></ele><time>2013-8-16T17:39:16Z</time></trkpt>
<trkpt lat="45.8925632201" lon="2.8619047813"><ele></ele><time>2013-8-16T17:39:19Z</time></trkpt>
<trkpt lat="45.8925595321" lon="2.8618797194"><ele></ele><time>2013-8-16T17:39:22Z</time></trkpt>
<trkpt lat="45.8925528266" lon="2.8618564177"><ele></ele><time>2013-8-16T17:39:25Z</time></trkpt>
<trkpt lat="45.8925451990" lon="2.8618329484"><ele></ele><time>2013-8-16T17:39:28Z</time></trkpt>
<trkpt lat="45.8925379068" lon="2.8618103173"><ele></ele><time>2013-8-16T17:39:31Z</time></trkpt>
<trkpt lat="45.8925349731" lon="2.8617858421"><ele></ele><time>2013-8-16T17:39:34Z</time></trkpt>
<trkpt lat="45.8925349731" lon="2.8617589362"><ele></ele><time>2013-8-16T17:39:37Z</time></trkpt>
<trkpt lat="45.8925315365" lon="2.8617331199"><ele></ele><time>2013-8-16T17:39:40Z</time></trkpt>
<trkpt lat="45.8925256692" lon="2.8617064655"><ele></ele><time>2013-8-16T17:39:43Z</time></trkpt>
<trkpt lat="45.8925210591" lon="2.8616800625"><ele></ele><time>2013-8-16T17:39:46Z</time></trkpt>
<trkpt lat="45.8925169520" lon="2.8616565932"><ele></ele><time>2013-8-16T17:39:49Z</time></trkpt>
<trkpt lat="45.8925109170" lon="2.8616361413"><ele></ele><time>2013-8-16T17:39:52Z</time></trkpt>
<trkpt lat="45.8924976736" lon="2.8616270889"><ele></ele><time>2013-8-16T17:39:55Z</time></trkpt>
<trkpt lat="45.8925013617" lon="2.8616323695"><ele></ele><time>2013-8-16T17:39:58Z</time></trkpt>
<trkpt lat="45.8925016131" lon="2.8616322018"><ele></ele><time>2013-8-16T17:40:1Z</time></trkpt>
<trkpt lat="45.8925019484" lon="2.8616321180"><ele></ele><time>2013-8-16T17:40:4Z</time></trkpt>
<trkpt lat="45.8925043792" lon="2.8616312798"><ele></ele><time>2013-8-16T17:40:7Z</time></trkpt>
<trkpt lat="45.8925047144" lon="2.8616312798"><ele></ele><time>2013-8-16T17:40:10Z</time></trkpt>
<trkpt lat="45.8925050497" lon="2.8616316151"><ele></ele><time>2013-8-16T17:40:13Z</time></trkpt>
<trkpt lat="45.8925053850" lon="2.8616324533"><ele></ele><time>2013-8-16T17:40:16Z</time></trkpt>
<trkpt lat="45.8925050497" lon="2.8616325371"><ele></ele><time>2013-8-16T17:40:19Z</time></trkpt>
<trkpt lat="45.8925051335" lon="2.8616327886"><ele></ele><time>2013-8-16T17:40:22Z</time></trkpt>
<trkpt lat="45.8925040439" lon="2.8616316151"><ele></ele><time>2013-8-16T17:40:25Z</time></trkpt>
<trkpt lat="45.8925042953" lon="2.8616311122"><ele></ele><time>2013-8-16T17:40:28Z</time></trkpt>
<trkpt lat="45.8925042115" lon="2.8616306093"><ele></ele><time>2013-8-16T17:40:31Z</time></trkpt>
<trkpt lat="45.8925040439" lon="2.8616304416"><ele></ele><time>2013-8-16T17:40:34Z</time></trkpt>
<trkpt lat="45.8925037086" lon="2.8616301063"><ele></ele><time>2013-8-16T17:40:37Z</time></trkpt>
<trkpt lat="45.8925035410" lon="2.8616297711"><ele></ele><time>2013-8-16T17:40:40Z</time></trkpt>
<trkpt lat="45.8925035410" lon="2.8616296872"><ele></ele><time>2013-8-16T17:40:43Z</time></trkpt>
<trkpt lat="45.8925031219" lon="2.8616296034"><ele></ele><time>2013-8-16T17:40:46Z</time></trkpt>
<trkpt lat="45.8925027866" lon="2.8616293520"><ele></ele><time>2013-8-16T17:40:49Z</time></trkpt>
<trkpt lat="45.8925020322" lon="2.8616296034"><ele></ele><time>2013-8-16T17:40:52Z</time></trkpt>
<trkpt lat="45.8925013617" lon="2.8616294358"><ele></ele><time>2013-8-16T17:40:55Z</time></trkpt>
<trkpt lat="45.8925016131" lon="2.8616285976"><ele></ele><time>2013-8-16T17:40:58Z</time></trkpt>
<trkpt lat="45.8925020322" lon="2.8616282623"><ele></ele><time>2013-8-16T17:41:1Z</time></trkpt>
<trkpt lat="45.8925022837" lon="2.8616277594"><ele></ele><time>2013-8-16T17:41:4Z</time></trkpt>
<trkpt lat="45.8925023675" lon="2.8616276756"><ele></ele><time>2013-8-16T17:41:7Z</time></trkpt>
<trkpt lat="45.8925026190" lon="2.8616278432"><ele></ele><time>2013-8-16T17:41:10Z</time></trkpt>
<trkpt lat="45.8925027866" lon="2.8616280109"><ele></ele><time>2013-8-16T17:41:13Z</time></trkpt>
<trkpt lat="45.8925031219" lon="2.8616277594"><ele></ele><time>2013-8-16T17:41:16Z</time></trkpt>
<trkpt lat="45.8925032057" lon="2.8616275080"><ele></ele><time>2013-8-16T17:41:19Z</time></trkpt>
<trkpt lat="45.8925032057" lon="2.8616272565"><ele></ele><time>2013-8-16T17:41:22Z</time></trkpt>
<trkpt lat="45.8925036248" lon="2.8616275918"><ele></ele><time>2013-8-16T17:41:25Z</time></trkpt>
<trkpt lat="45.8925038762" lon="2.8616278432"><ele></ele><time>2013-8-16T17:41:28Z</time></trkpt>
<trkpt lat="45.8925038762" lon="2.8616279270"><ele></ele><time>2013-8-16T17:41:31Z</time></trkpt>
<trkpt lat="45.8925039601" lon="2.8616280109"><ele></ele><time>2013-8-16T17:41:34Z</time></trkpt>
<trkpt lat="45.8925164491" lon="2.8616465349"><ele></ele><time>2013-8-16T17:41:37Z</time></trkpt>
<trkpt lat="45.8925260045" lon="2.8616556711"><ele></ele><time>2013-8-16T17:41:40Z</time></trkpt>
<trkpt lat="45.8925303631" lon="2.8616717644"><ele></ele><time>2013-8-16T17:41:43Z</time></trkpt>
<trkpt lat="45.8925300278" lon="2.8616947308"><ele></ele><time>2013-8-16T17:41:46Z</time></trkpt>
<trkpt lat="45.8925177064" lon="2.8617192060"><ele></ele><time>2013-8-16T17:41:49Z</time></trkpt>
<trkpt lat="45.8924918901" lon="2.8617343772"><ele></ele><time>2013-8-16T17:41:52Z</time></trkpt>
<trkpt lat="45.8924612962" lon="2.8617382329"><ele></ele><time>2013-8-16T17:41:55Z</time></trkpt>
<trkpt lat="45.8924305346" lon="2.8617405798"><ele></ele><time>2013-8-16T17:41:58Z</time></trkpt>
<trkpt lat="45.8923949115" lon="2.8617444355"><ele></ele><time>2013-8-16T17:42:1Z</time></trkpt>
<trkpt lat="45.8923530858" lon="2.8617581818"><ele></ele><time>2013-8-16T17:42:4Z</time></trkpt>
<trkpt lat="45.8923072368" lon="2.8617801424"><ele></ele><time>2013-8-16T17:42:7Z</time></trkpt>
<trkpt lat="45.8922599629" lon="2.8618009295"><ele></ele><time>2013-8-16T17:42:10Z</time></trkpt>
<trkpt lat="45.8922144491" lon="2.8618171066"><ele></ele><time>2013-8-16T17:42:13Z</time></trkpt>
<trkpt lat="45.8921696898" lon="2.8618370555"><ele></ele><time>2013-8-16T17:42:16Z</time></trkpt>
<trkpt lat="45.8919709548" lon="2.8619706631"><ele></ele><time>2013-8-16T17:42:19Z</time></trkpt>
<trkpt lat="45.8919355832" lon="2.8620316833"><ele></ele><time>2013-8-16T17:42:22Z</time></trkpt>
<trkpt lat="45.8918934222" lon="2.8624238726"><ele></ele><time>2013-8-16T17:42:25Z</time></trkpt>
<trkpt lat="45.8918826096" lon="2.8628943488"><ele></ele><time>2013-8-16T17:42:28Z</time></trkpt>
<trkpt lat="45.8918865491" lon="2.8633362427"><ele></ele><time>2013-8-16T17:42:31Z</time></trkpt>
<trkpt lat="45.8919263631" lon="2.8634612169"><ele></ele><time>2013-8-16T17:42:34Z</time></trkpt>
<trkpt lat="45.8919398580" lon="2.8634858597"><ele></ele><time>2013-8-16T17:42:37Z</time></trkpt>
<trkpt lat="45.8919520956" lon="2.8635132685"><ele></ele><time>2013-8-16T17:42:40Z</time></trkpt>
<trkpt lat="45.8919870481" lon="2.8635794017"><ele></ele><time>2013-8-16T17:42:43Z</time></trkpt>
<trkpt lat="45.8919997048" lon="2.8635913879"><ele></ele><time>2013-8-16T17:42:46Z</time></trkpt>
<trkpt lat="45.8920597192" lon="2.8636314534"><ele></ele><time>2013-8-16T17:42:49Z</time></trkpt>
<trkpt lat="45.8920770697" lon="2.8636229876"><ele></ele><time>2013-8-16T17:42:52Z</time></trkpt>
<trkpt lat="45.8920937497" lon="2.8636053018"><ele></ele><time>2013-8-16T17:42:55Z</time></trkpt>
<trkpt lat="45.8921080828" lon="2.8635839280"><ele></ele><time>2013-8-16T17:42:58Z</time></trkpt>
<trkpt lat="45.8921240922" lon="2.8635607101"><ele></ele><time>2013-8-16T17:43:1Z</time></trkpt>
<trkpt lat="45.8923050575" lon="2.8631137032"><ele></ele><time>2013-8-16T17:43:4Z</time></trkpt>
<trkpt lat="45.8923465479" lon="2.8629947640"><ele></ele><time>2013-8-16T17:43:7Z</time></trkpt>
<trkpt lat="45.8925636392" lon="2.8622641973"><ele></ele><time>2013-8-16T17:43:10Z</time></trkpt>
<trkpt lat="45.8925578557" lon="2.8618511371"><ele></ele><time>2013-8-16T17:43:13Z</time></trkpt>
<trkpt lat="45.8924668282" lon="2.8614285216"><ele></ele><time>2013-8-16T17:43:16Z</time></trkpt>
<trkpt lat="45.8925571851" lon="2.8611551877"><ele></ele><time>2013-8-16T17:43:19Z</time></trkpt>
<trkpt lat="45.8925694227" lon="2.8610919043"><ele></ele><time>2013-8-16T17:43:22Z</time></trkpt>
<trkpt lat="45.8925767150" lon="2.8610196523"><ele></ele><time>2013-8-16T17:43:25Z</time></trkpt>
<trkpt lat="45.8925850969" lon="2.8605820332"><ele></ele><time>2013-8-16T17:43:28Z</time></trkpt>
<trkpt lat="45.8925879467" lon="2.8603920992"><ele></ele><time>2013-8-16T17:43:31Z</time></trkpt>
<trkpt lat="45.8925704286" lon="2.8598301765"><ele></ele><time>2013-8-16T17:43:34Z</time></trkpt>
<trkpt lat="45.8925617952" lon="2.8597704973"><ele></ele><time>2013-8-16T17:43:37Z</time></trkpt>
<trkpt lat="45.8925510664" lon="2.8597137518"><ele></ele><time>2013-8-16T17:43:40Z</time></trkpt>
<trkpt lat="45.8925357275" lon="2.8596574254"><ele></ele><time>2013-8-16T17:43:43Z</time></trkpt>
<trkpt lat="45.8925187960" lon="2.8596017696"><ele></ele><time>2013-8-16T17:43:46Z</time></trkpt>
<trkpt lat="45.8923320472" lon="2.8589014616"><ele></ele><time>2013-8-16T17:43:49Z</time></trkpt>
<trkpt lat="45.8921605535" lon="2.8584482521"><ele></ele><time>2013-8-16T17:43:52Z</time></trkpt>
<trkpt lat="45.8918673545" lon="2.8579153307"><ele></ele><time>2013-8-16T17:43:55Z</time></trkpt>
<trkpt lat="45.8916407079" lon="2.8574991692"><ele></ele><time>2013-8-16T17:43:58Z</time></trkpt>
<trkpt lat="45.8913649432" lon="2.8568052314"><ele></ele><time>2013-8-16T17:44:1Z</time></trkpt>
<trkpt lat="45.8912044298" lon="2.8561609145"><ele></ele><time>2013-8-16T17:44:4Z</time></trkpt>
<trkpt lat="45.8910139091" lon="2.8553844150"><ele></ele><time>2013-8-16T17:44:7Z</time></trkpt>
<trkpt lat="45.8909865841" lon="2.8552048746"><ele></ele><time>2013-8-16T17:44:10Z</time></trkpt>
<trkpt lat="45.8909776993" lon="2.8551415075"><ele></ele><time>2013-8-16T17:44:13Z</time></trkpt>
<trkpt lat="45.8909643721" lon="2.8550796490"><ele></ele><time>2013-8-16T17:44:16Z</time></trkpt>
<trkpt lat="45.8908755239" lon="2.8547848575"><ele></ele><time>2013-8-16T17:44:19Z</time></trkpt>
<trkpt lat="45.8908501267" lon="2.8547317162"><ele></ele><time>2013-8-16T17:44:22Z</time></trkpt>
<trkpt lat="45.8908229694" lon="2.8546798322"><ele></ele><time>2013-8-16T17:44:25Z</time></trkpt>
<trkpt lat="45.8904555906" lon="2.8541272972"><ele></ele><time>2013-8-16T17:44:28Z</time></trkpt>
<trkpt lat="45.8900292031" lon="2.8533635382"><ele></ele><time>2013-8-16T17:44:31Z</time></trkpt>
<trkpt lat="45.8899121080" lon="2.8531492129"><ele></ele><time>2013-8-16T17:44:34Z</time></trkpt>
<trkpt lat="45.8894107863" lon="2.8521360084"><ele></ele><time>2013-8-16T17:44:37Z</time></trkpt>
<trkpt lat="45.8891451638" lon="2.8514961340"><ele></ele><time>2013-8-16T17:44:40Z</time></trkpt>
<trkpt lat="45.8890326787" lon="2.8512401506"><ele></ele><time>2013-8-16T17:44:43Z</time></trkpt>
<trkpt lat="45.8889236301" lon="2.8509815689"><ele></ele><time>2013-8-16T17:44:46Z</time></trkpt>
<trkpt lat="45.8889063634" lon="2.8509285953"><ele></ele><time>2013-8-16T17:44:49Z</time></trkpt>
<trkpt lat="45.8886114880" lon="2.8501447197"><ele></ele><time>2013-8-16T17:44:52Z</time></trkpt>
<trkpt lat="45.8883864339" lon="2.8495058510"><ele></ele><time>2013-8-16T17:44:55Z</time></trkpt>
<trkpt lat="45.8882454503" lon="2.8491674736"><ele></ele><time>2013-8-16T17:44:58Z</time></trkpt>
<trkpt lat="45.8882186282" lon="2.8491222952"><ele></ele><time>2013-8-16T17:45:1Z</time></trkpt>
<trkpt lat="45.8881939016" lon="2.8490738478"><ele></ele><time>2013-8-16T17:45:4Z</time></trkpt>
<trkpt lat="45.8878079988" lon="2.8483285289"><ele></ele><time>2013-8-16T17:45:7Z</time></trkpt>
<trkpt lat="45.8873273805" lon="2.8474504407"><ele></ele><time>2013-8-16T17:45:10Z</time></trkpt>
<trkpt lat="45.8872966189" lon="2.8474022448"><ele></ele><time>2013-8-16T17:45:13Z</time></trkpt>
<trkpt lat="45.8872742392" lon="2.8473563958"><ele></ele><time>2013-8-16T17:45:16Z</time></trkpt>
<trkpt lat="45.8872289769" lon="2.8472745884"><ele></ele><time>2013-8-16T17:45:19Z</time></trkpt>
<trkpt lat="45.8872225229" lon="2.8472699784"><ele></ele><time>2013-8-16T17:45:22Z</time></trkpt>
<trkpt lat="45.8872222714" lon="2.8472702298"><ele></ele><time>2013-8-16T17:45:25Z</time></trkpt>
<trkpt lat="45.8872218523" lon="2.8472709842"><ele></ele><time>2013-8-16T17:45:28Z</time></trkpt>
<trkpt lat="45.8872216009" lon="2.8472703975"><ele></ele><time>2013-8-16T17:45:31Z</time></trkpt>
<trkpt lat="45.8872216009" lon="2.8472698946"><ele></ele><time>2013-8-16T17:45:34Z</time></trkpt>
<trkpt lat="45.8872216009" lon="2.8472705651"><ele></ele><time>2013-8-16T17:45:37Z</time></trkpt>
<trkpt lat="45.8872211818" lon="2.8472707327"><ele></ele><time>2013-8-16T17:45:40Z</time></trkpt>
<trkpt lat="45.8872212656" lon="2.8472714033"><ele></ele><time>2013-8-16T17:45:43Z</time></trkpt>
<trkpt lat="45.8872214332" lon="2.8472722415"><ele></ele><time>2013-8-16T17:45:46Z</time></trkpt>
<trkpt lat="45.8872216847" lon="2.8472734150"><ele></ele><time>2013-8-16T17:45:49Z</time></trkpt>
<trkpt lat="45.8872229420" lon="2.8472760972"><ele></ele><time>2013-8-16T17:45:52Z</time></trkpt>
<trkpt lat="45.8872232772" lon="2.8472771030"><ele></ele><time>2013-8-16T17:45:55Z</time></trkpt>
<trkpt lat="45.8872236125" lon="2.8472774383"><ele></ele><time>2013-8-16T17:45:58Z</time></trkpt>
<trkpt lat="45.8872238640" lon="2.8472776059"><ele></ele><time>2013-8-16T17:46:1Z</time></trkpt>
<trkpt lat="45.8872241993" lon="2.8472779412"><ele></ele><time>2013-8-16T17:46:4Z</time></trkpt>
<trkpt lat="45.8872242831" lon="2.8472781926"><ele></ele><time>2013-8-16T17:46:7Z</time></trkpt>
<trkpt lat="45.8872242831" lon="2.8472785279"><ele></ele><time>2013-8-16T17:46:10Z</time></trkpt>
<trkpt lat="45.8872241993" lon="2.8472792823"><ele></ele><time>2013-8-16T17:46:13Z</time></trkpt>
<trkpt lat="45.8872241993" lon="2.8472797852"><ele></ele><time>2013-8-16T17:46:16Z</time></trkpt>
<trkpt lat="45.8872243669" lon="2.8472802043"><ele></ele><time>2013-8-16T17:46:19Z</time></trkpt>
<trkpt lat="45.8872248698" lon="2.8472806234"><ele></ele><time>2013-8-16T17:46:22Z</time></trkpt>
<trkpt lat="45.8872248698" lon="2.8472804558"><ele></ele><time>2013-8-16T17:46:25Z</time></trkpt>
<trkpt lat="45.8872247022" lon="2.8472804558"><ele></ele><time>2013-8-16T17:46:28Z</time></trkpt>
<trkpt lat="45.8872246183" lon="2.8472803719"><ele></ele><time>2013-8-16T17:46:31Z</time></trkpt>
<trkpt lat="45.8872234449" lon="2.8472802881"><ele></ele><time>2013-8-16T17:46:34Z</time></trkpt>
<trkpt lat="45.8872234449" lon="2.8472804558"><ele></ele><time>2013-8-16T17:46:37Z</time></trkpt>
<trkpt lat="45.8872236125" lon="2.8472807072"><ele></ele><time>2013-8-16T17:46:40Z</time></trkpt>
<trkpt lat="45.8872239478" lon="2.8472808748"><ele></ele><time>2013-8-16T17:46:43Z</time></trkpt>
<trkpt lat="45.8872226905" lon="2.8472786956"><ele></ele><time>2013-8-16T17:46:46Z</time></trkpt>
<trkpt lat="45.8872225229" lon="2.8472786956"><ele></ele><time>2013-8-16T17:46:49Z</time></trkpt>
<trkpt lat="45.8872248698" lon="2.8472807910"><ele></ele><time>2013-8-16T17:46:52Z</time></trkpt>
<trkpt lat="45.8872249536" lon="2.8472806234"><ele></ele><time>2013-8-16T17:46:55Z</time></trkpt>
<trkpt lat="45.8872251213" lon="2.8472803719"><ele></ele><time>2013-8-16T17:46:58Z</time></trkpt>
<trkpt lat="45.8872256242" lon="2.8472791146"><ele></ele><time>2013-8-16T17:47:1Z</time></trkpt>
<trkpt lat="45.8872258756" lon="2.8472787794"><ele></ele><time>2013-8-16T17:47:4Z</time></trkpt>
<trkpt lat="45.8872260433" lon="2.8472786956"><ele></ele><time>2013-8-16T17:47:7Z</time></trkpt>
<trkpt lat="45.8872262947" lon="2.8472779412"><ele></ele><time>2013-8-16T17:47:10Z</time></trkpt>
<trkpt lat="45.8872265462" lon="2.8472769354"><ele></ele><time>2013-8-16T17:47:13Z</time></trkpt>
<trkpt lat="45.8872262947" lon="2.8472763486"><ele></ele><time>2013-8-16T17:47:16Z</time></trkpt>
<trkpt lat="45.8872283064" lon="2.8472753428"><ele></ele><time>2013-8-16T17:47:19Z</time></trkpt>
<trkpt lat="45.8872283902" lon="2.8472751752"><ele></ele><time>2013-8-16T17:47:22Z</time></trkpt>
<trkpt lat="45.8872286417" lon="2.8472748399"><ele></ele><time>2013-8-16T17:47:25Z</time></trkpt>
<trkpt lat="45.8872301504" lon="2.8472754266"><ele></ele><time>2013-8-16T17:47:28Z</time></trkpt>
<trkpt lat="45.8872304857" lon="2.8472755942"><ele></ele><time>2013-8-16T17:47:31Z</time></trkpt>
<trkpt lat="45.8872255404" lon="2.8472854011"><ele></ele><time>2013-8-16T17:47:34Z</time></trkpt>
<trkpt lat="45.8872256242" lon="2.8472853173"><ele></ele><time>2013-8-16T17:47:37Z</time></trkpt>
<trkpt lat="45.8872257080" lon="2.8472841438"><ele></ele><time>2013-8-16T17:47:40Z</time></trkpt>
<trkpt lat="45.8872155659" lon="2.8472894244"><ele></ele><time>2013-8-16T17:47:43Z</time></trkpt>
<trkpt lat="45.8872018196" lon="2.8472887538"><ele></ele><time>2013-8-16T17:47:46Z</time></trkpt>
<trkpt lat="45.8869119734" lon="2.8471228760"><ele></ele><time>2013-8-16T17:47:49Z</time></trkpt>
<trkpt lat="45.8868720755" lon="2.8471011668"><ele></ele><time>2013-8-16T17:47:52Z</time></trkpt>
<trkpt lat="45.8867827244" lon="2.8470551502"><ele></ele><time>2013-8-16T17:47:55Z</time></trkpt>
<trkpt lat="45.8862223104" lon="2.8464906290"><ele></ele><time>2013-8-16T17:47:58Z</time></trkpt>
<trkpt lat="45.8859466296" lon="2.8460181411"><ele></ele><time>2013-8-16T17:48:1Z</time></trkpt>
<trkpt lat="45.8856698591" lon="2.8455208428"><ele></ele><time>2013-8-16T17:48:4Z</time></trkpt>
<trkpt lat="45.8854389377" lon="2.8451759275"><ele></ele><time>2013-8-16T17:48:7Z</time></trkpt>
<trkpt lat="45.8851680346" lon="2.8448109794"><ele></ele><time>2013-8-16T17:48:10Z</time></trkpt>
<trkpt lat="45.8848395478" lon="2.8444303572"><ele></ele><time>2013-8-16T17:48:13Z</time></trkpt>
<trkpt lat="45.8845516294" lon="2.8441542573"><ele></ele><time>2013-8-16T17:48:16Z</time></trkpt>
<trkpt lat="45.8843608573" lon="2.8439902235"><ele></ele><time>2013-8-16T17:48:19Z</time></trkpt>
<trkpt lat="45.8839716017" lon="2.8436880559"><ele></ele><time>2013-8-16T17:48:22Z</time></trkpt>
<trkpt lat="45.8836965077" lon="2.8434678633"><ele></ele><time>2013-8-16T17:48:25Z</time></trkpt>
<trkpt lat="45.8834913187" lon="2.8432283085"><ele></ele><time>2013-8-16T17:48:28Z</time></trkpt>
<trkpt lat="45.8834275324" lon="2.8431278933"><ele></ele><time>2013-8-16T17:48:31Z</time></trkpt>
<trkpt lat="45.8833706193" lon="2.8430155758"><ele></ele><time>2013-8-16T17:48:34Z</time></trkpt>
<trkpt lat="45.8833247703" lon="2.8428944573"><ele></ele><time>2013-8-16T17:48:37Z</time></trkpt>
<trkpt lat="45.8832914941" lon="2.8427648731"><ele></ele><time>2013-8-16T17:48:40Z</time></trkpt>
<trkpt lat="45.8832729701" lon="2.8426300921"><ele></ele><time>2013-8-16T17:48:43Z</time></trkpt>
<trkpt lat="45.8832655940" lon="2.8424932156"><ele></ele><time>2013-8-16T17:48:46Z</time></trkpt>
<trkpt lat="45.8832640853" lon="2.8423574287"><ele></ele><time>2013-8-16T17:48:49Z</time></trkpt>
<trkpt lat="45.8832640853" lon="2.8422218934"><ele></ele><time>2013-8-16T17:48:52Z</time></trkpt>
<trkpt lat="45.8832488302" lon="2.8419546783"><ele></ele><time>2013-8-16T17:48:55Z</time></trkpt>
<trkpt lat="45.8832260314" lon="2.8418273572"><ele></ele><time>2013-8-16T17:48:58Z</time></trkpt>
<trkpt lat="45.8831908274" lon="2.8417054843"><ele></ele><time>2013-8-16T17:49:1Z</time></trkpt>
<trkpt lat="45.8831464872" lon="2.8415878862"><ele></ele><time>2013-8-16T17:49:4Z</time></trkpt>
<trkpt lat="45.8830988780" lon="2.8414742276"><ele></ele><time>2013-8-16T17:49:7Z</time></trkpt>
<trkpt lat="45.8824236318" lon="2.8398917243"><ele></ele><time>2013-8-16T17:49:10Z</time></trkpt>
<trkpt lat="45.8819899522" lon="2.8388242051"><ele></ele><time>2013-8-16T17:49:13Z</time></trkpt>
<trkpt lat="45.8819565084" lon="2.8387603350"><ele></ele><time>2013-8-16T17:49:16Z</time></trkpt>
<trkpt lat="45.8819188736" lon="2.8386985604"><ele></ele><time>2013-8-16T17:49:19Z</time></trkpt>
<trkpt lat="45.8817472961" lon="2.8384435829"><ele></ele><time>2013-8-16T17:49:22Z</time></trkpt>
<trkpt lat="45.8809873927" lon="2.8375481442"><ele></ele><time>2013-8-16T17:49:25Z</time></trkpt>
<trkpt lat="45.8809021488" lon="2.8373916540"><ele></ele><time>2013-8-16T17:49:28Z</time></trkpt>
<trkpt lat="45.8808967844" lon="2.8373333160"><ele></ele><time>2013-8-16T17:49:31Z</time></trkpt>
<trkpt lat="45.8809002209" lon="2.8372746427"><ele></ele><time>2013-8-16T17:49:34Z</time></trkpt>
<trkpt lat="45.8809080999" lon="2.8372126166"><ele></ele><time>2013-8-16T17:49:37Z</time></trkpt>
<trkpt lat="45.8809169848" lon="2.8371427115"><ele></ele><time>2013-8-16T17:49:40Z</time></trkpt>
<trkpt lat="45.8809246123" lon="2.8370689508"><ele></ele><time>2013-8-16T17:49:43Z</time></trkpt>
<trkpt lat="45.8809261210" lon="2.8369935136"><ele></ele><time>2013-8-16T17:49:46Z</time></trkpt>
<trkpt lat="45.8809217624" lon="2.8369162325"><ele></ele><time>2013-8-16T17:49:49Z</time></trkpt>
<trkpt lat="45.8809145540" lon="2.8368381131"><ele></ele><time>2013-8-16T17:49:52Z</time></trkpt>
<trkpt lat="45.8808547910" lon="2.8363721631"><ele></ele><time>2013-8-16T17:49:55Z</time></trkpt>
<trkpt lat="45.8808467444" lon="2.8363025095"><ele></ele><time>2013-8-16T17:49:58Z</time></trkpt>
<trkpt lat="45.8808373567" lon="2.8362388909"><ele></ele><time>2013-8-16T17:50:1Z</time></trkpt>
<trkpt lat="45.8808141388" lon="2.8358380683"><ele></ele><time>2013-8-16T17:50:4Z</time></trkpt>
<trkpt lat="45.8808348421" lon="2.8353730403"><ele></ele><time>2013-8-16T17:50:7Z</time></trkpt>
<trkpt lat="45.8808391169" lon="2.8353252634"><ele></ele><time>2013-8-16T17:50:10Z</time></trkpt>
<trkpt lat="45.8808380272" lon="2.8346979618"><ele></ele><time>2013-8-16T17:50:13Z</time></trkpt>
<trkpt lat="45.8808402903" lon="2.8341757692"><ele></ele><time>2013-8-16T17:50:16Z</time></trkpt>
<trkpt lat="45.8808354288" lon="2.8340553213"><ele></ele><time>2013-8-16T17:50:19Z</time></trkpt>
<trkpt lat="45.8808309864" lon="2.8339961451"><ele></ele><time>2013-8-16T17:50:22Z</time></trkpt>
<trkpt lat="45.8808154799" lon="2.8337230626"><ele></ele><time>2013-8-16T17:50:25Z</time></trkpt>
<trkpt lat="45.8807832934" lon="2.8332131077"><ele></ele><time>2013-8-16T17:50:28Z</time></trkpt>
<trkpt lat="45.8807726484" lon="2.8330245987"><ele></ele><time>2013-8-16T17:50:31Z</time></trkpt>
<trkpt lat="45.8807454910" lon="2.8326069284"><ele></ele><time>2013-8-16T17:50:34Z</time></trkpt>
<trkpt lat="45.8806812856" lon="2.8320729174"><ele></ele><time>2013-8-16T17:50:37Z</time></trkpt>
<trkpt lat="45.8804978896" lon="2.8312057257"><ele></ele><time>2013-8-16T17:50:40Z</time></trkpt>
<trkpt lat="45.8804787789" lon="2.8311246727"><ele></ele><time>2013-8-16T17:50:43Z</time></trkpt>
<trkpt lat="45.8804630209" lon="2.8310475592"><ele></ele><time>2013-8-16T17:50:46Z</time></trkpt>
<trkpt lat="45.8804086223" lon="2.8308290429"><ele></ele><time>2013-8-16T17:50:49Z</time></trkpt>
<trkpt lat="45.8803824708" lon="2.8307640832"><ele></ele><time>2013-8-16T17:50:52Z</time></trkpt>
<trkpt lat="45.8803506196" lon="2.8307133727"><ele></ele><time>2013-8-16T17:50:55Z</time></trkpt>
<trkpt lat="45.8803140745" lon="2.8306827787"><ele></ele><time>2013-8-16T17:50:58Z</time></trkpt>
<trkpt lat="45.8802749310" lon="2.8306647576"><ele></ele><time>2013-8-16T17:51:1Z</time></trkpt>
<trkpt lat="45.8802344464" lon="2.8306489997"><ele></ele><time>2013-8-16T17:51:4Z</time></trkpt>
<trkpt lat="45.8799095638" lon="2.8305751551"><ele></ele><time>2013-8-16T17:51:7Z</time></trkpt>
<trkpt lat="45.8798628766" lon="2.8305703774"><ele></ele><time>2013-8-16T17:51:10Z</time></trkpt>
<trkpt lat="45.8798152674" lon="2.8305709641"><ele></ele><time>2013-8-16T17:51:13Z</time></trkpt>
<trkpt lat="45.8797658980" lon="2.8305775858"><ele></ele><time>2013-8-16T17:51:16Z</time></trkpt>
<trkpt lat="45.8797161933" lon="2.8305938467"><ele></ele><time>2013-8-16T17:51:19Z</time></trkpt>
<trkpt lat="45.8796679974" lon="2.8306155559"><ele></ele><time>2013-8-16T17:51:22Z</time></trkpt>
<trkpt lat="45.8796214778" lon="2.8306432161"><ele></ele><time>2013-8-16T17:51:25Z</time></trkpt>
<trkpt lat="45.8795746230" lon="2.8306771629"><ele></ele><time>2013-8-16T17:51:28Z</time></trkpt>
<trkpt lat="45.8795219846" lon="2.8307043202"><ele></ele><time>2013-8-16T17:51:31Z</time></trkpt>
<trkpt lat="45.8794645686" lon="2.8307199944"><ele></ele><time>2013-8-16T17:51:34Z</time></trkpt>
<trkpt lat="45.8794049732" lon="2.8307191562"><ele></ele><time>2013-8-16T17:51:37Z</time></trkpt>
<trkpt lat="45.8793426957" lon="2.8307064157"><ele></ele><time>2013-8-16T17:51:40Z</time></trkpt>
<trkpt lat="45.8792752214" lon="2.8306925856"><ele></ele><time>2013-8-16T17:51:43Z</time></trkpt>
<trkpt lat="45.8790635783" lon="2.8306590579"><ele></ele><time>2013-8-16T17:51:46Z</time></trkpt>
<trkpt lat="45.8788196649" lon="2.8305680305"><ele></ele><time>2013-8-16T17:51:49Z</time></trkpt>
<trkpt lat="45.8787231054" lon="2.8305164818"><ele></ele><time>2013-8-16T17:51:52Z</time></trkpt>
<trkpt lat="45.8786854707" lon="2.8304864746"><ele></ele><time>2013-8-16T17:51:55Z</time></trkpt>
<trkpt lat="45.8786535356" lon="2.8304458223"><ele></ele><time>2013-8-16T17:51:58Z</time></trkpt>
<trkpt lat="45.8786355983" lon="2.8303985484"><ele></ele><time>2013-8-16T17:52:1Z</time></trkpt>
<trkpt lat="45.8786263783" lon="2.8303478379"><ele></ele><time>2013-8-16T17:52:4Z</time></trkpt>
<trkpt lat="45.8786129672" lon="2.8302808665"><ele></ele><time>2013-8-16T17:52:7Z</time></trkpt>
<trkpt lat="45.8786017355" lon="2.8302035853"><ele></ele><time>2013-8-16T17:52:10Z</time></trkpt>
<trkpt lat="45.8785857260" lon="2.8300247155"><ele></ele><time>2013-8-16T17:52:13Z</time></trkpt>
<trkpt lat="45.8785830438" lon="2.8297545668"><ele></ele><time>2013-8-16T17:52:16Z</time></trkpt>
<trkpt lat="45.8785940241" lon="2.8296843264"><ele></ele><time>2013-8-16T17:52:19Z</time></trkpt>
<trkpt lat="45.8786353469" lon="2.8295185324"><ele></ele><time>2013-8-16T17:52:22Z</time></trkpt>
<trkpt lat="45.8787145559" lon="2.8292139340"><ele></ele><time>2013-8-16T17:52:25Z</time></trkpt>
<trkpt lat="45.8787261229" lon="2.8291144408"><ele></ele><time>2013-8-16T17:52:28Z</time></trkpt>
<trkpt lat="45.8787243627" lon="2.8291120939"><ele></ele><time>2013-8-16T17:52:31Z</time></trkpt>
<trkpt lat="45.8787229378" lon="2.8291084059"><ele></ele><time>2013-8-16T17:52:34Z</time></trkpt>
<trkpt lat="45.8787189983" lon="2.8290994372"><ele></ele><time>2013-8-16T17:52:37Z</time></trkpt>
<trkpt lat="45.8787050843" lon="2.8290765546"><ele></ele><time>2013-8-16T17:52:40Z</time></trkpt>
<trkpt lat="45.8787047490" lon="2.8290756326"><ele></ele><time>2013-8-16T17:52:43Z</time></trkpt>
<trkpt lat="45.8787045814" lon="2.8290758003"><ele></ele><time>2013-8-16T17:52:46Z</time></trkpt>
<trkpt lat="45.8787040785" lon="2.8290753812"><ele></ele><time>2013-8-16T17:52:49Z</time></trkpt>
<trkpt lat="45.8787024021" lon="2.8290751297"><ele></ele><time>2013-8-16T17:52:52Z</time></trkpt>
<trkpt lat="45.8787016477" lon="2.8290747944"><ele></ele><time>2013-8-16T17:52:55Z</time></trkpt>
<trkpt lat="45.8787017316" lon="2.8290752135"><ele></ele><time>2013-8-16T17:52:58Z</time></trkpt>
<trkpt lat="45.8787006419" lon="2.8290752135"><ele></ele><time>2013-8-16T17:53:1Z</time></trkpt>
<trkpt lat="45.8787007257" lon="2.8290751297"><ele></ele><time>2013-8-16T17:53:4Z</time></trkpt>
<trkpt lat="45.8787006419" lon="2.8290750459"><ele></ele><time>2013-8-16T17:53:7Z</time></trkpt>
<trkpt lat="45.8787003905" lon="2.8290748782"><ele></ele><time>2013-8-16T17:53:10Z</time></trkpt>
<trkpt lat="45.8787006419" lon="2.8290749621"><ele></ele><time>2013-8-16T17:53:13Z</time></trkpt>
<trkpt lat="45.8787012286" lon="2.8290752973"><ele></ele><time>2013-8-16T17:53:16Z</time></trkpt>
<trkpt lat="45.8787020668" lon="2.8290753812"><ele></ele><time>2013-8-16T17:53:19Z</time></trkpt>
<trkpt lat="45.8787018154" lon="2.8290752135"><ele></ele><time>2013-8-16T17:53:22Z</time></trkpt>
<trkpt lat="45.8787011448" lon="2.8290745430"><ele></ele><time>2013-8-16T17:53:25Z</time></trkpt>
<trkpt lat="45.8786989655" lon="2.8290720284"><ele></ele><time>2013-8-16T17:53:28Z</time></trkpt>
<trkpt lat="45.8786980435" lon="2.8290714417"><ele></ele><time>2013-8-16T17:53:31Z</time></trkpt>
<trkpt lat="45.8786942717" lon="2.8290674184"><ele></ele><time>2013-8-16T17:53:34Z</time></trkpt>
<trkpt lat="45.8786941040" lon="2.8290661611"><ele></ele><time>2013-8-16T17:53:37Z</time></trkpt>
<trkpt lat="45.8786936849" lon="2.8290645685"><ele></ele><time>2013-8-16T17:53:40Z</time></trkpt>
<trkpt lat="45.8786937688" lon="2.8290622216"><ele></ele><time>2013-8-16T17:53:43Z</time></trkpt>
<trkpt lat="45.8786948584" lon="2.8290623892"><ele></ele><time>2013-8-16T17:53:46Z</time></trkpt>
<trkpt lat="45.8786963671" lon="2.8290613834"><ele></ele><time>2013-8-16T17:53:49Z</time></trkpt>
<trkpt lat="45.8786961995" lon="2.8290607966"><ele></ele><time>2013-8-16T17:53:52Z</time></trkpt>
<trkpt lat="45.8787075151" lon="2.8290556837"><ele></ele><time>2013-8-16T17:53:55Z</time></trkpt>
<trkpt lat="45.8786969539" lon="2.8290353995"><ele></ele><time>2013-8-16T17:53:58Z</time></trkpt>
<trkpt lat="45.8786830399" lon="2.8290141933"><ele></ele><time>2013-8-16T17:54:1Z</time></trkpt>
<trkpt lat="45.8786585648" lon="2.8290029615"><ele></ele><time>2013-8-16T17:54:4Z</time></trkpt>
<trkpt lat="45.8786416333" lon="2.8290065657"><ele></ele><time>2013-8-16T17:54:7Z</time></trkpt>
<trkpt lat="45.8786235284" lon="2.8290165402"><ele></ele><time>2013-8-16T17:54:10Z</time></trkpt>
<trkpt lat="45.8784641884" lon="2.8291798197"><ele></ele><time>2013-8-16T17:54:13Z</time></trkpt>
<trkpt lat="45.8784244582" lon="2.8292248305"><ele></ele><time>2013-8-16T17:54:16Z</time></trkpt>
<trkpt lat="45.8783816267" lon="2.8292690869"><ele></ele><time>2013-8-16T17:54:19Z</time></trkpt>
<trkpt lat="45.8783418965" lon="2.8293120023"><ele></ele><time>2013-8-16T17:54:22Z</time></trkpt>
<trkpt lat="45.8781761862" lon="2.8295041993"><ele></ele><time>2013-8-16T17:54:25Z</time></trkpt>
<trkpt lat="45.8781021740" lon="2.8295844141"><ele></ele><time>2013-8-16T17:54:28Z</time></trkpt>
<trkpt lat="45.8780320175" lon="2.8296601027"><ele></ele><time>2013-8-16T17:54:31Z</time></trkpt>
<trkpt lat="45.8780013397" lon="2.8296901938"><ele></ele><time>2013-8-16T17:54:34Z</time></trkpt>
<trkpt lat="45.8779729251" lon="2.8297233023"><ele></ele><time>2013-8-16T17:54:37Z</time></trkpt>
<trkpt lat="45.8779410738" lon="2.8297584224"><ele></ele><time>2013-8-16T17:54:40Z</time></trkpt>
<trkpt lat="45.8779097255" lon="2.8297856636"><ele></ele><time>2013-8-16T17:54:43Z</time></trkpt>
<trkpt lat="45.8778805565" lon="2.8298161738"><ele></ele><time>2013-8-16T17:54:46Z</time></trkpt>
<trkpt lat="45.8778483700" lon="2.8298594244"><ele></ele><time>2013-8-16T17:54:49Z</time></trkpt>
<trkpt lat="45.8778155129" lon="2.8299072012"><ele></ele><time>2013-8-16T17:54:52Z</time></trkpt>
<trkpt lat="45.8777826559" lon="2.8299539723"><ele></ele><time>2013-8-16T17:54:55Z</time></trkpt>
<trkpt lat="45.8777501341" lon="2.8300000727"><ele></ele><time>2013-8-16T17:54:58Z</time></trkpt>
<trkpt lat="45.8777202945" lon="2.8300507832"><ele></ele><time>2013-8-16T17:55:1Z</time></trkpt>
<trkpt lat="45.8776907064" lon="2.8301061038"><ele></ele><time>2013-8-16T17:55:4Z</time></trkpt>
<trkpt lat="45.8775627147" lon="2.8302737419"><ele></ele><time>2013-8-16T17:55:7Z</time></trkpt>
<trkpt lat="45.8775441907" lon="2.8302676231"><ele></ele><time>2013-8-16T17:55:10Z</time></trkpt>
<trkpt lat="45.8775364794" lon="2.8302419744"><ele></ele><time>2013-8-16T17:55:13Z</time></trkpt>
<trkpt lat="45.8775373176" lon="2.8302048426"><ele></ele><time>2013-8-16T17:55:16Z</time></trkpt>
<trkpt lat="45.8775433525" lon="2.8301656991"><ele></ele><time>2013-8-16T17:55:19Z</time></trkpt>
<trkpt lat="45.8775615413" lon="2.8301258013"><ele></ele><time>2013-8-16T17:55:22Z</time></trkpt>
<trkpt lat="45.8775911294" lon="2.8300853167"><ele></ele><time>2013-8-16T17:55:25Z</time></trkpt>
<trkpt lat="45.8776259143" lon="2.8300415631"><ele></ele><time>2013-8-16T17:55:28Z</time></trkpt>
<trkpt lat="45.8776606154" lon="2.8299906850"><ele></ele><time>2013-8-16T17:55:31Z</time></trkpt>
<trkpt lat="45.8776951488" lon="2.8299319278"><ele></ele><time>2013-8-16T17:55:34Z</time></trkpt>
<trkpt lat="45.8777635451" lon="2.8297947161"><ele></ele><time>2013-8-16T17:55:37Z</time></trkpt>
<trkpt lat="45.8777897805" lon="2.8297111485"><ele></ele><time>2013-8-16T17:55:40Z</time></trkpt>
<trkpt lat="45.8778999187" lon="2.8293468710"><ele></ele><time>2013-8-16T17:55:43Z</time></trkpt>
<trkpt lat="45.8779927902" lon="2.8289835993"><ele></ele><time>2013-8-16T17:55:46Z</time></trkpt>
<trkpt lat="45.8780076262" lon="2.8288793284"><ele></ele><time>2013-8-16T17:55:49Z</time></trkpt>
<trkpt lat="45.8780486975" lon="2.8284782544"><ele></ele><time>2013-8-16T17:55:52Z</time></trkpt>
<trkpt lat="45.8780564927" lon="2.8283946868"><ele></ele><time>2013-8-16T17:55:55Z</time></trkpt>
<trkpt lat="45.8780676406" lon="2.8283120412"><ele></ele><time>2013-8-16T17:55:58Z</time></trkpt>
<trkpt lat="45.8780864161" lon="2.8282273002"><ele></ele><time>2013-8-16T17:56:1Z</time></trkpt>
<trkpt lat="45.8781087119" lon="2.8281394579"><ele></ele><time>2013-8-16T17:56:4Z</time></trkpt>
<trkpt lat="45.8781354502" lon="2.8280549683"><ele></ele><time>2013-8-16T17:56:7Z</time></trkpt>
<trkpt lat="45.8781577460" lon="2.8279771842"><ele></ele><time>2013-8-16T17:56:10Z</time></trkpt>
<trkpt lat="45.8781817183" lon="2.8278307524"><ele></ele><time>2013-8-16T17:56:13Z</time></trkpt>
<trkpt lat="45.8781883400" lon="2.8277541418"><ele></ele><time>2013-8-16T17:56:16Z</time></trkpt>
<trkpt lat="45.8781900164" lon="2.8275729250"><ele></ele><time>2013-8-16T17:56:19Z</time></trkpt>
<trkpt lat="45.8781828918" lon="2.8274668101"><ele></ele><time>2013-8-16T17:56:22Z</time></trkpt>
<trkpt lat="45.8781636972" lon="2.8272446897"><ele></ele><time>2013-8-16T17:56:25Z</time></trkpt>
<trkpt lat="45.8781415690" lon="2.8270126786"><ele></ele><time>2013-8-16T17:56:28Z</time></trkpt>
<trkpt lat="45.8781196084" lon="2.8267889656"><ele></ele><time>2013-8-16T17:56:31Z</time></trkpt>
<trkpt lat="45.8781092148" lon="2.8265960142"><ele></ele><time>2013-8-16T17:56:34Z</time></trkpt>
<trkpt lat="45.8780890144" lon="2.8264334891"><ele></ele><time>2013-8-16T17:56:37Z</time></trkpt>
<trkpt lat="45.8780769445" lon="2.8263537772"><ele></ele><time>2013-8-16T17:56:40Z</time></trkpt>
<trkpt lat="45.8780569118" lon="2.8261956107"><ele></ele><time>2013-8-16T17:56:43Z</time></trkpt>
<trkpt lat="45.8780569956" lon="2.8261205927"><ele></ele><time>2013-8-16T17:56:46Z</time></trkpt>
<trkpt lat="45.8780667186" lon="2.8259726521"><ele></ele><time>2013-8-16T17:56:49Z</time></trkpt>
<trkpt lat="45.8780831471" lon="2.8258975502"><ele></ele><time>2013-8-16T17:56:52Z</time></trkpt>
<trkpt lat="45.8781091310" lon="2.8258208558"><ele></ele><time>2013-8-16T17:56:55Z</time></trkpt>
<trkpt lat="45.8781473525" lon="2.8257472627"><ele></ele><time>2013-8-16T17:56:58Z</time></trkpt>
<trkpt lat="45.8781906031" lon="2.8256757651"><ele></ele><time>2013-8-16T17:57:1Z</time></trkpt>
<trkpt lat="45.8782410622" lon="2.8256009147"><ele></ele><time>2013-8-16T17:57:4Z</time></trkpt>
<trkpt lat="45.8783005737" lon="2.8255222086"><ele></ele><time>2013-8-16T17:57:7Z</time></trkpt>
<trkpt lat="45.8783734124" lon="2.8254473582"><ele></ele><time>2013-8-16T17:57:10Z</time></trkpt>
<trkpt lat="45.8785527013" lon="2.8252969868"><ele></ele><time>2013-8-16T17:57:13Z</time></trkpt>
<trkpt lat="45.8789120335" lon="2.8250343818"><ele></ele><time>2013-8-16T17:57:16Z</time></trkpt>
<trkpt lat="45.8789842855" lon="2.8249739483"><ele></ele><time>2013-8-16T17:57:19Z</time></trkpt>
<trkpt lat="45.8790520951" lon="2.8249080665"><ele></ele><time>2013-8-16T17:57:22Z</time></trkpt>
<trkpt lat="45.8791815117" lon="2.8247682564"><ele></ele><time>2013-8-16T17:57:25Z</time></trkpt>
<trkpt lat="45.8793780673" lon="2.8245962597"><ele></ele><time>2013-8-16T17:57:28Z</time></trkpt>
<trkpt lat="45.8794446196" lon="2.8245685995"><ele></ele><time>2013-8-16T17:57:31Z</time></trkpt>
<trkpt lat="45.8795099147" lon="2.8245654982"><ele></ele><time>2013-8-16T17:57:34Z</time></trkpt>
<trkpt lat="45.8795770537" lon="2.8245955054"><ele></ele><time>2013-8-16T17:57:37Z</time></trkpt>
<trkpt lat="45.8796430193" lon="2.8246546816"><ele></ele><time>2013-8-16T17:57:40Z</time></trkpt>
<trkpt lat="45.8797015250" lon="2.8247263469"><ele></ele><time>2013-8-16T17:57:43Z</time></trkpt>
<trkpt lat="45.8797586896" lon="2.8248011135"><ele></ele><time>2013-8-16T17:57:46Z</time></trkpt>
<trkpt lat="45.8798192907" lon="2.8248712700"><ele></ele><time>2013-8-16T17:57:49Z</time></trkpt>
<trkpt lat="45.8799534850" lon="2.8249888681"><ele></ele><time>2013-8-16T17:57:52Z</time></trkpt>
<trkpt lat="45.8801553212" lon="2.8251109086"><ele></ele><time>2013-8-16T17:57:55Z</time></trkpt>
<trkpt lat="45.8802135754" lon="2.8251321986"><ele></ele><time>2013-8-16T17:57:58Z</time></trkpt>
<trkpt lat="45.8802706562" lon="2.8251397423"><ele></ele><time>2013-8-16T17:58:1Z</time></trkpt>
<trkpt lat="45.8803278208" lon="2.8251268342"><ele></ele><time>2013-8-16T17:58:4Z</time></trkpt>
<trkpt lat="45.8803842310" lon="2.8250848409"><ele></ele><time>2013-8-16T17:58:7Z</time></trkpt>
<trkpt lat="45.8804391325" lon="2.8250177018"><ele></ele><time>2013-8-16T17:58:10Z</time></trkpt>
<trkpt lat="45.8804945368" lon="2.8249286860"><ele></ele><time>2013-8-16T17:58:13Z</time></trkpt>
<trkpt lat="45.8805495221" lon="2.8248256724"><ele></ele><time>2013-8-16T17:58:16Z</time></trkpt>
<trkpt lat="45.8805962093" lon="2.8247120138"><ele></ele><time>2013-8-16T17:58:19Z</time></trkpt>
<trkpt lat="45.8806263003" lon="2.8245936614"><ele></ele><time>2013-8-16T17:58:22Z</time></trkpt>
<trkpt lat="45.8806394599" lon="2.8244872950"><ele></ele><time>2013-8-16T17:58:25Z</time></trkpt>
<trkpt lat="45.8806348499" lon="2.8244043980"><ele></ele><time>2013-8-16T17:58:28Z</time></trkpt>
<trkpt lat="45.8806207683" lon="2.8243481554"><ele></ele><time>2013-8-16T17:58:31Z</time></trkpt>
<trkpt lat="45.8806033339" lon="2.8243160527"><ele></ele><time>2013-8-16T17:58:34Z</time></trkpt>
<trkpt lat="45.8805915993" lon="2.8242962714"><ele></ele><time>2013-8-16T17:58:37Z</time></trkpt>
<trkpt lat="45.8805879951" lon="2.8242826927"><ele></ele><time>2013-8-16T17:58:40Z</time></trkpt>
<trkpt lat="45.8805517852" lon="2.8241992928"><ele></ele><time>2013-8-16T17:58:43Z</time></trkpt>
<trkpt lat="45.8805211075" lon="2.8240980394"><ele></ele><time>2013-8-16T17:58:46Z</time></trkpt>
<trkpt lat="45.8805192634" lon="2.8241011407"><ele></ele><time>2013-8-16T17:58:49Z</time></trkpt>
<trkpt lat="45.8805112168" lon="2.8241079301"><ele></ele><time>2013-8-16T17:58:52Z</time></trkpt>
<trkpt lat="45.8805081155" lon="2.8241087683"><ele></ele><time>2013-8-16T17:58:55Z</time></trkpt>
<trkpt lat="45.8805076964" lon="2.8241096064"><ele></ele><time>2013-8-16T17:58:58Z</time></trkpt>
<trkpt lat="45.8805070259" lon="2.8241104446"><ele></ele><time>2013-8-16T17:59:1Z</time></trkpt>
<trkpt lat="45.8805061877" lon="2.8241111990"><ele></ele><time>2013-8-16T17:59:4Z</time></trkpt>
<trkpt lat="45.8805050980" lon="2.8241130430"><ele></ele><time>2013-8-16T17:59:7Z</time></trkpt>
<trkpt lat="45.8805052657" lon="2.8241135459"><ele></ele><time>2013-8-16T17:59:10Z</time></trkpt>
<trkpt lat="45.8805050980" lon="2.8241133783"><ele></ele><time>2013-8-16T17:59:13Z</time></trkpt>
<trkpt lat="45.8805033378" lon="2.8241091873"><ele></ele><time>2013-8-16T17:59:16Z</time></trkpt>
<trkpt lat="45.8805033378" lon="2.8241084330"><ele></ele><time>2013-8-16T17:59:19Z</time></trkpt>
<trkpt lat="45.8805034216" lon="2.8241079301"><ele></ele><time>2013-8-16T17:59:22Z</time></trkpt>
<trkpt lat="45.8805040084" lon="2.8241073433"><ele></ele><time>2013-8-16T17:59:25Z</time></trkpt>
<trkpt lat="45.8805066906" lon="2.8241075948"><ele></ele><time>2013-8-16T17:59:28Z</time></trkpt>
<trkpt lat="45.8805071097" lon="2.8241084330"><ele></ele><time>2013-8-16T17:59:31Z</time></trkpt>
<trkpt lat="45.8805080317" lon="2.8241097741"><ele></ele><time>2013-8-16T17:59:34Z</time></trkpt>
<trkpt lat="45.8805089537" lon="2.8241111990"><ele></ele><time>2013-8-16T17:59:37Z</time></trkpt>
<trkpt lat="45.8805102948" lon="2.8241122048"><ele></ele><time>2013-8-16T17:59:40Z</time></trkpt>
<trkpt lat="45.8805114683" lon="2.8241125401"><ele></ele><time>2013-8-16T17:59:43Z</time></trkpt>
<trkpt lat="45.8805121388" lon="2.8241128754"><ele></ele><time>2013-8-16T17:59:46Z</time></trkpt>
<trkpt lat="45.8805130608" lon="2.8241133783"><ele></ele><time>2013-8-16T17:59:49Z</time></trkpt>
<trkpt lat="45.8805155754" lon="2.8241147194"><ele></ele><time>2013-8-16T17:59:52Z</time></trkpt>
<trkpt lat="45.8805159945" lon="2.8241151385"><ele></ele><time>2013-8-16T17:59:55Z</time></trkpt>
<trkpt lat="45.8805161621" lon="2.8241153061"><ele></ele><time>2013-8-16T17:59:58Z</time></trkpt>
<trkpt lat="45.8805047628" lon="2.8241143003"><ele></ele><time>2013-8-16T18:0:1Z</time></trkpt>
<trkpt lat="45.8804867417" lon="2.8240881488"><ele></ele><time>2013-8-16T18:0:4Z</time></trkpt>
<trkpt lat="45.8803655393" lon="2.8238763381"><ele></ele><time>2013-8-16T18:0:7Z</time></trkpt>
<trkpt lat="45.8802495338" lon="2.8236999828"><ele></ele><time>2013-8-16T18:0:10Z</time></trkpt>
<trkpt lat="45.8802029304" lon="2.8235898446"><ele></ele><time>2013-8-16T18:0:13Z</time></trkpt>
<trkpt lat="45.8802100550" lon="2.8235952929"><ele></ele><time>2013-8-16T18:0:16Z</time></trkpt>
<trkpt lat="45.8801325224" lon="2.8234790359"><ele></ele><time>2013-8-16T18:0:19Z</time></trkpt>
<trkpt lat="45.8801180217" lon="2.8234579973"><ele></ele><time>2013-8-16T18:0:22Z</time></trkpt>
<trkpt lat="45.8800787944" lon="2.8234194405"><ele></ele><time>2013-8-16T18:0:25Z</time></trkpt>
<trkpt lat="45.8800394833" lon="2.8233878408"><ele></ele><time>2013-8-16T18:0:28Z</time></trkpt>
<trkpt lat="45.8800246473" lon="2.8233559057"><ele></ele><time>2013-8-16T18:0:31Z</time></trkpt>
<trkpt lat="45.8800109848" lon="2.8233382199"><ele></ele><time>2013-8-16T18:0:34Z</time></trkpt>
<trkpt lat="45.8799982443" lon="2.8233185224"><ele></ele><time>2013-8-16T18:0:37Z</time></trkpt>
<trkpt lat="45.8798146807" lon="2.8230720945"><ele></ele><time>2013-8-16T18:0:40Z</time></trkpt>
<trkpt lat="45.8795816638" lon="2.8228825796"><ele></ele><time>2013-8-16T18:0:43Z</time></trkpt>
<trkpt lat="45.8794156183" lon="2.8228436876"><ele></ele><time>2013-8-16T18:0:46Z</time></trkpt>
<trkpt lat="45.8793999441" lon="2.8228421789"><ele></ele><time>2013-8-16T18:0:49Z</time></trkpt>
<trkpt lat="45.8793825936" lon="2.8228390776"><ele></ele><time>2013-8-16T18:0:52Z</time></trkpt>
<trkpt lat="45.8793659974" lon="2.8228363954"><ele></ele><time>2013-8-16T18:0:55Z</time></trkpt>
<trkpt lat="45.8793483116" lon="2.8228345513"><ele></ele><time>2013-8-16T18:0:58Z</time></trkpt>
<trkpt lat="45.8793311287" lon="2.8228314500"><ele></ele><time>2013-8-16T18:1:1Z</time></trkpt>
<trkpt lat="45.8792810049" lon="2.8228329588"><ele></ele><time>2013-8-16T18:1:4Z</time></trkpt>
<trkpt lat="45.8792654984" lon="2.8228278458"><ele></ele><time>2013-8-16T18:1:7Z</time></trkpt>
<trkpt lat="45.8792503271" lon="2.8228271753"><ele></ele><time>2013-8-16T18:1:10Z</time></trkpt>
<trkpt lat="45.8792354073" lon="2.8228245769"><ele></ele><time>2013-8-16T18:1:13Z</time></trkpt>
<trkpt lat="45.8792199846" lon="2.8228203021"><ele></ele><time>2013-8-16T18:1:16Z</time></trkpt>
<trkpt lat="45.8792033885" lon="2.8228135966"><ele></ele><time>2013-8-16T18:1:19Z</time></trkpt>
<trkpt lat="45.8791860379" lon="2.8228097409"><ele></ele><time>2013-8-16T18:1:22Z</time></trkpt>
<trkpt lat="45.8791689388" lon="2.8228063881"><ele></ele><time>2013-8-16T18:1:25Z</time></trkpt>
<trkpt lat="45.8791538514" lon="2.8228070587"><ele></ele><time>2013-8-16T18:1:28Z</time></trkpt>
<trkpt lat="45.8791207429" lon="2.8228120878"><ele></ele><time>2013-8-16T18:1:31Z</time></trkpt>
<trkpt lat="45.8791051526" lon="2.8228046279"><ele></ele><time>2013-8-16T18:1:34Z</time></trkpt>
<trkpt lat="45.8790892269" lon="2.8227989282"><ele></ele><time>2013-8-16T18:1:37Z</time></trkpt>
<trkpt lat="45.8790724631" lon="2.8227920551"><ele></ele><time>2013-8-16T18:1:40Z</time></trkpt>
<trkpt lat="45.8790548611" lon="2.8227878641"><ele></ele><time>2013-8-16T18:1:43Z</time></trkpt>
<trkpt lat="45.8790002111" lon="2.8227580246"><ele></ele><time>2013-8-16T18:1:46Z</time></trkpt>
<trkpt lat="45.8789883927" lon="2.8227375727"><ele></ele><time>2013-8-16T18:1:49Z</time></trkpt>
<trkpt lat="45.8789790049" lon="2.8227180429"><ele></ele><time>2013-8-16T18:1:52Z</time></trkpt>
<trkpt lat="45.8789747301" lon="2.8226965014"><ele></ele><time>2013-8-16T18:1:55Z</time></trkpt>
<trkpt lat="45.8789722994" lon="2.8226745408"><ele></ele><time>2013-8-16T18:1:58Z</time></trkpt>
<trkpt lat="45.8789735567" lon="2.8226509877"><ele></ele><time>2013-8-16T18:2:1Z</time></trkpt>
<trkpt lat="45.8789788373" lon="2.8226248361"><ele></ele><time>2013-8-16T18:2:4Z</time></trkpt>
<trkpt lat="45.8789837826" lon="2.8226028755"><ele></ele><time>2013-8-16T18:2:7Z</time></trkpt>
<trkpt lat="45.8789862134" lon="2.8225797415"><ele></ele><time>2013-8-16T18:2:10Z</time></trkpt>
<trkpt lat="45.8789884765" lon="2.8225575294"><ele></ele><time>2013-8-16T18:2:13Z</time></trkpt>
<trkpt lat="45.8789915778" lon="2.8225357365"><ele></ele><time>2013-8-16T18:2:16Z</time></trkpt>
<trkpt lat="45.8789938409" lon="2.8225163743"><ele></ele><time>2013-8-16T18:2:19Z</time></trkpt>
<trkpt lat="45.8789995406" lon="2.8224975150"><ele></ele><time>2013-8-16T18:2:22Z</time></trkpt>
<trkpt lat="45.8790059946" lon="2.8224785719"><ele></ele><time>2013-8-16T18:2:25Z</time></trkpt>
<trkpt lat="45.8790136222" lon="2.8224621434"><ele></ele><time>2013-8-16T18:2:28Z</time></trkpt>
<trkpt lat="45.8790190704" lon="2.8224351536"><ele></ele><time>2013-8-16T18:2:31Z</time></trkpt>
<trkpt lat="45.8790194057" lon="2.8224354051"><ele></ele><time>2013-8-16T18:2:34Z</time></trkpt>
<trkpt lat="45.8790190704" lon="2.8224364948"><ele></ele><time>2013-8-16T18:2:37Z</time></trkpt>
<trkpt lat="45.8790197410" lon="2.8224345669"><ele></ele><time>2013-8-16T18:2:40Z</time></trkpt>
<trkpt lat="45.8790195733" lon="2.8224337287"><ele></ele><time>2013-8-16T18:2:43Z</time></trkpt>
<trkpt lat="45.8790196571" lon="2.8224358242"><ele></ele><time>2013-8-16T18:2:46Z</time></trkpt>
<trkpt lat="45.8790221717" lon="2.8224328067"><ele></ele><time>2013-8-16T18:2:49Z</time></trkpt>
<trkpt lat="45.8790257759" lon="2.8224349022"><ele></ele><time>2013-8-16T18:2:52Z</time></trkpt>
<trkpt lat="45.8790264465" lon="2.8224349860"><ele></ele><time>2013-8-16T18:2:55Z</time></trkpt>
<trkpt lat="45.8790269494" lon="2.8224349860"><ele></ele><time>2013-8-16T18:2:58Z</time></trkpt>
<trkpt lat="45.8790276200" lon="2.8224348184"><ele></ele><time>2013-8-16T18:3:1Z</time></trkpt>
<trkpt lat="45.8790287096" lon="2.8224328905"><ele></ele><time>2013-8-16T18:3:4Z</time></trkpt>
<trkpt lat="45.8790289611" lon="2.8224332258"><ele></ele><time>2013-8-16T18:3:7Z</time></trkpt>
<trkpt lat="45.8790294640" lon="2.8224333096"><ele></ele><time>2013-8-16T18:3:10Z</time></trkpt>
<trkpt lat="45.8790297154" lon="2.8224334773"><ele></ele><time>2013-8-16T18:3:13Z</time></trkpt>
<trkpt lat="45.8790298831" lon="2.8224338964"><ele></ele><time>2013-8-16T18:3:16Z</time></trkpt>
<trkpt lat="45.8790308051" lon="2.8224338964"><ele></ele><time>2013-8-16T18:3:19Z</time></trkpt>
<trkpt lat="45.8790315595" lon="2.8224327229"><ele></ele><time>2013-8-16T18:3:22Z</time></trkpt>
<trkpt lat="45.8790320624" lon="2.8224319685"><ele></ele><time>2013-8-16T18:3:25Z</time></trkpt>
<trkpt lat="45.8790323976" lon="2.8224315494"><ele></ele><time>2013-8-16T18:3:28Z</time></trkpt>
<trkpt lat="45.8790340740" lon="2.8224281967"><ele></ele><time>2013-8-16T18:3:31Z</time></trkpt>
<trkpt lat="45.8790386003" lon="2.8224240895"><ele></ele><time>2013-8-16T18:3:34Z</time></trkpt>
<trkpt lat="45.8790385164" lon="2.8224249277"><ele></ele><time>2013-8-16T18:3:37Z</time></trkpt>
<trkpt lat="45.8790376782" lon="2.8224272747"><ele></ele><time>2013-8-16T18:3:40Z</time></trkpt>
<trkpt lat="45.8790377621" lon="2.8224274423"><ele></ele><time>2013-8-16T18:3:43Z</time></trkpt>
<trkpt lat="45.8790375106" lon="2.8224281128"><ele></ele><time>2013-8-16T18:3:46Z</time></trkpt>
<trkpt lat="45.8790334873" lon="2.8224078286"><ele></ele><time>2013-8-16T18:3:49Z</time></trkpt>
<trkpt lat="45.8790444676" lon="2.8221229278"><ele></ele><time>2013-8-16T18:3:52Z</time></trkpt>
<trkpt lat="45.8790432941" lon="2.8220629971"><ele></ele><time>2013-8-16T18:3:55Z</time></trkpt>
<trkpt lat="45.8790409472" lon="2.8219289705"><ele></ele><time>2013-8-16T18:3:58Z</time></trkpt>
<trkpt lat="45.8790448867" lon="2.8218540363"><ele></ele><time>2013-8-16T18:4:1Z</time></trkpt>
<trkpt lat="45.8790765703" lon="2.8214148246"><ele></ele><time>2013-8-16T18:4:4Z</time></trkpt>
<trkpt lat="45.8790870477" lon="2.8213138226"><ele></ele><time>2013-8-16T18:4:7Z</time></trkpt>
<trkpt lat="45.8791241795" lon="2.8209831566"><ele></ele><time>2013-8-16T18:4:10Z</time></trkpt>
<trkpt lat="45.8791996166" lon="2.8204901330"><ele></ele><time>2013-8-16T18:4:13Z</time></trkpt>
<trkpt lat="45.8792250138" lon="2.8203668352"><ele></ele><time>2013-8-16T18:4:16Z</time></trkpt>
<trkpt lat="45.8792571165" lon="2.8202421125"><ele></ele><time>2013-8-16T18:4:19Z</time></trkpt>
<trkpt lat="45.8792978525" lon="2.8201188985"><ele></ele><time>2013-8-16T18:4:22Z</time></trkpt>
<trkpt lat="45.8794821706" lon="2.8196010645"><ele></ele><time>2013-8-16T18:4:25Z</time></trkpt>
<trkpt lat="45.8796225674" lon="2.8191922791"><ele></ele><time>2013-8-16T18:4:28Z</time></trkpt>
<trkpt lat="45.8799763676" lon="2.8182433639"><ele></ele><time>2013-8-16T18:4:31Z</time></trkpt>
<trkpt lat="45.8801378030" lon="2.8178072535"><ele></ele><time>2013-8-16T18:4:34Z</time></trkpt>
<trkpt lat="45.8803156670" lon="2.8171869088"><ele></ele><time>2013-8-16T18:4:37Z</time></trkpt>
<trkpt lat="45.8803508710" lon="2.8170355316"><ele></ele><time>2013-8-16T18:4:40Z</time></trkpt>
<trkpt lat="45.8804369532" lon="2.8163828328"><ele></ele><time>2013-8-16T18:4:43Z</time></trkpt>
<trkpt lat="45.8804684691" lon="2.8157601412"><ele></ele><time>2013-8-16T18:4:46Z</time></trkpt>
<trkpt lat="45.8804921061" lon="2.8155074269"><ele></ele><time>2013-8-16T18:4:49Z</time></trkpt>
<trkpt lat="45.8804967161" lon="2.8148314264"><ele></ele><time>2013-8-16T18:4:52Z</time></trkpt>
<trkpt lat="45.8804496098" lon="2.8142386582"><ele></ele><time>2013-8-16T18:4:55Z</time></trkpt>
<trkpt lat="45.8804272301" lon="2.8140910529"><ele></ele><time>2013-8-16T18:4:58Z</time></trkpt>
<trkpt lat="45.8803970553" lon="2.8139467165"><ele></ele><time>2013-8-16T18:5:1Z</time></trkpt>
<trkpt lat="45.8803274017" lon="2.8136724606"><ele></ele><time>2013-8-16T18:5:4Z</time></trkpt>
<trkpt lat="45.8798130043" lon="2.8126490302"><ele></ele><time>2013-8-16T18:5:7Z</time></trkpt>
<trkpt lat="45.8794309571" lon="2.8116580378"><ele></ele><time>2013-8-16T18:5:10Z</time></trkpt>
<trkpt lat="45.8794277720" lon="2.8110024892"><ele></ele><time>2013-8-16T18:5:13Z</time></trkpt>
<trkpt lat="45.8794442844" lon="2.8109373618"><ele></ele><time>2013-8-16T18:5:16Z</time></trkpt>
<trkpt lat="45.8795402572" lon="2.8106483538"><ele></ele><time>2013-8-16T18:5:19Z</time></trkpt>
<trkpt lat="45.8795669116" lon="2.8106050193"><ele></ele><time>2013-8-16T18:5:22Z</time></trkpt>
<trkpt lat="45.8795958292" lon="2.8105717432"><ele></ele><time>2013-8-16T18:5:25Z</time></trkpt>
<trkpt lat="45.8796271775" lon="2.8105488606"><ele></ele><time>2013-8-16T18:5:28Z</time></trkpt>
<trkpt lat="45.8796566818" lon="2.8105346113"><ele></ele><time>2013-8-16T18:5:31Z</time></trkpt>
<trkpt lat="45.8796879463" lon="2.8105290793"><ele></ele><time>2013-8-16T18:5:34Z</time></trkpt>
<trkpt lat="45.8798416704" lon="2.8103956394"><ele></ele><time>2013-8-16T18:5:37Z</time></trkpt>
<trkpt lat="45.8798874356" lon="2.8102377243"><ele></ele><time>2013-8-16T18:5:40Z</time></trkpt>
<trkpt lat="45.8798973262" lon="2.8102139197"><ele></ele><time>2013-8-16T18:5:43Z</time></trkpt>
<trkpt lat="45.8799044508" lon="2.8101873491"><ele></ele><time>2013-8-16T18:5:46Z</time></trkpt>
<trkpt lat="45.8800387289" lon="2.8098840080"><ele></ele><time>2013-8-16T18:5:49Z</time></trkpt>
<trkpt lat="45.8800785430" lon="2.8098291904"><ele></ele><time>2013-8-16T18:5:52Z</time></trkpt>
<trkpt lat="45.8800942171" lon="2.8098136839"><ele></ele><time>2013-8-16T18:5:55Z</time></trkpt>
<trkpt lat="45.8801088016" lon="2.8097963333"><ele></ele><time>2013-8-16T18:5:58Z</time></trkpt>
<trkpt lat="45.8801231347" lon="2.8097790666"><ele></ele><time>2013-8-16T18:6:1Z</time></trkpt>
<trkpt lat="45.8801379707" lon="2.8097611293"><ele></ele><time>2013-8-16T18:6:4Z</time></trkpt>
<trkpt lat="45.8801548183" lon="2.8097443655"><ele></ele><time>2013-8-16T18:6:7Z</time></trkpt>
<trkpt lat="45.8801699895" lon="2.8097275179"><ele></ele><time>2013-8-16T18:6:10Z</time></trkpt>
<trkpt lat="45.8801862504" lon="2.8097147774"><ele></ele><time>2013-8-16T18:6:13Z</time></trkpt>
<trkpt lat="45.8802026790" lon="2.8097060602"><ele></ele><time>2013-8-16T18:6:16Z</time></trkpt>
<trkpt lat="45.8802188560" lon="2.8096909728"><ele></ele><time>2013-8-16T18:6:19Z</time></trkpt>
<trkpt lat="45.8802362066" lon="2.8096761368"><ele></ele><time>2013-8-16T18:6:22Z</time></trkpt>
<trkpt lat="45.8802534733" lon="2.8096620552"><ele></ele><time>2013-8-16T18:6:25Z</time></trkpt>
<trkpt lat="45.8803725801" lon="2.8096028790"><ele></ele><time>2013-8-16T18:6:28Z</time></trkpt>
<trkpt lat="45.8803911880" lon="2.8095986880"><ele></ele><time>2013-8-16T18:6:31Z</time></trkpt>
<trkpt lat="45.8804110531" lon="2.8095950838"><ele></ele><time>2013-8-16T18:6:34Z</time></trkpt>
<trkpt lat="45.8804316726" lon="2.8095908929"><ele></ele><time>2013-8-16T18:6:37Z</time></trkpt>
<trkpt lat="45.8807112090" lon="2.8094199020"><ele></ele><time>2013-8-16T18:6:40Z</time></trkpt>
<trkpt lat="45.8809003886" lon="2.8092334885"><ele></ele><time>2013-8-16T18:6:43Z</time></trkpt>
<trkpt lat="45.8810533583" lon="2.8091133758"><ele></ele><time>2013-8-16T18:6:46Z</time></trkpt>
<trkpt lat="45.8810992911" lon="2.8091272060"><ele></ele><time>2013-8-16T18:6:49Z</time></trkpt>
<trkpt lat="45.8811128698" lon="2.8091426287"><ele></ele><time>2013-8-16T18:6:52Z</time></trkpt>
<trkpt lat="45.8811234310" lon="2.8091757372"><ele></ele><time>2013-8-16T18:6:55Z</time></trkpt>
<trkpt lat="45.8811261971" lon="2.8094079997"><ele></ele><time>2013-8-16T18:6:58Z</time></trkpt>
<trkpt lat="45.8811273705" lon="2.8094337322"><ele></ele><time>2013-8-16T18:7:1Z</time></trkpt>
<trkpt lat="45.8811239339" lon="2.8094581235"><ele></ele><time>2013-8-16T18:7:4Z</time></trkpt>
<trkpt lat="45.8811204135" lon="2.8094785754"><ele></ele><time>2013-8-16T18:7:7Z</time></trkpt>
<trkpt lat="45.8811198268" lon="2.8094981890"><ele></ele><time>2013-8-16T18:7:10Z</time></trkpt>
<trkpt lat="45.8811194915" lon="2.8095198143"><ele></ele><time>2013-8-16T18:7:13Z</time></trkpt>
<trkpt lat="45.8811211679" lon="2.8095461335"><ele></ele><time>2013-8-16T18:7:16Z</time></trkpt>
<trkpt lat="45.8811195754" lon="2.8095722850"><ele></ele><time>2013-8-16T18:7:19Z</time></trkpt>
<trkpt lat="45.8811103553" lon="2.8096719459"><ele></ele><time>2013-8-16T18:7:22Z</time></trkpt>
<trkpt lat="45.8810994588" lon="2.8096878715"><ele></ele><time>2013-8-16T18:7:25Z</time></trkpt>
<trkpt lat="45.8810866345" lon="2.8096900508"><ele></ele><time>2013-8-16T18:7:28Z</time></trkpt>
<trkpt lat="45.8810779173" lon="2.8096744604"><ele></ele><time>2013-8-16T18:7:31Z</time></trkpt>
<trkpt lat="45.8810728882" lon="2.8096528351"><ele></ele><time>2013-8-16T18:7:34Z</time></trkpt>
<trkpt lat="45.8810675237" lon="2.8096384183"><ele></ele><time>2013-8-16T18:7:37Z</time></trkpt>
<trkpt lat="45.8810676076" lon="2.8096385021"><ele></ele><time>2013-8-16T18:7:40Z</time></trkpt>
<trkpt lat="45.8810681943" lon="2.8096387535"><ele></ele><time>2013-8-16T18:7:43Z</time></trkpt>
<trkpt lat="45.8810686972" lon="2.8096389212"><ele></ele><time>2013-8-16T18:7:46Z</time></trkpt>
<trkpt lat="45.8810689487" lon="2.8096390888"><ele></ele><time>2013-8-16T18:7:49Z</time></trkpt>
<trkpt lat="45.8810806833" lon="2.8096193913"><ele></ele><time>2013-8-16T18:7:52Z</time></trkpt>
<trkpt lat="45.8810911607" lon="2.8096053936"><ele></ele><time>2013-8-16T18:7:55Z</time></trkpt>
<trkpt lat="45.8811023924" lon="2.8095898870"><ele></ele><time>2013-8-16T18:7:58Z</time></trkpt>
<trkpt lat="45.8811094332" lon="2.8095702734"><ele></ele><time>2013-8-16T18:8:1Z</time></trkpt>
<trkpt lat="45.8811451402" lon="2.8094648290"><ele></ele><time>2013-8-16T18:8:4Z</time></trkpt>
<trkpt lat="45.8811563719" lon="2.8094641585"><ele></ele><time>2013-8-16T18:8:7Z</time></trkpt>
<trkpt lat="45.8811699506" lon="2.8094743844"><ele></ele><time>2013-8-16T18:8:10Z</time></trkpt>
<trkpt lat="45.8811741415" lon="2.8094869573"><ele></ele><time>2013-8-16T18:8:13Z</time></trkpt>
<trkpt lat="45.8811742254" lon="2.8094863705"><ele></ele><time>2013-8-16T18:8:16Z</time></trkpt>
<trkpt lat="45.8811737224" lon="2.8094844427"><ele></ele><time>2013-8-16T18:8:19Z</time></trkpt>
<trkpt lat="45.8811747283" lon="2.8094847780"><ele></ele><time>2013-8-16T18:8:22Z</time></trkpt>
<trkpt lat="45.8811732195" lon="2.8094808385"><ele></ele><time>2013-8-16T18:8:25Z</time></trkpt>
<trkpt lat="45.8811732195" lon="2.8094805032"><ele></ele><time>2013-8-16T18:8:28Z</time></trkpt>
<trkpt lat="45.8811724652" lon="2.8094800841"><ele></ele><time>2013-8-16T18:8:31Z</time></trkpt>
<trkpt lat="45.8811619878" lon="2.8094857838"><ele></ele><time>2013-8-16T18:8:34Z</time></trkpt>
<trkpt lat="45.8811369259" lon="2.8095089179"><ele></ele><time>2013-8-16T18:8:37Z</time></trkpt>
<trkpt lat="45.8811278734" lon="2.8095174674"><ele></ele><time>2013-8-16T18:8:40Z</time></trkpt>
<trkpt lat="45.8810229320" lon="2.8096685093"><ele></ele><time>2013-8-16T18:8:43Z</time></trkpt>
<trkpt lat="45.8810108621" lon="2.8096838482"><ele></ele><time>2013-8-16T18:8:46Z</time></trkpt>
<trkpt lat="45.8809979539" lon="2.8097006120"><ele></ele><time>2013-8-16T18:8:49Z</time></trkpt>
<trkpt lat="45.8809837047" lon="2.8097139392"><ele></ele><time>2013-8-16T18:8:52Z</time></trkpt>
<trkpt lat="45.8809685335" lon="2.8097271826"><ele></ele><time>2013-8-16T18:8:55Z</time></trkpt>
<trkpt lat="45.8809061721" lon="2.8098153602"><ele></ele><time>2013-8-16T18:8:58Z</time></trkpt>
<trkpt lat="45.8809016459" lon="2.8098356444"><ele></ele><time>2013-8-16T18:9:1Z</time></trkpt>
<trkpt lat="45.8808916714" lon="2.8098558448"><ele></ele><time>2013-8-16T18:9:4Z</time></trkpt>
<trkpt lat="45.8808793500" lon="2.8098803200"><ele></ele><time>2013-8-16T18:9:7Z</time></trkpt>
<trkpt lat="45.8808705490" lon="2.8099076450"><ele></ele><time>2013-8-16T18:9:10Z</time></trkpt>
<trkpt lat="45.8808647655" lon="2.8099345509"><ele></ele><time>2013-8-16T18:9:13Z</time></trkpt>
<trkpt lat="45.8808557130" lon="2.8099635523"><ele></ele><time>2013-8-16T18:9:16Z</time></trkpt>
<trkpt lat="45.8808471635" lon="2.8099916317"><ele></ele><time>2013-8-16T18:9:19Z</time></trkpt>
<trkpt lat="45.8808327466" lon="2.8101120796"><ele></ele><time>2013-8-16T18:9:22Z</time></trkpt>
<trkpt lat="45.8808242809" lon="2.8101230599"><ele></ele><time>2013-8-16T18:9:25Z</time></trkpt>
<trkpt lat="45.8808114566" lon="2.8101254907"><ele></ele><time>2013-8-16T18:9:28Z</time></trkpt>
<trkpt lat="45.8808034100" lon="2.8101179469"><ele></ele><time>2013-8-16T18:9:31Z</time></trkpt>
<trkpt lat="45.8808039967" lon="2.8100959025"><ele></ele><time>2013-8-16T18:9:34Z</time></trkpt>
<trkpt lat="45.8808153123" lon="2.8100647219"><ele></ele><time>2013-8-16T18:9:37Z</time></trkpt>
<trkpt lat="45.8808308188" lon="2.8100233153"><ele></ele><time>2013-8-16T18:9:40Z</time></trkpt>
<trkpt lat="45.8808465768" lon="2.8099767957"><ele></ele><time>2013-8-16T18:9:43Z</time></trkpt>
<trkpt lat="45.8808788471" lon="2.8098648135"><ele></ele><time>2013-8-16T18:9:46Z</time></trkpt>
<trkpt lat="45.8808714710" lon="2.8098174557"><ele></ele><time>2013-8-16T18:9:49Z</time></trkpt>
<trkpt lat="45.8808531146" lon="2.8097752109"><ele></ele><time>2013-8-16T18:9:52Z</time></trkpt>
<trkpt lat="45.8808293939" lon="2.8097434435"><ele></ele><time>2013-8-16T18:9:55Z</time></trkpt>
<trkpt lat="45.8808061760" lon="2.8097191360"><ele></ele><time>2013-8-16T18:9:58Z</time></trkpt>
<trkpt lat="45.8807837125" lon="2.8097013664"><ele></ele><time>2013-8-16T18:10:1Z</time></trkpt>
<trkpt lat="45.8807577286" lon="2.8096876200"><ele></ele><time>2013-8-16T18:10:4Z</time></trkpt>
<trkpt lat="45.8807324991" lon="2.8096760530"><ele></ele><time>2013-8-16T18:10:7Z</time></trkpt>
<trkpt lat="45.8807077724" lon="2.8096650727"><ele></ele><time>2013-8-16T18:10:10Z</time></trkpt>
<trkpt lat="45.8806809504" lon="2.8096515778"><ele></ele><time>2013-8-16T18:10:13Z</time></trkpt>
<trkpt lat="45.8806563914" lon="2.8096460458"><ele></ele><time>2013-8-16T18:10:16Z</time></trkpt>
<trkpt lat="45.8806355204" lon="2.8096432798"><ele></ele><time>2013-8-16T18:10:19Z</time></trkpt>
<trkpt lat="45.8806211874" lon="2.8096313775"><ele></ele><time>2013-8-16T18:10:22Z</time></trkpt>
<trkpt lat="45.8806133922" lon="2.8096072376"><ele></ele><time>2013-8-16T18:10:25Z</time></trkpt>
<trkpt lat="45.8806016576" lon="2.8095830139"><ele></ele><time>2013-8-16T18:10:28Z</time></trkpt>
<trkpt lat="45.8805774339" lon="2.8095672559"><ele></ele><time>2013-8-16T18:10:31Z</time></trkpt>
<trkpt lat="45.8805392124" lon="2.8095592931"><ele></ele><time>2013-8-16T18:10:34Z</time></trkpt>
<trkpt lat="45.8804923575" lon="2.8095591255"><ele></ele><time>2013-8-16T18:10:37Z</time></trkpt>
<trkpt lat="45.8804452512" lon="2.8095623106"><ele></ele><time>2013-8-16T18:10:40Z</time></trkpt>
<trkpt lat="45.8804014139" lon="2.8095690999"><ele></ele><time>2013-8-16T18:10:43Z</time></trkpt>
<trkpt lat="45.8803628571" lon="2.8095782362"><ele></ele><time>2013-8-16T18:10:46Z</time></trkpt>
<trkpt lat="45.8803263959" lon="2.8095946647"><ele></ele><time>2013-8-16T18:10:49Z</time></trkpt>
<trkpt lat="45.8801605180" lon="2.8097145259"><ele></ele><time>2013-8-16T18:10:52Z</time></trkpt>
<trkpt lat="45.8800218813" lon="2.8098718543"><ele></ele><time>2013-8-16T18:10:55Z</time></trkpt>
<trkpt lat="45.8799832407" lon="2.8099322878"><ele></ele><time>2013-8-16T18:10:58Z</time></trkpt>
<trkpt lat="45.8799522277" lon="2.8099927213"><ele></ele><time>2013-8-16T18:11:1Z</time></trkpt>
<trkpt lat="45.8799272496" lon="2.8100562561"><ele></ele><time>2013-8-16T18:11:4Z</time></trkpt>
<trkpt lat="45.8799041156" lon="2.8101203777"><ele></ele><time>2013-8-16T18:11:7Z</time></trkpt>
<trkpt lat="45.8798833285" lon="2.8101834934"><ele></ele><time>2013-8-16T18:11:10Z</time></trkpt>
<trkpt lat="45.8798669837" lon="2.8102480341"><ele></ele><time>2013-8-16T18:11:13Z</time></trkpt>
<trkpt lat="45.8798229787" lon="2.8104190249"><ele></ele><time>2013-8-16T18:11:16Z</time></trkpt>
<trkpt lat="45.8797948994" lon="2.8104582522"><ele></ele><time>2013-8-16T18:11:19Z</time></trkpt>
<trkpt lat="45.8797600307" lon="2.8104816377"><ele></ele><time>2013-8-16T18:11:22Z</time></trkpt>
<trkpt lat="45.8797244076" lon="2.8104870021"><ele></ele><time>2013-8-16T18:11:25Z</time></trkpt>
<trkpt lat="45.8796956576" lon="2.8104722500"><ele></ele><time>2013-8-16T18:11:28Z</time></trkpt>
<trkpt lat="45.8796767984" lon="2.8104392253"><ele></ele><time>2013-8-16T18:11:31Z</time></trkpt>
<trkpt lat="45.8796716016" lon="2.8103941306"><ele></ele><time>2013-8-16T18:11:34Z</time></trkpt>
<trkpt lat="45.8796793129" lon="2.8103522211"><ele></ele><time>2013-8-16T18:11:37Z</time></trkpt>
<trkpt lat="45.8796959929" lon="2.8103211243"><ele></ele><time>2013-8-16T18:11:40Z</time></trkpt>
<trkpt lat="45.8797103260" lon="2.8102917876"><ele></ele><time>2013-8-16T18:11:43Z</time></trkpt>
<trkpt lat="45.8797235694" lon="2.8102622833"><ele></ele><time>2013-8-16T18:11:46Z</time></trkpt>
<trkpt lat="45.8798073046" lon="2.8100862633"><ele></ele><time>2013-8-16T18:11:49Z</time></trkpt>
<trkpt lat="45.8798920456" lon="2.8095300402"><ele></ele><time>2013-8-16T18:11:52Z</time></trkpt>
<trkpt lat="45.8798715100" lon="2.8095136955"><ele></ele><time>2013-8-16T18:11:55Z</time></trkpt>
<trkpt lat="45.8798518963" lon="2.8095071577"><ele></ele><time>2013-8-16T18:11:58Z</time></trkpt>
<trkpt lat="45.8798294328" lon="2.8094977699"><ele></ele><time>2013-8-16T18:12:1Z</time></trkpt>
<trkpt lat="45.8798078075" lon="2.8094784077"><ele></ele><time>2013-8-16T18:12:4Z</time></trkpt>
<trkpt lat="45.8797857631" lon="2.8094471432"><ele></ele><time>2013-8-16T18:12:7Z</time></trkpt>
<trkpt lat="45.8797037043" lon="2.8093909845"><ele></ele><time>2013-8-16T18:12:10Z</time></trkpt>
<trkpt lat="45.8794732019" lon="2.8095287830"><ele></ele><time>2013-8-16T18:12:13Z</time></trkpt>
<trkpt lat="45.8794585336" lon="2.8095554374"><ele></ele><time>2013-8-16T18:12:16Z</time></trkpt>
<trkpt lat="45.8793233335" lon="2.8100127541"><ele></ele><time>2013-8-16T18:12:19Z</time></trkpt>
<trkpt lat="45.8792131953" lon="2.8104353696"><ele></ele><time>2013-8-16T18:12:22Z</time></trkpt>
<trkpt lat="45.8792060707" lon="2.8104704060"><ele></ele><time>2013-8-16T18:12:25Z</time></trkpt>
<trkpt lat="45.8791958448" lon="2.8105020057"><ele></ele><time>2013-8-16T18:12:28Z</time></trkpt>
<trkpt lat="45.8791668434" lon="2.8107934445"><ele></ele><time>2013-8-16T18:12:31Z</time></trkpt>
<trkpt lat="45.8791654184" lon="2.8108289838"><ele></ele><time>2013-8-16T18:12:34Z</time></trkpt>
<trkpt lat="45.8791683521" lon="2.8108625952"><ele></ele><time>2013-8-16T18:12:37Z</time></trkpt>
<trkpt lat="45.8791679330" lon="2.8108932730"><ele></ele><time>2013-8-16T18:12:40Z</time></trkpt>
<trkpt lat="45.8791629877" lon="2.8109220229"><ele></ele><time>2013-8-16T18:12:43Z</time></trkpt>
<trkpt lat="45.8791541029" lon="2.8109444026"><ele></ele><time>2013-8-16T18:12:46Z</time></trkpt>
<trkpt lat="45.8791468944" lon="2.8109676205"><ele></ele><time>2013-8-16T18:12:49Z</time></trkpt>
<trkpt lat="45.8791439608" lon="2.8109915927"><ele></ele><time>2013-8-16T18:12:52Z</time></trkpt>
<trkpt lat="45.8791330643" lon="2.8110880684"><ele></ele><time>2013-8-16T18:12:55Z</time></trkpt>
<trkpt lat="45.8791359141" lon="2.8110977914"><ele></ele><time>2013-8-16T18:12:58Z</time></trkpt>
<trkpt lat="45.8791321423" lon="2.8111122921"><ele></ele><time>2013-8-16T18:13:1Z</time></trkpt>
<trkpt lat="45.8791738003" lon="2.8110700473"><ele></ele><time>2013-8-16T18:13:4Z</time></trkpt>
<trkpt lat="45.8791835234" lon="2.8110574745"><ele></ele><time>2013-8-16T18:13:7Z</time></trkpt>
<trkpt lat="45.8793356549" lon="2.8109300695"><ele></ele><time>2013-8-16T18:13:10Z</time></trkpt>
<trkpt lat="45.8794162888" lon="2.8108030837"><ele></ele><time>2013-8-16T18:13:13Z</time></trkpt>
<trkpt lat="45.8796039596" lon="2.8105735872"><ele></ele><time>2013-8-16T18:13:16Z</time></trkpt>
<trkpt lat="45.8796195500" lon="2.8105600923"><ele></ele><time>2013-8-16T18:13:19Z</time></trkpt>
<trkpt lat="45.8796354756" lon="2.8105491120"><ele></ele><time>2013-8-16T18:13:22Z</time></trkpt>
<trkpt lat="45.8796528261" lon="2.8105426580"><ele></ele><time>2013-8-16T18:13:25Z</time></trkpt>
<trkpt lat="45.8796745352" lon="2.8105341922"><ele></ele><time>2013-8-16T18:13:28Z</time></trkpt>
<trkpt lat="45.8796941489" lon="2.8105225414"><ele></ele><time>2013-8-16T18:13:31Z</time></trkpt>
<trkpt lat="45.8797607850" lon="2.8104947135"><ele></ele><time>2013-8-16T18:13:34Z</time></trkpt>
<trkpt lat="45.8797757886" lon="2.8104782011"><ele></ele><time>2013-8-16T18:13:37Z</time></trkpt>
<trkpt lat="45.8799091447" lon="2.8101794701"><ele></ele><time>2013-8-16T18:13:40Z</time></trkpt>
<trkpt lat="45.8800155111" lon="2.8099338803"><ele></ele><time>2013-8-16T18:13:43Z</time></trkpt>
<trkpt lat="45.8800872602" lon="2.8098441940"><ele></ele><time>2013-8-16T18:13:46Z</time></trkpt>
<trkpt lat="45.8802583348" lon="2.8096693475"><ele></ele><time>2013-8-16T18:13:49Z</time></trkpt>
<trkpt lat="45.8804890048" lon="2.8095740452"><ele></ele><time>2013-8-16T18:13:52Z</time></trkpt>
<trkpt lat="45.8805324230" lon="2.8095585387"><ele></ele><time>2013-8-16T18:13:55Z</time></trkpt>
<trkpt lat="45.8805499412" lon="2.8095456306"><ele></ele><time>2013-8-16T18:13:58Z</time></trkpt>
<trkpt lat="45.8805651963" lon="2.8095343150"><ele></ele><time>2013-8-16T18:14:1Z</time></trkpt>
<trkpt lat="45.8807100356" lon="2.8094305471"><ele></ele><time>2013-8-16T18:14:4Z</time></trkpt>
<trkpt lat="45.8807282243" lon="2.8094228357"><ele></ele><time>2013-8-16T18:14:7Z</time></trkpt>
<trkpt lat="45.8807461616" lon="2.8094108496"><ele></ele><time>2013-8-16T18:14:10Z</time></trkpt>
<trkpt lat="45.8807606623" lon="2.8093934990"><ele></ele><time>2013-8-16T18:14:13Z</time></trkpt>
<trkpt lat="45.8807742409" lon="2.8093751427"><ele></ele><time>2013-8-16T18:14:16Z</time></trkpt>
<trkpt lat="45.8809860516" lon="2.8091712110"><ele></ele><time>2013-8-16T18:14:19Z</time></trkpt>
<trkpt lat="45.8810572978" lon="2.8091152199"><ele></ele><time>2013-8-16T18:14:22Z</time></trkpt>
<trkpt lat="45.8810698707" lon="2.8091144655"><ele></ele><time>2013-8-16T18:14:25Z</time></trkpt>
<trkpt lat="45.8810825273" lon="2.8091220930"><ele></ele><time>2013-8-16T18:14:28Z</time></trkpt>
<trkpt lat="45.8810925018" lon="2.8091354202"><ele></ele><time>2013-8-16T18:14:31Z</time></trkpt>
<trkpt lat="45.8811039850" lon="2.8091524355"><ele></ele><time>2013-8-16T18:14:34Z</time></trkpt>
<trkpt lat="45.8811158873" lon="2.8091799282"><ele></ele><time>2013-8-16T18:14:37Z</time></trkpt>
<trkpt lat="45.8811392728" lon="2.8094105981"><ele></ele><time>2013-8-16T18:14:40Z</time></trkpt>
<trkpt lat="45.8811412845" lon="2.8094641585"><ele></ele><time>2013-8-16T18:14:43Z</time></trkpt>
<trkpt lat="45.8811408654" lon="2.8094986919"><ele></ele><time>2013-8-16T18:14:46Z</time></trkpt>
<trkpt lat="45.8811527677" lon="2.8095328901"><ele></ele><time>2013-8-16T18:14:49Z</time></trkpt>
<trkpt lat="45.8811582997" lon="2.8095671721"><ele></ele><time>2013-8-16T18:14:52Z</time></trkpt>
<trkpt lat="45.8811596408" lon="2.8095995262"><ele></ele><time>2013-8-16T18:14:55Z</time></trkpt>
<trkpt lat="45.8811577968" lon="2.8098696750"><ele></ele><time>2013-8-16T18:14:58Z</time></trkpt>
<trkpt lat="45.8811557852" lon="2.8099021968"><ele></ele><time>2013-8-16T18:15:1Z</time></trkpt>
<trkpt lat="45.8811572101" lon="2.8099250793"><ele></ele><time>2013-8-16T18:15:4Z</time></trkpt>
<trkpt lat="45.8811710402" lon="2.8099818248"><ele></ele><time>2013-8-16T18:15:7Z</time></trkpt>
<trkpt lat="45.8811746445" lon="2.8099812381"><ele></ele><time>2013-8-16T18:15:10Z</time></trkpt>
<trkpt lat="45.8811767399" lon="2.8099809028"><ele></ele><time>2013-8-16T18:15:13Z</time></trkpt>
<trkpt lat="45.8811768238" lon="2.8099800646"><ele></ele><time>2013-8-16T18:15:16Z</time></trkpt>
<trkpt lat="45.8811781649" lon="2.8099825792"><ele></ele><time>2013-8-16T18:15:19Z</time></trkpt>
<trkpt lat="45.8811785839" lon="2.8099840041"><ele></ele><time>2013-8-16T18:15:22Z</time></trkpt>
<trkpt lat="45.8812122792" lon="2.8099782206"><ele></ele><time>2013-8-16T18:15:25Z</time></trkpt>
<trkpt lat="45.8812245168" lon="2.8099638037"><ele></ele><time>2013-8-16T18:15:28Z</time></trkpt>
<trkpt lat="45.8812420350" lon="2.8099529911"><ele></ele><time>2013-8-16T18:15:31Z</time></trkpt>
<trkpt lat="45.8813011274" lon="2.8098985087"><ele></ele><time>2013-8-16T18:15:34Z</time></trkpt>
<trkpt lat="45.8813125268" lon="2.8098862711"><ele></ele><time>2013-8-16T18:15:37Z</time></trkpt>
<trkpt lat="45.8814018779" lon="2.8098249994"><ele></ele><time>2013-8-16T18:15:40Z</time></trkpt>
<trkpt lat="45.8814378362" lon="2.8097954113"><ele></ele><time>2013-8-16T18:15:43Z</time></trkpt>
<trkpt lat="45.8814551868" lon="2.8097773902"><ele></ele><time>2013-8-16T18:15:46Z</time></trkpt>
<trkpt lat="45.8814716153" lon="2.8097628895"><ele></ele><time>2013-8-16T18:15:49Z</time></trkpt>
<trkpt lat="45.8815325517" lon="2.8097245842"><ele></ele><time>2013-8-16T18:15:52Z</time></trkpt>
<trkpt lat="45.8815559372" lon="2.8097047191"><ele></ele><time>2013-8-16T18:15:55Z</time></trkpt>
<trkpt lat="45.8816116769" lon="2.8096747119"><ele></ele><time>2013-8-16T18:15:58Z</time></trkpt>
<trkpt lat="45.8817606233" lon="2.8094149567"><ele></ele><time>2013-8-16T18:16:1Z</time></trkpt>
<trkpt lat="45.8818815742" lon="2.8095108457"><ele></ele><time>2013-8-16T18:16:4Z</time></trkpt>
<trkpt lat="45.8818792272" lon="2.8095495701"><ele></ele><time>2013-8-16T18:16:7Z</time></trkpt>
<trkpt lat="45.8818389941" lon="2.8098595329"><ele></ele><time>2013-8-16T18:16:10Z</time></trkpt>
<trkpt lat="45.8818395808" lon="2.8098576888"><ele></ele><time>2013-8-16T18:16:13Z</time></trkpt>
<trkpt lat="45.8818408381" lon="2.8098458704"><ele></ele><time>2013-8-16T18:16:16Z</time></trkpt>
<trkpt lat="45.8818423469" lon="2.8098437749"><ele></ele><time>2013-8-16T18:16:19Z</time></trkpt>
<trkpt lat="45.8818429336" lon="2.8098422661"><ele></ele><time>2013-8-16T18:16:22Z</time></trkpt>
<trkpt lat="45.8818441909" lon="2.8098413441"><ele></ele><time>2013-8-16T18:16:25Z</time></trkpt>
<trkpt lat="45.8818443585" lon="2.8098414280"><ele></ele><time>2013-8-16T18:16:28Z</time></trkpt>
<trkpt lat="45.8818446100" lon="2.8098415956"><ele></ele><time>2013-8-16T18:16:31Z</time></trkpt>
<trkpt lat="45.8818454482" lon="2.8098397516"><ele></ele><time>2013-8-16T18:16:34Z</time></trkpt>
<trkpt lat="45.8818458673" lon="2.8098387457"><ele></ele><time>2013-8-16T18:16:37Z</time></trkpt>
<trkpt lat="45.8818541653" lon="2.8098035417"><ele></ele><time>2013-8-16T18:16:40Z</time></trkpt>
<trkpt lat="45.8818744496" lon="2.8097324632"><ele></ele><time>2013-8-16T18:16:43Z</time></trkpt>
<trkpt lat="45.8819292672" lon="2.8094603028"><ele></ele><time>2013-8-16T18:16:46Z</time></trkpt>
<trkpt lat="45.8818877768" lon="2.8093670122"><ele></ele><time>2013-8-16T18:16:49Z</time></trkpt>
<trkpt lat="45.8817983419" lon="2.8094188962"><ele></ele><time>2013-8-16T18:16:52Z</time></trkpt>
<trkpt lat="45.8817768842" lon="2.8094357438"><ele></ele><time>2013-8-16T18:16:55Z</time></trkpt>
<trkpt lat="45.8816794865" lon="2.8095827624"><ele></ele><time>2013-8-16T18:16:58Z</time></trkpt>
<trkpt lat="45.8815920632" lon="2.8096562717"><ele></ele><time>2013-8-16T18:17:1Z</time></trkpt>
<trkpt lat="45.8815159556" lon="2.8097059764"><ele></ele><time>2013-8-16T18:17:4Z</time></trkpt>
<trkpt lat="45.8815120999" lon="2.8097169567"><ele></ele><time>2013-8-16T18:17:7Z</time></trkpt>
<trkpt lat="45.8815125190" lon="2.8097169567"><ele></ele><time>2013-8-16T18:17:10Z</time></trkpt>
<trkpt lat="45.8815120161" lon="2.8097198904"><ele></ele><time>2013-8-16T18:17:13Z</time></trkpt>
<trkpt lat="45.8814130258" lon="2.8097825032"><ele></ele><time>2013-8-16T18:17:16Z</time></trkpt>
<trkpt lat="45.8813282847" lon="2.8098467924"><ele></ele><time>2013-8-16T18:17:19Z</time></trkpt>
<trkpt lat="45.8812780771" lon="2.8099254984"><ele></ele><time>2013-8-16T18:17:22Z</time></trkpt>
<trkpt lat="45.8812460583" lon="2.8099894524"><ele></ele><time>2013-8-16T18:17:25Z</time></trkpt>
<trkpt lat="45.8812252712" lon="2.8099972475"><ele></ele><time>2013-8-16T18:17:28Z</time></trkpt>
<trkpt lat="45.8811928332" lon="2.8099099081"><ele></ele><time>2013-8-16T18:17:31Z</time></trkpt>
<trkpt lat="45.8811975271" lon="2.8097691759"><ele></ele><time>2013-8-16T18:17:34Z</time></trkpt>
<trkpt lat="45.8811781649" lon="2.8095588740"><ele></ele><time>2013-8-16T18:17:37Z</time></trkpt>
<trkpt lat="45.8811770752" lon="2.8095279448"><ele></ele><time>2013-8-16T18:17:40Z</time></trkpt>
<trkpt lat="45.8811401948" lon="2.8094968479"><ele></ele><time>2013-8-16T18:17:43Z</time></trkpt>
<trkpt lat="45.8811314777" lon="2.8094675113"><ele></ele><time>2013-8-16T18:17:46Z</time></trkpt>
<trkpt lat="45.8811310586" lon="2.8094678465"><ele></ele><time>2013-8-16T18:17:49Z</time></trkpt>
<trkpt lat="45.8811300527" lon="2.8094670922"><ele></ele><time>2013-8-16T18:17:52Z</time></trkpt>
<trkpt lat="45.8811292145" lon="2.8094665054"><ele></ele><time>2013-8-16T18:17:55Z</time></trkpt>
<trkpt lat="45.8811287954" lon="2.8094659187"><ele></ele><time>2013-8-16T18:17:58Z</time></trkpt>
<trkpt lat="45.8811287116" lon="2.8094655834"><ele></ele><time>2013-8-16T18:18:1Z</time></trkpt>
<trkpt lat="45.8811267838" lon="2.8094640747"><ele></ele><time>2013-8-16T18:18:4Z</time></trkpt>
<trkpt lat="45.8811256103" lon="2.8094639909"><ele></ele><time>2013-8-16T18:18:7Z</time></trkpt>
<trkpt lat="45.8811161388" lon="2.8094874602"><ele></ele><time>2013-8-16T18:18:10Z</time></trkpt>
<trkpt lat="45.8811008837" lon="2.8095289506"><ele></ele><time>2013-8-16T18:18:13Z</time></trkpt>
<trkpt lat="45.8810565434" lon="2.8096462134"><ele></ele><time>2013-8-16T18:18:16Z</time></trkpt>
<trkpt lat="45.8808791824" lon="2.8098827507"><ele></ele><time>2013-8-16T18:18:19Z</time></trkpt>
<trkpt lat="45.8808488399" lon="2.8099901229"><ele></ele><time>2013-8-16T18:18:22Z</time></trkpt>
<trkpt lat="45.8808281366" lon="2.8101106547"><ele></ele><time>2013-8-16T18:18:25Z</time></trkpt>
<trkpt lat="45.8807818685" lon="2.8102767002"><ele></ele><time>2013-8-16T18:18:28Z</time></trkpt>
<trkpt lat="45.8807240333" lon="2.8106222022"><ele></ele><time>2013-8-16T18:18:31Z</time></trkpt>
<trkpt lat="45.8807076048" lon="2.8106600884"><ele></ele><time>2013-8-16T18:18:34Z</time></trkpt>
<trkpt lat="45.8806598280" lon="2.8107413929"><ele></ele><time>2013-8-16T18:18:37Z</time></trkpt>
<trkpt lat="45.8805783559" lon="2.8108124714"><ele></ele><time>2013-8-16T18:18:40Z</time></trkpt>
<trkpt lat="45.8805190120" lon="2.8108787723"><ele></ele><time>2013-8-16T18:18:43Z</time></trkpt>
<trkpt lat="45.8804565668" lon="2.8110167384"><ele></ele><time>2013-8-16T18:18:46Z</time></trkpt>
<trkpt lat="45.8804429043" lon="2.8110588994"><ele></ele><time>2013-8-16T18:18:49Z</time></trkpt>
<trkpt lat="45.8804296609" lon="2.8110968694"><ele></ele><time>2013-8-16T18:18:52Z</time></trkpt>
<trkpt lat="45.8804264758" lon="2.8110983782"><ele></ele><time>2013-8-16T18:18:55Z</time></trkpt>
<trkpt lat="45.8804334328" lon="2.8110801056"><ele></ele><time>2013-8-16T18:18:58Z</time></trkpt>
<trkpt lat="45.8803972229" lon="2.8112376016"><ele></ele><time>2013-8-16T18:19:1Z</time></trkpt>
<trkpt lat="45.8803790342" lon="2.8113050759"><ele></ele><time>2013-8-16T18:19:4Z</time></trkpt>
<trkpt lat="45.8803722449" lon="2.8113570437"><ele></ele><time>2013-8-16T18:19:7Z</time></trkpt>
<trkpt lat="45.8803697303" lon="2.8113631625"><ele></ele><time>2013-8-16T18:19:10Z</time></trkpt>
<trkpt lat="45.8803692274" lon="2.8113634139"><ele></ele><time>2013-8-16T18:19:13Z</time></trkpt>
<trkpt lat="45.8803688921" lon="2.8113634139"><ele></ele><time>2013-8-16T18:19:16Z</time></trkpt>
<trkpt lat="45.8803688921" lon="2.8113629948"><ele></ele><time>2013-8-16T18:19:19Z</time></trkpt>
<trkpt lat="45.8803686406" lon="2.8113628272"><ele></ele><time>2013-8-16T18:19:22Z</time></trkpt>
<trkpt lat="45.8803683892" lon="2.8113629948"><ele></ele><time>2013-8-16T18:19:25Z</time></trkpt>
<trkpt lat="45.8803678863" lon="2.8113631625"><ele></ele><time>2013-8-16T18:19:28Z</time></trkpt>
<trkpt lat="45.8803676348" lon="2.8113635816"><ele></ele><time>2013-8-16T18:19:31Z</time></trkpt>
<trkpt lat="45.8803858235" lon="2.8114847001"><ele></ele><time>2013-8-16T18:19:34Z</time></trkpt>
<trkpt lat="45.8803778607" lon="2.8115201555"><ele></ele><time>2013-8-16T18:19:37Z</time></trkpt>
<trkpt lat="45.8803672995" lon="2.8115403559"><ele></ele><time>2013-8-16T18:19:40Z</time></trkpt>
<trkpt lat="45.8803600073" lon="2.8115683515"><ele></ele><time>2013-8-16T18:19:43Z</time></trkpt>
<trkpt lat="45.8803629410" lon="2.8115639929"><ele></ele><time>2013-8-16T18:19:46Z</time></trkpt>
<trkpt lat="45.8803540561" lon="2.8115817625"><ele></ele><time>2013-8-16T18:19:49Z</time></trkpt>
<trkpt lat="45.8803511225" lon="2.8115827683"><ele></ele><time>2013-8-16T18:19:52Z</time></trkpt>
<trkpt lat="45.8803630248" lon="2.8116006218"><ele></ele><time>2013-8-16T18:19:55Z</time></trkpt>
<trkpt lat="45.8803574089" lon="2.8116085008"><ele></ele><time>2013-8-16T18:19:58Z</time></trkpt>
<trkpt lat="45.8803462610" lon="2.8116114344"><ele></ele><time>2013-8-16T18:20:1Z</time></trkpt>
<trkpt lat="45.8803382143" lon="2.8116469737"><ele></ele><time>2013-8-16T18:20:4Z</time></trkpt>
<trkpt lat="45.8803154994" lon="2.8117053956"><ele></ele><time>2013-8-16T18:20:7Z</time></trkpt>
<trkpt lat="45.8802758530" lon="2.8117758874"><ele></ele><time>2013-8-16T18:20:10Z</time></trkpt>
<trkpt lat="45.8802757692" lon="2.8118348960"><ele></ele><time>2013-8-16T18:20:13Z</time></trkpt>
<trkpt lat="45.8802844863" lon="2.8118469659"><ele></ele><time>2013-8-16T18:20:16Z</time></trkpt>
<trkpt lat="45.8803062793" lon="2.8118984308"><ele></ele><time>2013-8-16T18:20:19Z</time></trkpt>
<trkpt lat="45.8802927006" lon="2.8119232412"><ele></ele><time>2013-8-16T18:20:22Z</time></trkpt>
<trkpt lat="45.8803066146" lon="2.8119090758"><ele></ele><time>2013-8-16T18:20:25Z</time></trkpt>
<trkpt lat="45.8803254738" lon="2.8119234089"><ele></ele><time>2013-8-16T18:20:28Z</time></trkpt>
<trkpt lat="45.8803350292" lon="2.8119420167"><ele></ele><time>2013-8-16T18:20:31Z</time></trkpt>
<trkpt lat="45.8803443331" lon="2.8119771369"><ele></ele><time>2013-8-16T18:20:34Z</time></trkpt>
<trkpt lat="45.8803502843" lon="2.8119762987"><ele></ele><time>2013-8-16T18:20:37Z</time></trkpt>
<trkpt lat="45.8803602587" lon="2.8119822498"><ele></ele><time>2013-8-16T18:20:40Z</time></trkpt>
<trkpt lat="45.8803573251" lon="2.8119917214"><ele></ele><time>2013-8-16T18:20:43Z</time></trkpt>
<trkpt lat="45.8803521283" lon="2.8119912185"><ele></ele><time>2013-8-16T18:20:46Z</time></trkpt>
<trkpt lat="45.8803499490" lon="2.8119866084"><ele></ele><time>2013-8-16T18:20:49Z</time></trkpt>
<trkpt lat="45.8803451713" lon="2.8120135982"><ele></ele><time>2013-8-16T18:20:52Z</time></trkpt>
<trkpt lat="45.8803506196" lon="2.8120227344"><ele></ele><time>2013-8-16T18:20:55Z</time></trkpt>
<trkpt lat="45.8803520445" lon="2.8120286856"><ele></ele><time>2013-8-16T18:20:58Z</time></trkpt>
<trkpt lat="45.8803484403" lon="2.8120284341"><ele></ele><time>2013-8-16T18:21:1Z</time></trkpt>
<trkpt lat="45.8803450875" lon="2.8120151907"><ele></ele><time>2013-8-16T18:21:4Z</time></trkpt>
<trkpt lat="45.8803453390" lon="2.8119669948"><ele></ele><time>2013-8-16T18:21:7Z</time></trkpt>
<trkpt lat="45.8803317603" lon="2.8119176254"><ele></ele><time>2013-8-16T18:21:10Z</time></trkpt>
<trkpt lat="45.8802937064" lon="2.8119576070"><ele></ele><time>2013-8-16T18:21:13Z</time></trkpt>
<trkpt lat="45.8802841511" lon="2.8121198807"><ele></ele><time>2013-8-16T18:21:16Z</time></trkpt>
<trkpt lat="45.8803198580" lon="2.8123080544"><ele></ele><time>2013-8-16T18:21:19Z</time></trkpt>
<trkpt lat="45.8803711552" lon="2.8124036919"><ele></ele><time>2013-8-16T18:21:22Z</time></trkpt>
<trkpt lat="45.8803782798" lon="2.8124222998"><ele></ele><time>2013-8-16T18:21:25Z</time></trkpt>
<trkpt lat="45.8803682216" lon="2.8124163486"><ele></ele><time>2013-8-16T18:21:28Z</time></trkpt>
<trkpt lat="45.8803217020" lon="2.8123213816"><ele></ele><time>2013-8-16T18:21:31Z</time></trkpt>
<trkpt lat="45.8803169243" lon="2.8123120777"><ele></ele><time>2013-8-16T18:21:34Z</time></trkpt>
<trkpt lat="45.8802939579" lon="2.8121983353"><ele></ele><time>2013-8-16T18:21:37Z</time></trkpt>
<trkpt lat="45.8802988194" lon="2.8121735249"><ele></ele><time>2013-8-16T18:21:40Z</time></trkpt>
<trkpt lat="45.8802923653" lon="2.8119778913"><ele></ele><time>2013-8-16T18:21:43Z</time></trkpt>
<trkpt lat="45.8803279884" lon="2.8119051363"><ele></ele><time>2013-8-16T18:21:46Z</time></trkpt>
<trkpt lat="45.8803048544" lon="2.8118485585"><ele></ele><time>2013-8-16T18:21:49Z</time></trkpt>
<trkpt lat="45.8802790381" lon="2.8118162043"><ele></ele><time>2013-8-16T18:21:52Z</time></trkpt>
<trkpt lat="45.8802998252" lon="2.8117433656"><ele></ele><time>2013-8-16T18:21:55Z</time></trkpt>
<trkpt lat="45.8803308383" lon="2.8116977680"><ele></ele><time>2013-8-16T18:21:58Z</time></trkpt>
<trkpt lat="45.8803522959" lon="2.8116530087"><ele></ele><time>2013-8-16T18:22:1Z</time></trkpt>
<trkpt lat="45.8803610131" lon="2.8116283659"><ele></ele><time>2013-8-16T18:22:4Z</time></trkpt>
<trkpt lat="45.8803617675" lon="2.8116064053"><ele></ele><time>2013-8-16T18:22:7Z</time></trkpt>
<trkpt lat="45.8803585824" lon="2.8115800023"><ele></ele><time>2013-8-16T18:22:10Z</time></trkpt>
<trkpt lat="45.8803702332" lon="2.8115489054"><ele></ele><time>2013-8-16T18:22:13Z</time></trkpt>
<trkpt lat="45.8803731669" lon="2.8115196526"><ele></ele><time>2013-8-16T18:22:16Z</time></trkpt>
<trkpt lat="45.8803880867" lon="2.8114526812"><ele></ele><time>2013-8-16T18:22:19Z</time></trkpt>
<trkpt lat="45.8804009110" lon="2.8113465663"><ele></ele><time>2013-8-16T18:22:22Z</time></trkpt>
<trkpt lat="45.8804088738" lon="2.8112865519"><ele></ele><time>2013-8-16T18:22:25Z</time></trkpt>
<trkpt lat="45.8804057725" lon="2.8112316504"><ele></ele><time>2013-8-16T18:22:28Z</time></trkpt>
<trkpt lat="45.8804197703" lon="2.8111578897"><ele></ele><time>2013-8-16T18:22:31Z</time></trkpt>
<trkpt lat="45.8804512862" lon="2.8110346757"><ele></ele><time>2013-8-16T18:22:34Z</time></trkpt>
<trkpt lat="45.8804920223" lon="2.8109180834"><ele></ele><time>2013-8-16T18:22:37Z</time></trkpt>
<trkpt lat="45.8804952912" lon="2.8109027445"><ele></ele><time>2013-8-16T18:22:40Z</time></trkpt>
<trkpt lat="45.8805869892" lon="2.8108119685"><ele></ele><time>2013-8-16T18:22:43Z</time></trkpt>
<trkpt lat="45.8806770947" lon="2.8107323404"><ele></ele><time>2013-8-16T18:22:46Z</time></trkpt>
<trkpt lat="45.8806852251" lon="2.8107183427"><ele></ele><time>2013-8-16T18:22:49Z</time></trkpt>
<trkpt lat="45.8807427250" lon="2.8106292430"><ele></ele><time>2013-8-16T18:22:52Z</time></trkpt>
<trkpt lat="45.8807543758" lon="2.8105443344"><ele></ele><time>2013-8-16T18:22:55Z</time></trkpt>
<trkpt lat="45.8807536215" lon="2.8104440030"><ele></ele><time>2013-8-16T18:22:58Z</time></trkpt>
<trkpt lat="45.8807557169" lon="2.8104397282"><ele></ele><time>2013-8-16T18:23:1Z</time></trkpt>
<trkpt lat="45.8807874005" lon="2.8103036061"><ele></ele><time>2013-8-16T18:23:4Z</time></trkpt>
<trkpt lat="45.8808492590" lon="2.8100713436"><ele></ele><time>2013-8-16T18:23:7Z</time></trkpt>
<trkpt lat="45.8808816969" lon="2.8099030349"><ele></ele><time>2013-8-16T18:23:10Z</time></trkpt>
<trkpt lat="45.8808889892" lon="2.8098706808"><ele></ele><time>2013-8-16T18:23:13Z</time></trkpt>
<trkpt lat="45.8807330858" lon="2.8096486442"><ele></ele><time>2013-8-16T18:23:16Z</time></trkpt>
<trkpt lat="45.8806518652" lon="2.8096181341"><ele></ele><time>2013-8-16T18:23:19Z</time></trkpt>
<trkpt lat="45.8805415593" lon="2.8095531743"><ele></ele><time>2013-8-16T18:23:22Z</time></trkpt>
<trkpt lat="45.8805000689" lon="2.8095508274"><ele></ele><time>2013-8-16T18:23:25Z</time></trkpt>
<trkpt lat="45.8803923614" lon="2.8095611371"><ele></ele><time>2013-8-16T18:23:28Z</time></trkpt>
<trkpt lat="45.8802780323" lon="2.8096154518"><ele></ele><time>2013-8-16T18:23:31Z</time></trkpt>
<trkpt lat="45.8802344464" lon="2.8096525837"><ele></ele><time>2013-8-16T18:23:34Z</time></trkpt>
<trkpt lat="45.8801892679" lon="2.8096923977"><ele></ele><time>2013-8-16T18:23:37Z</time></trkpt>
<trkpt lat="45.8800015971" lon="2.8099108301"><ele></ele><time>2013-8-16T18:23:40Z</time></trkpt>
<trkpt lat="45.8799585979" lon="2.8099853452"><ele></ele><time>2013-8-16T18:23:43Z</time></trkpt>
<trkpt lat="45.8799228910" lon="2.8100662306"><ele></ele><time>2013-8-16T18:23:46Z</time></trkpt>
<trkpt lat="45.8798950631" lon="2.8101525642"><ele></ele><time>2013-8-16T18:23:49Z</time></trkpt>
<trkpt lat="45.8798761200" lon="2.8102425858"><ele></ele><time>2013-8-16T18:23:52Z</time></trkpt>
<trkpt lat="45.8798613679" lon="2.8103256505"><ele></ele><time>2013-8-16T18:23:55Z</time></trkpt>
<trkpt lat="45.8798426762" lon="2.8103963938"><ele></ele><time>2013-8-16T18:23:58Z</time></trkpt>
<trkpt lat="45.8798140101" lon="2.8104484454"><ele></ele><time>2013-8-16T18:24:1Z</time></trkpt>
<trkpt lat="45.8797785547" lon="2.8104780335"><ele></ele><time>2013-8-16T18:24:4Z</time></trkpt>
<trkpt lat="45.8797415905" lon="2.8104850743"><ele></ele><time>2013-8-16T18:24:7Z</time></trkpt>
<trkpt lat="45.8797098231" lon="2.8104783688"><ele></ele><time>2013-8-16T18:24:10Z</time></trkpt>
<trkpt lat="45.8796850126" lon="2.8104696516"><ele></ele><time>2013-8-16T18:24:13Z</time></trkpt>
<trkpt lat="45.8796612918" lon="2.8104660474"><ele></ele><time>2013-8-16T18:24:16Z</time></trkpt>
<trkpt lat="45.8796115033" lon="2.8104824759"><ele></ele><time>2013-8-16T18:24:19Z</time></trkpt>
<trkpt lat="45.8795900457" lon="2.8105055261"><ele></ele><time>2013-8-16T18:24:22Z</time></trkpt>
<trkpt lat="45.8794074878" lon="2.8109980468"><ele></ele><time>2013-8-16T18:24:25Z</time></trkpt>
<trkpt lat="45.8793934062" lon="2.8116324730"><ele></ele><time>2013-8-16T18:24:28Z</time></trkpt>
<trkpt lat="45.8795863576" lon="2.8122412506"><ele></ele><time>2013-8-16T18:24:31Z</time></trkpt>
<trkpt lat="45.8798877709" lon="2.8128234576"><ele></ele><time>2013-8-16T18:24:34Z</time></trkpt>
<trkpt lat="45.8801476937" lon="2.8132546227"><ele></ele><time>2013-8-16T18:24:37Z</time></trkpt>
<trkpt lat="45.8803276531" lon="2.8137136158"><ele></ele><time>2013-8-16T18:24:40Z</time></trkpt>
<trkpt lat="45.8804289903" lon="2.8141634725"><ele></ele><time>2013-8-16T18:24:43Z</time></trkpt>
<trkpt lat="45.8804833051" lon="2.8146744333"><ele></ele><time>2013-8-16T18:24:46Z</time></trkpt>
<trkpt lat="45.8804964647" lon="2.8149533831"><ele></ele><time>2013-8-16T18:24:49Z</time></trkpt>
<trkpt lat="45.8804952912" lon="2.8149744216"><ele></ele><time>2013-8-16T18:24:52Z</time></trkpt>
<trkpt lat="45.8804957941" lon="2.8149962984"><ele></ele><time>2013-8-16T18:24:55Z</time></trkpt>
<trkpt lat="45.8804954588" lon="2.8150197677"><ele></ele><time>2013-8-16T18:24:58Z</time></trkpt>
<trkpt lat="45.8804941177" lon="2.8150464222"><ele></ele><time>2013-8-16T18:25:1Z</time></trkpt>
<trkpt lat="45.8804940339" lon="2.8150778543"><ele></ele><time>2013-8-16T18:25:4Z</time></trkpt>
<trkpt lat="45.8804890886" lon="2.8154421318"><ele></ele><time>2013-8-16T18:25:7Z</time></trkpt>
<trkpt lat="45.8804771863" lon="2.8157001268"><ele></ele><time>2013-8-16T18:25:10Z</time></trkpt>
<trkpt lat="45.8804740012" lon="2.8157316428"><ele></ele><time>2013-8-16T18:25:13Z</time></trkpt>
<trkpt lat="45.8804719895" lon="2.8157624882"><ele></ele><time>2013-8-16T18:25:16Z</time></trkpt>
<trkpt lat="45.8804689720" lon="2.8157946747"><ele></ele><time>2013-8-16T18:25:19Z</time></trkpt>
<trkpt lat="45.8804664575" lon="2.8158225864"><ele></ele><time>2013-8-16T18:25:22Z</time></trkpt>
<trkpt lat="45.8804641105" lon="2.8158532642"><ele></ele><time>2013-8-16T18:25:25Z</time></trkpt>
<trkpt lat="45.8804621827" lon="2.8158846125"><ele></ele><time>2013-8-16T18:25:28Z</time></trkpt>
<trkpt lat="45.8804561477" lon="2.8159141168"><ele></ele><time>2013-8-16T18:25:31Z</time></trkpt>
<trkpt lat="45.8804519568" lon="2.8159442917"><ele></ele><time>2013-8-16T18:25:34Z</time></trkpt>
<trkpt lat="45.8804522920" lon="2.8159755562"><ele></ele><time>2013-8-16T18:25:37Z</time></trkpt>
<trkpt lat="45.8804588299" lon="2.8160044737"><ele></ele><time>2013-8-16T18:25:40Z</time></trkpt>
<trkpt lat="45.8804677986" lon="2.8160305414"><ele></ele><time>2013-8-16T18:25:43Z</time></trkpt>
<trkpt lat="45.8804709837" lon="2.8160560224"><ele></ele><time>2013-8-16T18:25:46Z</time></trkpt>
<trkpt lat="45.8804812934" lon="2.8160771448"><ele></ele><time>2013-8-16T18:25:49Z</time></trkpt>
<trkpt lat="45.8804887533" lon="2.8160992730"><ele></ele><time>2013-8-16T18:25:52Z</time></trkpt>
<trkpt lat="45.8804919384" lon="2.8161237482"><ele></ele><time>2013-8-16T18:25:55Z</time></trkpt>
<trkpt lat="45.8805032540" lon="2.8161454573"><ele></ele><time>2013-8-16T18:25:58Z</time></trkpt>
<trkpt lat="45.8804991469" lon="2.8161452897"><ele></ele><time>2013-8-16T18:26:1Z</time></trkpt>
<trkpt lat="45.8804990631" lon="2.8161447030"><ele></ele><time>2013-8-16T18:26:4Z</time></trkpt>
<trkpt lat="45.8805005718" lon="2.8161446191"><ele></ele><time>2013-8-16T18:26:7Z</time></trkpt>
<trkpt lat="45.8805004880" lon="2.8161443677"><ele></ele><time>2013-8-16T18:26:10Z</time></trkpt>
<trkpt lat="45.8804998174" lon="2.8161441162"><ele></ele><time>2013-8-16T18:26:13Z</time></trkpt>
<trkpt lat="45.8805002365" lon="2.8161440324"><ele></ele><time>2013-8-16T18:26:16Z</time></trkpt>
<trkpt lat="45.8805003203" lon="2.8161445353"><ele></ele><time>2013-8-16T18:26:19Z</time></trkpt>
<trkpt lat="45.8805008233" lon="2.8161456250"><ele></ele><time>2013-8-16T18:26:22Z</time></trkpt>
<trkpt lat="45.8805004042" lon="2.8161457926"><ele></ele><time>2013-8-16T18:26:25Z</time></trkpt>
<trkpt lat="45.8805004042" lon="2.8161459602"><ele></ele><time>2013-8-16T18:26:28Z</time></trkpt>
<trkpt lat="45.8805002365" lon="2.8161458764"><ele></ele><time>2013-8-16T18:26:31Z</time></trkpt>
<trkpt lat="45.8804998174" lon="2.8161455411"><ele></ele><time>2013-8-16T18:26:34Z</time></trkpt>
<trkpt lat="45.8804993145" lon="2.8161452897"><ele></ele><time>2013-8-16T18:26:37Z</time></trkpt>
<trkpt lat="45.8804986440" lon="2.8161454573"><ele></ele><time>2013-8-16T18:26:40Z</time></trkpt>
<trkpt lat="45.8804979734" lon="2.8161458764"><ele></ele><time>2013-8-16T18:26:43Z</time></trkpt>
<trkpt lat="45.8804973029" lon="2.8161463793"><ele></ele><time>2013-8-16T18:26:46Z</time></trkpt>
<trkpt lat="45.8804961294" lon="2.8161470499"><ele></ele><time>2013-8-16T18:26:49Z</time></trkpt>
<trkpt lat="45.8804956265" lon="2.8161466308"><ele></ele><time>2013-8-16T18:26:52Z</time></trkpt>
<trkpt lat="45.8804950397" lon="2.8161458764"><ele></ele><time>2013-8-16T18:26:55Z</time></trkpt>
<trkpt lat="45.8804946207" lon="2.8161454573"><ele></ele><time>2013-8-16T18:26:58Z</time></trkpt>
<trkpt lat="45.8804941177" lon="2.8161453735"><ele></ele><time>2013-8-16T18:27:1Z</time></trkpt>
<trkpt lat="45.8804937825" lon="2.8161457926"><ele></ele><time>2013-8-16T18:27:4Z</time></trkpt>
<trkpt lat="45.8804933634" lon="2.8161464632"><ele></ele><time>2013-8-16T18:27:7Z</time></trkpt>
<trkpt lat="45.8804935310" lon="2.8161460441"><ele></ele><time>2013-8-16T18:27:10Z</time></trkpt>
<trkpt lat="45.8804996498" lon="2.8161498159"><ele></ele><time>2013-8-16T18:27:13Z</time></trkpt>
<trkpt lat="45.8804994822" lon="2.8161479719"><ele></ele><time>2013-8-16T18:27:16Z</time></trkpt>
<trkpt lat="45.8804989792" lon="2.8161470499"><ele></ele><time>2013-8-16T18:27:19Z</time></trkpt>
<trkpt lat="45.8804988954" lon="2.8161468823"><ele></ele><time>2013-8-16T18:27:22Z</time></trkpt>
<trkpt lat="45.8804991469" lon="2.8161456250"><ele></ele><time>2013-8-16T18:27:25Z</time></trkpt>
<trkpt lat="45.8804953750" lon="2.8161452897"><ele></ele><time>2013-8-16T18:27:28Z</time></trkpt>
<trkpt lat="45.8804949559" lon="2.8161450382"><ele></ele><time>2013-8-16T18:27:31Z</time></trkpt>
<trkpt lat="45.8804942854" lon="2.8161445353"><ele></ele><time>2013-8-16T18:27:34Z</time></trkpt>
<trkpt lat="45.8804935310" lon="2.8161423560"><ele></ele><time>2013-8-16T18:27:37Z</time></trkpt>
<trkpt lat="45.8804934472" lon="2.8161423560"><ele></ele><time>2013-8-16T18:27:40Z</time></trkpt>
<trkpt lat="45.8804933634" lon="2.8161423560"><ele></ele><time>2013-8-16T18:27:43Z</time></trkpt>
<trkpt lat="45.8804934472" lon="2.8161429428"><ele></ele><time>2013-8-16T18:27:46Z</time></trkpt>
<trkpt lat="45.8804934472" lon="2.8161433619"><ele></ele><time>2013-8-16T18:27:49Z</time></trkpt>
<trkpt lat="45.8804933634" lon="2.8161435295"><ele></ele><time>2013-8-16T18:27:52Z</time></trkpt>
<trkpt lat="45.8804931957" lon="2.8161436971"><ele></ele><time>2013-8-16T18:27:55Z</time></trkpt>
<trkpt lat="45.8804930281" lon="2.8161435295"><ele></ele><time>2013-8-16T18:27:58Z</time></trkpt>
<trkpt lat="45.8804928605" lon="2.8161437809"><ele></ele><time>2013-8-16T18:28:1Z</time></trkpt>
<trkpt lat="45.8804926928" lon="2.8161433619"><ele></ele><time>2013-8-16T18:28:4Z</time></trkpt>
<trkpt lat="45.8804926928" lon="2.8161426913"><ele></ele><time>2013-8-16T18:28:7Z</time></trkpt>
<trkpt lat="45.8804926928" lon="2.8161424398"><ele></ele><time>2013-8-16T18:28:10Z</time></trkpt>
<trkpt lat="45.8804932795" lon="2.8161423560"><ele></ele><time>2013-8-16T18:28:13Z</time></trkpt>
<trkpt lat="45.8804945368" lon="2.8161427751"><ele></ele><time>2013-8-16T18:28:16Z</time></trkpt>
<trkpt lat="45.8805013262" lon="2.8161404282"><ele></ele><time>2013-8-16T18:28:19Z</time></trkpt>
<trkpt lat="45.8805012424" lon="2.8161405120"><ele></ele><time>2013-8-16T18:28:22Z</time></trkpt>
<trkpt lat="45.8805020805" lon="2.8161416017"><ele></ele><time>2013-8-16T18:28:25Z</time></trkpt>
<trkpt lat="45.8805031702" lon="2.8161436971"><ele></ele><time>2013-8-16T18:28:28Z</time></trkpt>
<trkpt lat="45.8805030026" lon="2.8161444515"><ele></ele><time>2013-8-16T18:28:31Z</time></trkpt>
<trkpt lat="45.8805019129" lon="2.8161446191"><ele></ele><time>2013-8-16T18:28:34Z</time></trkpt>
<trkpt lat="45.8805008233" lon="2.8161442839"><ele></ele><time>2013-8-16T18:28:37Z</time></trkpt>
<trkpt lat="45.8804996498" lon="2.8161428589"><ele></ele><time>2013-8-16T18:28:40Z</time></trkpt>
<trkpt lat="45.8804994822" lon="2.8161429428"><ele></ele><time>2013-8-16T18:28:43Z</time></trkpt>
<trkpt lat="45.8804993983" lon="2.8161426913"><ele></ele><time>2013-8-16T18:28:46Z</time></trkpt>
<trkpt lat="45.8804993983" lon="2.8161423560"><ele></ele><time>2013-8-16T18:28:49Z</time></trkpt>
<trkpt lat="45.8804998174" lon="2.8161416017"><ele></ele><time>2013-8-16T18:28:52Z</time></trkpt>
<trkpt lat="45.8805006556" lon="2.8161403444"><ele></ele><time>2013-8-16T18:28:55Z</time></trkpt>
<trkpt lat="45.8805013262" lon="2.8161351476"><ele></ele><time>2013-8-16T18:28:58Z</time></trkpt>
<trkpt lat="45.8805010747" lon="2.8161347285"><ele></ele><time>2013-8-16T18:29:1Z</time></trkpt>
<trkpt lat="45.8805002365" lon="2.8161345609"><ele></ele><time>2013-8-16T18:29:4Z</time></trkpt>
<trkpt lat="45.8804999851" lon="2.8161344770"><ele></ele><time>2013-8-16T18:29:7Z</time></trkpt>
<trkpt lat="45.8805004880" lon="2.8161346447"><ele></ele><time>2013-8-16T18:29:10Z</time></trkpt>
<trkpt lat="45.8805003203" lon="2.8161349799"><ele></ele><time>2013-8-16T18:29:13Z</time></trkpt>
<trkpt lat="45.8805004042" lon="2.8161349799"><ele></ele><time>2013-8-16T18:29:16Z</time></trkpt>
<trkpt lat="45.8805005718" lon="2.8161349799"><ele></ele><time>2013-8-16T18:29:19Z</time></trkpt>
<trkpt lat="45.8805009071" lon="2.8161348961"><ele></ele><time>2013-8-16T18:29:22Z</time></trkpt>
<trkpt lat="45.8805011585" lon="2.8161345609"><ele></ele><time>2013-8-16T18:29:25Z</time></trkpt>
<trkpt lat="45.8805079479" lon="2.8160959203"><ele></ele><time>2013-8-16T18:29:28Z</time></trkpt>
<trkpt lat="45.8805138990" lon="2.8160779830"><ele></ele><time>2013-8-16T18:29:31Z</time></trkpt>
<trkpt lat="45.8805405535" lon="2.8160008695"><ele></ele><time>2013-8-16T18:29:34Z</time></trkpt>
<trkpt lat="45.8805513661" lon="2.8159667552"><ele></ele><time>2013-8-16T18:29:37Z</time></trkpt>
<trkpt lat="45.8805571496" lon="2.8159451298"><ele></ele><time>2013-8-16T18:29:40Z</time></trkpt>
<trkpt lat="45.8805664536" lon="2.8159269411"><ele></ele><time>2013-8-16T18:29:43Z</time></trkpt>
<trkpt lat="45.8805746678" lon="2.8159095906"><ele></ele><time>2013-8-16T18:29:46Z</time></trkpt>
<trkpt lat="45.8805802837" lon="2.8158894740"><ele></ele><time>2013-8-16T18:29:49Z</time></trkpt>
<trkpt lat="45.8805845585" lon="2.8158701118"><ele></ele><time>2013-8-16T18:29:52Z</time></trkpt>
<trkpt lat="45.8805888332" lon="2.8158504143"><ele></ele><time>2013-8-16T18:29:55Z</time></trkpt>
<trkpt lat="45.8805933595" lon="2.8158291243"><ele></ele><time>2013-8-16T18:29:58Z</time></trkpt>
<trkpt lat="45.8806004841" lon="2.8158121929"><ele></ele><time>2013-8-16T18:30:1Z</time></trkpt>
<trkpt lat="45.8806077763" lon="2.8157937527"><ele></ele><time>2013-8-16T18:30:4Z</time></trkpt>
<trkpt lat="45.8806117997" lon="2.8157689422"><ele></ele><time>2013-8-16T18:30:7Z</time></trkpt>
<trkpt lat="45.8806154877" lon="2.8157463111"><ele></ele><time>2013-8-16T18:30:10Z</time></trkpt>
<trkpt lat="45.8806741610" lon="2.8155045770"><ele></ele><time>2013-8-16T18:30:13Z</time></trkpt>
<trkpt lat="45.8807169925" lon="2.8154464066"><ele></ele><time>2013-8-16T18:30:16Z</time></trkpt>
<trkpt lat="45.8808172401" lon="2.8153367713"><ele></ele><time>2013-8-16T18:30:19Z</time></trkpt>
<trkpt lat="45.8808938507" lon="2.8152437322"><ele></ele><time>2013-8-16T18:30:22Z</time></trkpt>
<trkpt lat="45.8809238579" lon="2.8151998110"><ele></ele><time>2013-8-16T18:30:25Z</time></trkpt>
<trkpt lat="45.8809243608" lon="2.8152022418"><ele></ele><time>2013-8-16T18:30:28Z</time></trkpt>
<trkpt lat="45.8809241094" lon="2.8152024094"><ele></ele><time>2013-8-16T18:30:31Z</time></trkpt>
<trkpt lat="45.8809239417" lon="2.8152029961"><ele></ele><time>2013-8-16T18:30:34Z</time></trkpt>
<trkpt lat="45.8809234388" lon="2.8152022418"><ele></ele><time>2013-8-16T18:30:37Z</time></trkpt>
<trkpt lat="45.8809232712" lon="2.8152016550"><ele></ele><time>2013-8-16T18:30:40Z</time></trkpt>
<trkpt lat="45.8809231035" lon="2.8152006492"><ele></ele><time>2013-8-16T18:30:43Z</time></trkpt>
<trkpt lat="45.8809236065" lon="2.8151982184"><ele></ele><time>2013-8-16T18:30:46Z</time></trkpt>
<trkpt lat="45.8809234388" lon="2.8151981346"><ele></ele><time>2013-8-16T18:30:49Z</time></trkpt>
<trkpt lat="45.8809222654" lon="2.8151955362"><ele></ele><time>2013-8-16T18:30:52Z</time></trkpt>
<trkpt lat="45.8809211757" lon="2.8151939437"><ele></ele><time>2013-8-16T18:30:55Z</time></trkpt>
<trkpt lat="45.8809215110" lon="2.8151927702"><ele></ele><time>2013-8-16T18:30:58Z</time></trkpt>
<trkpt lat="45.8809226006" lon="2.8151919320"><ele></ele><time>2013-8-16T18:31:1Z</time></trkpt>
<trkpt lat="45.8809236065" lon="2.8151923511"><ele></ele><time>2013-8-16T18:31:4Z</time></trkpt>
<trkpt lat="45.8809251152" lon="2.8151924349"><ele></ele><time>2013-8-16T18:31:7Z</time></trkpt>
<trkpt lat="45.8809259534" lon="2.8151921835"><ele></ele><time>2013-8-16T18:31:10Z</time></trkpt>
<trkpt lat="45.8809268754" lon="2.8151920997"><ele></ele><time>2013-8-16T18:31:13Z</time></trkpt>
<trkpt lat="45.8809271269" lon="2.8151920997"><ele></ele><time>2013-8-16T18:31:16Z</time></trkpt>
<trkpt lat="45.8809275459" lon="2.8151921835"><ele></ele><time>2013-8-16T18:31:19Z</time></trkpt>
<trkpt lat="45.8809281327" lon="2.8151922673"><ele></ele><time>2013-8-16T18:31:22Z</time></trkpt>
<trkpt lat="45.8809281327" lon="2.8151921835"><ele></ele><time>2013-8-16T18:31:25Z</time></trkpt>
<trkpt lat="45.8809288032" lon="2.8151928540"><ele></ele><time>2013-8-16T18:31:28Z</time></trkpt>
<trkpt lat="45.8809290547" lon="2.8151931055"><ele></ele><time>2013-8-16T18:31:31Z</time></trkpt>
<trkpt lat="45.8809329942" lon="2.8151973803"><ele></ele><time>2013-8-16T18:31:34Z</time></trkpt>
<trkpt lat="45.8809490874" lon="2.8152029123"><ele></ele><time>2013-8-16T18:31:37Z</time></trkpt>
<trkpt lat="45.8810279611" lon="2.8153055068"><ele></ele><time>2013-8-16T18:31:40Z</time></trkpt>
<trkpt lat="45.8811410330" lon="2.8154611588"><ele></ele><time>2013-8-16T18:31:43Z</time></trkpt>
<trkpt lat="45.8811616525" lon="2.8154708818"><ele></ele><time>2013-8-16T18:31:46Z</time></trkpt>
<trkpt lat="45.8812935837" lon="2.8155186586"><ele></ele><time>2013-8-16T18:31:49Z</time></trkpt>
<trkpt lat="45.8813222498" lon="2.8154888190"><ele></ele><time>2013-8-16T18:31:52Z</time></trkpt>
<trkpt lat="45.8813467249" lon="2.8154759947"><ele></ele><time>2013-8-16T18:31:55Z</time></trkpt>
<trkpt lat="45.8813748881" lon="2.8154740669"><ele></ele><time>2013-8-16T18:31:58Z</time></trkpt>
<trkpt lat="45.8814002015" lon="2.8154700436"><ele></ele><time>2013-8-16T18:32:1Z</time></trkpt>
<trkpt lat="45.8814135287" lon="2.8154594824"><ele></ele><time>2013-8-16T18:32:4Z</time></trkpt>
<trkpt lat="45.8815477230" lon="2.8154280502"><ele></ele><time>2013-8-16T18:32:7Z</time></trkpt>
<trkpt lat="45.8818164468" lon="2.8153585643"><ele></ele><time>2013-8-16T18:32:10Z</time></trkpt>
<trkpt lat="45.8819104079" lon="2.8153115418"><ele></ele><time>2013-8-16T18:32:13Z</time></trkpt>
<trkpt lat="45.8819848392" lon="2.8152933531"><ele></ele><time>2013-8-16T18:32:16Z</time></trkpt>
<trkpt lat="45.8820401598" lon="2.8152940236"><ele></ele><time>2013-8-16T18:32:19Z</time></trkpt>
<trkpt lat="45.8821392339" lon="2.8152953647"><ele></ele><time>2013-8-16T18:32:22Z</time></trkpt>
<trkpt lat="45.8821735159" lon="2.8153182473"><ele></ele><time>2013-8-16T18:32:25Z</time></trkpt>
<trkpt lat="45.8822336141" lon="2.8153287247"><ele></ele><time>2013-8-16T18:32:28Z</time></trkpt>
<trkpt lat="45.8822976518" lon="2.8153501824"><ele></ele><time>2013-8-16T18:32:31Z</time></trkpt>
<trkpt lat="45.8823345322" lon="2.8153210133"><ele></ele><time>2013-8-16T18:32:34Z</time></trkpt>
<trkpt lat="45.8823749330" lon="2.8153018188"><ele></ele><time>2013-8-16T18:32:37Z</time></trkpt>
<trkpt lat="45.8823770285" lon="2.8153022379"><ele></ele><time>2013-8-16T18:32:40Z</time></trkpt>
<trkpt lat="45.8823935408" lon="2.8153024055"><ele></ele><time>2013-8-16T18:32:43Z</time></trkpt>
<trkpt lat="45.8824556507" lon="2.8152800258"><ele></ele><time>2013-8-16T18:32:46Z</time></trkpt>
<trkpt lat="45.8825194370" lon="2.8152442351"><ele></ele><time>2013-8-16T18:32:49Z</time></trkpt>
<trkpt lat="45.8825400565" lon="2.8152279742"><ele></ele><time>2013-8-16T18:32:52Z</time></trkpt>
<trkpt lat="45.8826062735" lon="2.8151513636"><ele></ele><time>2013-8-16T18:32:55Z</time></trkpt>
<trkpt lat="45.8826038428" lon="2.8151411377"><ele></ele><time>2013-8-16T18:32:58Z</time></trkpt>
<trkpt lat="45.8826269768" lon="2.8151149862"><ele></ele><time>2013-8-16T18:33:1Z</time></trkpt>
<trkpt lat="45.8826270606" lon="2.8150776029"><ele></ele><time>2013-8-16T18:33:4Z</time></trkpt>
<trkpt lat="45.8826729935" lon="2.8150055185"><ele></ele><time>2013-8-16T18:33:7Z</time></trkpt>
<trkpt lat="45.8828819543" lon="2.8149527963"><ele></ele><time>2013-8-16T18:33:10Z</time></trkpt>
<trkpt lat="45.8830249496" lon="2.8147816379"><ele></ele><time>2013-8-16T18:33:13Z</time></trkpt>
<trkpt lat="45.8832422923" lon="2.8146003373"><ele></ele><time>2013-8-16T18:33:16Z</time></trkpt>
<trkpt lat="45.8832466509" lon="2.8145886865"><ele></ele><time>2013-8-16T18:33:19Z</time></trkpt>
<trkpt lat="45.8835200686" lon="2.8143739421"><ele></ele><time>2013-8-16T18:33:22Z</time></trkpt>
<trkpt lat="45.8836682606" lon="2.8142239060"><ele></ele><time>2013-8-16T18:33:25Z</time></trkpt>
<trkpt lat="45.8838103339" lon="2.8140186332"><ele></ele><time>2013-8-16T18:33:28Z</time></trkpt>
<trkpt lat="45.8838862740" lon="2.8138700221"><ele></ele><time>2013-8-16T18:33:31Z</time></trkpt>
<trkpt lat="45.8839516528" lon="2.8138137795"><ele></ele><time>2013-8-16T18:33:34Z</time></trkpt>
<trkpt lat="45.8840064704" lon="2.8137340676"><ele></ele><time>2013-8-16T18:33:37Z</time></trkpt>
<trkpt lat="45.8840293530" lon="2.8137111850"><ele></ele><time>2013-8-16T18:33:40Z</time></trkpt>
<trkpt lat="45.8841047063" lon="2.8135132045"><ele></ele><time>2013-8-16T18:33:43Z</time></trkpt>
<trkpt lat="45.8841103222" lon="2.8134928364"><ele></ele><time>2013-8-16T18:33:46Z</time></trkpt>
<trkpt lat="45.8841690794" lon="2.8133492544"><ele></ele><time>2013-8-16T18:33:49Z</time></trkpt>
<trkpt lat="45.8842083067" lon="2.8132054210"><ele></ele><time>2013-8-16T18:33:52Z</time></trkpt>
<trkpt lat="45.8843178581" lon="2.8130800277"><ele></ele><time>2013-8-16T18:33:55Z</time></trkpt>
<trkpt lat="45.8844003361" lon="2.8130128048"><ele></ele><time>2013-8-16T18:33:58Z</time></trkpt>
<trkpt lat="45.8844621945" lon="2.8128631879"><ele></ele><time>2013-8-16T18:34:1Z</time></trkpt>
<trkpt lat="45.8844664693" lon="2.8128491063"><ele></ele><time>2013-8-16T18:34:4Z</time></trkpt>
<trkpt lat="45.8845228795" lon="2.8127072006"><ele></ele><time>2013-8-16T18:34:7Z</time></trkpt>
<trkpt lat="45.8846833929" lon="2.8123694938"><ele></ele><time>2013-8-16T18:34:10Z</time></trkpt>
<trkpt lat="45.8848006558" lon="2.8121717647"><ele></ele><time>2013-8-16T18:34:13Z</time></trkpt>
<trkpt lat="45.8848175872" lon="2.8121163603"><ele></ele><time>2013-8-16T18:34:16Z</time></trkpt>
<trkpt lat="45.8848518692" lon="2.8120220639"><ele></ele><time>2013-8-16T18:34:19Z</time></trkpt>
<trkpt lat="45.8849365264" lon="2.8117149509"><ele></ele><time>2013-8-16T18:34:22Z</time></trkpt>
<trkpt lat="45.8849905059" lon="2.8113745619"><ele></ele><time>2013-8-16T18:34:25Z</time></trkpt>
<trkpt lat="45.8850502688" lon="2.8110783454"><ele></ele><time>2013-8-16T18:34:28Z</time></trkpt>
<trkpt lat="45.8850509394" lon="2.8107290715"><ele></ele><time>2013-8-16T18:34:31Z</time></trkpt>
<trkpt lat="45.8850172441" lon="2.8106110543"><ele></ele><time>2013-8-16T18:34:34Z</time></trkpt>
<trkpt lat="45.8849857282" lon="2.8105102200"><ele></ele><time>2013-8-16T18:34:37Z</time></trkpt>
<trkpt lat="45.8849918470" lon="2.8104191087"><ele></ele><time>2013-8-16T18:34:40Z</time></trkpt>
<trkpt lat="45.8850182500" lon="2.8103430849"><ele></ele><time>2013-8-16T18:34:43Z</time></trkpt>
<trkpt lat="45.8850221895" lon="2.8103355411"><ele></ele><time>2013-8-16T18:34:46Z</time></trkpt>
<trkpt lat="45.8849724010" lon="2.8102605231"><ele></ele><time>2013-8-16T18:34:49Z</time></trkpt>
<trkpt lat="45.8849017415" lon="2.8100481257"><ele></ele><time>2013-8-16T18:34:52Z</time></trkpt>
<trkpt lat="45.8848926052" lon="2.8100296855"><ele></ele><time>2013-8-16T18:34:55Z</time></trkpt>
<trkpt lat="45.8848759253" lon="2.8099814057"><ele></ele><time>2013-8-16T18:34:58Z</time></trkpt>
<trkpt lat="45.8848835528" lon="2.8099094052"><ele></ele><time>2013-8-16T18:35:1Z</time></trkpt>
<trkpt lat="45.8848097920" lon="2.8097523283"><ele></ele><time>2013-8-16T18:35:4Z</time></trkpt>
<trkpt lat="45.8847731631" lon="2.8096601274"><ele></ele><time>2013-8-16T18:35:7Z</time></trkpt>
<trkpt lat="45.8846526314" lon="2.8094774857"><ele></ele><time>2013-8-16T18:35:10Z</time></trkpt>
<trkpt lat="45.8845538925" lon="2.8093367536"><ele></ele><time>2013-8-16T18:35:13Z</time></trkpt>
<trkpt lat="45.8844988234" lon="2.8092335723"><ele></ele><time>2013-8-16T18:35:16Z</time></trkpt>
<trkpt lat="45.8844082151" lon="2.8090593126"><ele></ele><time>2013-8-16T18:35:19Z</time></trkpt>
<trkpt lat="45.8843881823" lon="2.8090231027"><ele></ele><time>2013-8-16T18:35:22Z</time></trkpt>
<trkpt lat="45.8843212109" lon="2.8088837955"><ele></ele><time>2013-8-16T18:35:25Z</time></trkpt>
<trkpt lat="45.8842699975" lon="2.8087871522"><ele></ele><time>2013-8-16T18:35:28Z</time></trkpt>
<trkpt lat="45.8841622062" lon="2.8086794447"><ele></ele><time>2013-8-16T18:35:31Z</time></trkpt>
<trkpt lat="45.8840896189" lon="2.8086186759"><ele></ele><time>2013-8-16T18:35:34Z</time></trkpt>
<trkpt lat="45.8840355556" lon="2.8085755091"><ele></ele><time>2013-8-16T18:35:37Z</time></trkpt>
<trkpt lat="45.8839221485" lon="2.8085059393"><ele></ele><time>2013-8-16T18:35:40Z</time></trkpt>
<trkpt lat="45.8837527502" lon="2.8083609324"><ele></ele><time>2013-8-16T18:35:43Z</time></trkpt>
<trkpt lat="45.8835927397" lon="2.8082367126"><ele></ele><time>2013-8-16T18:35:46Z</time></trkpt>
<trkpt lat="45.8834166359" lon="2.8080834076"><ele></ele><time>2013-8-16T18:35:49Z</time></trkpt>
<trkpt lat="45.8833880536" lon="2.8080510534"><ele></ele><time>2013-8-16T18:35:52Z</time></trkpt>
<trkpt lat="45.8833474014" lon="2.8079701681"><ele></ele><time>2013-8-16T18:35:55Z</time></trkpt>
<trkpt lat="45.8832680248" lon="2.8078995086"><ele></ele><time>2013-8-16T18:35:58Z</time></trkpt>
<trkpt lat="45.8831536118" lon="2.8076895420"><ele></ele><time>2013-8-16T18:36:1Z</time></trkpt>
<trkpt lat="45.8831168991" lon="2.8075802419"><ele></ele><time>2013-8-16T18:36:4Z</time></trkpt>
<trkpt lat="45.8830759116" lon="2.8074141126"><ele></ele><time>2013-8-16T18:36:7Z</time></trkpt>
<trkpt lat="45.8830790129" lon="2.8071849514"><ele></ele><time>2013-8-16T18:36:10Z</time></trkpt>
<trkpt lat="45.8831350040" lon="2.8071105201"><ele></ele><time>2013-8-16T18:36:13Z</time></trkpt>
<trkpt lat="45.8831926715" lon="2.8070357535"><ele></ele><time>2013-8-16T18:36:16Z</time></trkpt>
<trkpt lat="45.8832442202" lon="2.8070019744"><ele></ele><time>2013-8-16T18:36:19Z</time></trkpt>
<trkpt lat="45.8833432104" lon="2.8069337457"><ele></ele><time>2013-8-16T18:36:22Z</time></trkpt>
<trkpt lat="45.8834244311" lon="2.8068892378"><ele></ele><time>2013-8-16T18:36:25Z</time></trkpt>
<trkpt lat="45.8835585415" lon="2.8068293072"><ele></ele><time>2013-8-16T18:36:28Z</time></trkpt>
<trkpt lat="45.8836102579" lon="2.8068056703"><ele></ele><time>2013-8-16T18:36:31Z</time></trkpt>
<trkpt lat="45.8837675862" lon="2.8067055903"><ele></ele><time>2013-8-16T18:36:34Z</time></trkpt>
<trkpt lat="45.8838195540" lon="2.8065876570"><ele></ele><time>2013-8-16T18:36:37Z</time></trkpt>
<trkpt lat="45.8838890400" lon="2.8064524569"><ele></ele><time>2013-8-16T18:36:40Z</time></trkpt>
<trkpt lat="45.8840612881" lon="2.8062792867"><ele></ele><time>2013-8-16T18:36:43Z</time></trkpt>
<trkpt lat="45.8842392359" lon="2.8059704136"><ele></ele><time>2013-8-16T18:36:46Z</time></trkpt>
<trkpt lat="45.8842725120" lon="2.8058850020"><ele></ele><time>2013-8-16T18:36:49Z</time></trkpt>
<trkpt lat="45.8843045309" lon="2.8057569265"><ele></ele><time>2013-8-16T18:36:52Z</time></trkpt>
<trkpt lat="45.8843151759" lon="2.8057200462"><ele></ele><time>2013-8-16T18:36:55Z</time></trkpt>
<trkpt lat="45.8843395673" lon="2.8055930603"><ele></ele><time>2013-8-16T18:36:58Z</time></trkpt>
<trkpt lat="45.8844042756" lon="2.8052034695"><ele></ele><time>2013-8-16T18:37:1Z</time></trkpt>
<trkpt lat="45.8844046947" lon="2.8047583904"><ele></ele><time>2013-8-16T18:37:4Z</time></trkpt>
<trkpt lat="45.8843880147" lon="2.8046613280"><ele></ele><time>2013-8-16T18:37:7Z</time></trkpt>
<trkpt lat="45.8843268268" lon="2.8045046702"><ele></ele><time>2013-8-16T18:37:10Z</time></trkpt>
<trkpt lat="45.8842215501" lon="2.8043184243"><ele></ele><time>2013-8-16T18:37:13Z</time></trkpt>
<trkpt lat="45.8841196261" lon="2.8042170871"><ele></ele><time>2013-8-16T18:37:16Z</time></trkpt>
<trkpt lat="45.8840192109" lon="2.8040976450"><ele></ele><time>2013-8-16T18:37:19Z</time></trkpt>
<trkpt lat="45.8840010222" lon="2.8040642850"><ele></ele><time>2013-8-16T18:37:22Z</time></trkpt>
<trkpt lat="45.8839228190" lon="2.8039564099"><ele></ele><time>2013-8-16T18:37:25Z</time></trkpt>
<trkpt lat="45.8838899620" lon="2.8039091360"><ele></ele><time>2013-8-16T18:37:28Z</time></trkpt>
<trkpt lat="45.8837870322" lon="2.8037472814"><ele></ele><time>2013-8-16T18:37:31Z</time></trkpt>
<trkpt lat="45.8837542590" lon="2.8037147596"><ele></ele><time>2013-8-16T18:37:34Z</time></trkpt>
<trkpt lat="45.8836903051" lon="2.8036060464"><ele></ele><time>2013-8-16T18:37:37Z</time></trkpt>
<trkpt lat="45.8836742956" lon="2.8034451138"><ele></ele><time>2013-8-16T18:37:40Z</time></trkpt>
<trkpt lat="45.8836965915" lon="2.8032850195"><ele></ele><time>2013-8-16T18:37:43Z</time></trkpt>
<trkpt lat="45.8837354835" lon="2.8031846881"><ele></ele><time>2013-8-16T18:37:46Z</time></trkpt>
<trkpt lat="45.8837958332" lon="2.8030648269"><ele></ele><time>2013-8-16T18:37:49Z</time></trkpt>
<trkpt lat="45.8838369884" lon="2.8029895574"><ele></ele><time>2013-8-16T18:37:52Z</time></trkpt>
<trkpt lat="45.8840116672" lon="2.8030158766"><ele></ele><time>2013-8-16T18:37:55Z</time></trkpt>
<trkpt lat="45.8841175307" lon="2.8030784894"><ele></ele><time>2013-8-16T18:37:58Z</time></trkpt>
<trkpt lat="45.8841466997" lon="2.8031160403"><ele></ele><time>2013-8-16T18:38:1Z</time></trkpt>
<trkpt lat="45.8841731865" lon="2.8031712770"><ele></ele><time>2013-8-16T18:38:4Z</time></trkpt>
<trkpt lat="45.8842036966" lon="2.8032328002"><ele></ele><time>2013-8-16T18:38:7Z</time></trkpt>
<trkpt lat="45.8842770383" lon="2.8033072315"><ele></ele><time>2013-8-16T18:38:10Z</time></trkpt>
<trkpt lat="45.8845040202" lon="2.8035213891"><ele></ele><time>2013-8-16T18:38:13Z</time></trkpt>
<trkpt lat="45.8847646974" lon="2.8037956450"><ele></ele><time>2013-8-16T18:38:16Z</time></trkpt>
<trkpt lat="45.8849338442" lon="2.8039688990"><ele></ele><time>2013-8-16T18:38:19Z</time></trkpt>
<trkpt lat="45.8850263804" lon="2.8040401451"><ele></ele><time>2013-8-16T18:38:22Z</time></trkpt>
<trkpt lat="45.8850444015" lon="2.8040588368"><ele></ele><time>2013-8-16T18:38:25Z</time></trkpt>
<trkpt lat="45.8850873169" lon="2.8040997405"><ele></ele><time>2013-8-16T18:38:28Z</time></trkpt>
<trkpt lat="45.8851782605" lon="2.8042631038"><ele></ele><time>2013-8-16T18:38:31Z</time></trkpt>
<trkpt lat="45.8852281328" lon="2.8043357749"><ele></ele><time>2013-8-16T18:38:34Z</time></trkpt>
<trkpt lat="45.8852847107" lon="2.8044120502"><ele></ele><time>2013-8-16T18:38:37Z</time></trkpt>
<trkpt lat="45.8854478225" lon="2.8045630921"><ele></ele><time>2013-8-16T18:38:40Z</time></trkpt>
<trkpt lat="45.8855328988" lon="2.8046703804"><ele></ele><time>2013-8-16T18:38:43Z</time></trkpt>
<trkpt lat="45.8855568711" lon="2.8047008067"><ele></ele><time>2013-8-16T18:38:46Z</time></trkpt>
<trkpt lat="45.8855669294" lon="2.8047313169"><ele></ele><time>2013-8-16T18:38:49Z</time></trkpt>
<trkpt lat="45.8856174722" lon="2.8047961928"><ele></ele><time>2013-8-16T18:38:52Z</time></trkpt>
<trkpt lat="45.8859134372" lon="2.8050337359"><ele></ele><time>2013-8-16T18:38:55Z</time></trkpt>
<trkpt lat="45.8860882837" lon="2.8051521722"><ele></ele><time>2013-8-16T18:38:58Z</time></trkpt>
<trkpt lat="45.8860869426" lon="2.8051367495"><ele></ele><time>2013-8-16T18:39:1Z</time></trkpt>
<trkpt lat="45.8860809077" lon="2.8051164653"><ele></ele><time>2013-8-16T18:39:4Z</time></trkpt>
<trkpt lat="45.8861141000" lon="2.8051472269"><ele></ele><time>2013-8-16T18:39:7Z</time></trkpt>
<trkpt lat="45.8861614577" lon="2.8051975183"><ele></ele><time>2013-8-16T18:39:10Z</time></trkpt>
<trkpt lat="45.8861815743" lon="2.8052086663"><ele></ele><time>2013-8-16T18:39:13Z</time></trkpt>
<trkpt lat="45.8862679917" lon="2.8052587062"><ele></ele><time>2013-8-16T18:39:16Z</time></trkpt>
<trkpt lat="45.8863317780" lon="2.8052841872"><ele></ele><time>2013-8-16T18:39:19Z</time></trkpt>
<trkpt lat="45.8864009287" lon="2.8053081594"><ele></ele><time>2013-8-16T18:39:22Z</time></trkpt>
<trkpt lat="45.8864309359" lon="2.8053524997"><ele></ele><time>2013-8-16T18:39:25Z</time></trkpt>
<trkpt lat="45.8864580933" lon="2.8053877037"><ele></ele><time>2013-8-16T18:39:28Z</time></trkpt>
<trkpt lat="45.8866169304" lon="2.8054528311"><ele></ele><time>2013-8-16T18:39:31Z</time></trkpt>
<trkpt lat="45.8867122326" lon="2.8055055533"><ele></ele><time>2013-8-16T18:39:34Z</time></trkpt>
<trkpt lat="45.8867279906" lon="2.8055229876"><ele></ele><time>2013-8-16T18:39:37Z</time></trkpt>
<trkpt lat="45.8870339300" lon="2.8055994306"><ele></ele><time>2013-8-16T18:39:40Z</time></trkpt>
<trkpt lat="45.8873231057" lon="2.8056849260"><ele></ele><time>2013-8-16T18:39:43Z</time></trkpt>
<trkpt lat="45.8874255326" lon="2.8057370614"><ele></ele><time>2013-8-16T18:39:46Z</time></trkpt>
<trkpt lat="45.8876257762" lon="2.8057988361"><ele></ele><time>2013-8-16T18:39:49Z</time></trkpt>
<trkpt lat="45.8877631556" lon="2.8058326989"><ele></ele><time>2013-8-16T18:39:52Z</time></trkpt>
<trkpt lat="45.8879935741" lon="2.8058633767"><ele></ele><time>2013-8-16T18:39:55Z</time></trkpt>
<trkpt lat="45.8880333882" lon="2.8058877680"><ele></ele><time>2013-8-16T18:39:58Z</time></trkpt>
<trkpt lat="45.8882666565" lon="2.8058216348"><ele></ele><time>2013-8-16T18:40:1Z</time></trkpt>
<trkpt lat="45.8884559199" lon="2.8057614528"><ele></ele><time>2013-8-16T18:40:4Z</time></trkpt>
<trkpt lat="45.8886333648" lon="2.8056675754"><ele></ele><time>2013-8-16T18:40:7Z</time></trkpt>
<trkpt lat="45.8887303434" lon="2.8055858519"><ele></ele><time>2013-8-16T18:40:10Z</time></trkpt>
<trkpt lat="45.8887686487" lon="2.8055508994"><ele></ele><time>2013-8-16T18:40:13Z</time></trkpt>
<trkpt lat="45.8888645377" lon="2.8054613806"><ele></ele><time>2013-8-16T18:40:16Z</time></trkpt>
<trkpt lat="45.8889357839" lon="2.8054165374"><ele></ele><time>2013-8-16T18:40:19Z</time></trkpt>
<trkpt lat="45.8890417311" lon="2.8053676710"><ele></ele><time>2013-8-16T18:40:22Z</time></trkpt>
<trkpt lat="45.8892278094" lon="2.8051094245"><ele></ele><time>2013-8-16T18:40:25Z</time></trkpt>
<trkpt lat="45.8893118799" lon="2.8049602266"><ele></ele><time>2013-8-16T18:40:28Z</time></trkpt>
<trkpt lat="45.8893910889" lon="2.8047295567"><ele></ele><time>2013-8-16T18:40:31Z</time></trkpt>
<trkpt lat="45.8894288074" lon="2.8045688756"><ele></ele><time>2013-8-16T18:40:34Z</time></trkpt>
<trkpt lat="45.8894136362" lon="2.8043936938"><ele></ele><time>2013-8-16T18:40:37Z</time></trkpt>
<trkpt lat="45.8894091100" lon="2.8041949589"><ele></ele><time>2013-8-16T18:40:40Z</time></trkpt>
<trkpt lat="45.8893692121" lon="2.8040063661"><ele></ele><time>2013-8-16T18:40:43Z</time></trkpt>
<trkpt lat="45.8893145621" lon="2.8038468584"><ele></ele><time>2013-8-16T18:40:46Z</time></trkpt>
<trkpt lat="45.8892800286" lon="2.8036468662"><ele></ele><time>2013-8-16T18:40:49Z</time></trkpt>
<trkpt lat="45.8892630972" lon="2.8034809045"><ele></ele><time>2013-8-16T18:40:52Z</time></trkpt>
<trkpt lat="45.8892345149" lon="2.8033859376"><ele></ele><time>2013-8-16T18:40:55Z</time></trkpt>
<trkpt lat="45.8892268036" lon="2.8033713531"><ele></ele><time>2013-8-16T18:40:58Z</time></trkpt>
<trkpt lat="45.8892205171" lon="2.8032647353"><ele></ele><time>2013-8-16T18:41:1Z</time></trkpt>
<trkpt lat="45.8891894203" lon="2.8031649906"><ele></ele><time>2013-8-16T18:41:4Z</time></trkpt>
<trkpt lat="45.8891764283" lon="2.8031198122"><ele></ele><time>2013-8-16T18:41:7Z</time></trkpt>
<trkpt lat="45.8891674597" lon="2.8030133620"><ele></ele><time>2013-8-16T18:41:10Z</time></trkpt>
<trkpt lat="45.8891532104" lon="2.8029781580"><ele></ele><time>2013-8-16T18:41:13Z</time></trkpt>
<trkpt lat="45.8891304117" lon="2.8029351588"><ele></ele><time>2013-8-16T18:41:16Z</time></trkpt>
<trkpt lat="45.8891097922" lon="2.8028790001"><ele></ele><time>2013-8-16T18:41:19Z</time></trkpt>
<trkpt lat="45.8890702296" lon="2.8025947697"><ele></ele><time>2013-8-16T18:41:22Z</time></trkpt>
<trkpt lat="45.8890247997" lon="2.8024935164"><ele></ele><time>2013-8-16T18:41:25Z</time></trkpt>
<trkpt lat="45.8889828064" lon="2.8024226055"><ele></ele><time>2013-8-16T18:41:28Z</time></trkpt>
<trkpt lat="45.8889657073" lon="2.8023830429"><ele></ele><time>2013-8-16T18:41:31Z</time></trkpt>
<trkpt lat="45.8889610972" lon="2.8023584001"><ele></ele><time>2013-8-16T18:41:34Z</time></trkpt>
<trkpt lat="45.8889577445" lon="2.8023335896"><ele></ele><time>2013-8-16T18:41:37Z</time></trkpt>
<trkpt lat="45.8889559843" lon="2.8023042530"><ele></ele><time>2013-8-16T18:41:40Z</time></trkpt>
<trkpt lat="45.8889570739" lon="2.8022790235"><ele></ele><time>2013-8-16T18:41:43Z</time></trkpt>
<trkpt lat="45.8889557328" lon="2.8022520337"><ele></ele><time>2013-8-16T18:41:46Z</time></trkpt>
<trkpt lat="45.8889533859" lon="2.8022211045"><ele></ele><time>2013-8-16T18:41:49Z</time></trkpt>
<trkpt lat="45.8889525477" lon="2.8021911811"><ele></ele><time>2013-8-16T18:41:52Z</time></trkpt>
<trkpt lat="45.8889519610" lon="2.8021618444"><ele></ele><time>2013-8-16T18:41:55Z</time></trkpt>
<trkpt lat="45.8889514580" lon="2.8021366987"><ele></ele><time>2013-8-16T18:41:58Z</time></trkpt>
<trkpt lat="45.8889419027" lon="2.8020574898"><ele></ele><time>2013-8-16T18:42:1Z</time></trkpt>
<trkpt lat="45.8889298327" lon="2.8019698150"><ele></ele><time>2013-8-16T18:42:4Z</time></trkpt>
<trkpt lat="45.8889155835" lon="2.8019032627"><ele></ele><time>2013-8-16T18:42:7Z</time></trkpt>
<trkpt lat="45.8889034297" lon="2.8018730041"><ele></ele><time>2013-8-16T18:42:10Z</time></trkpt>
<trkpt lat="45.8888639510" lon="2.8017447609"><ele></ele><time>2013-8-16T18:42:13Z</time></trkpt>
<trkpt lat="45.8888175152" lon="2.8015684895"><ele></ele><time>2013-8-16T18:42:16Z</time></trkpt>
<trkpt lat="45.8888080437" lon="2.8014679067"><ele></ele><time>2013-8-16T18:42:19Z</time></trkpt>
<trkpt lat="45.8888007514" lon="2.8013492189"><ele></ele><time>2013-8-16T18:42:22Z</time></trkpt>
<trkpt lat="45.8887349535" lon="2.8011773061"><ele></ele><time>2013-8-16T18:42:25Z</time></trkpt>
<trkpt lat="45.8887078799" lon="2.8010420222"><ele></ele><time>2013-8-16T18:42:28Z</time></trkpt>
<trkpt lat="45.8886937145" lon="2.8009402659"><ele></ele><time>2013-8-16T18:42:31Z</time></trkpt>
<trkpt lat="45.8886863384" lon="2.8007949237"><ele></ele><time>2013-8-16T18:42:34Z</time></trkpt>
<trkpt lat="45.8886894397" lon="2.8007484879"><ele></ele><time>2013-8-16T18:42:37Z</time></trkpt>
<trkpt lat="45.8886822313" lon="2.8007265273"><ele></ele><time>2013-8-16T18:42:40Z</time></trkpt>
<trkpt lat="45.8886761963" lon="2.8007086739"><ele></ele><time>2013-8-16T18:42:43Z</time></trkpt>
<trkpt lat="45.8886669762" lon="2.8006880544"><ele></ele><time>2013-8-16T18:42:46Z</time></trkpt>
<trkpt lat="45.8886546548" lon="2.8006680217"><ele></ele><time>2013-8-16T18:42:49Z</time></trkpt>
<trkpt lat="45.8886430040" lon="2.8006481566"><ele></ele><time>2013-8-16T18:42:52Z</time></trkpt>
<trkpt lat="45.8886319399" lon="2.8006221727"><ele></ele><time>2013-8-16T18:42:55Z</time></trkpt>
<trkpt lat="45.8886238933" lon="2.8005935904"><ele></ele><time>2013-8-16T18:42:58Z</time></trkpt>
<trkpt lat="45.8886122424" lon="2.8005710430"><ele></ele><time>2013-8-16T18:43:1Z</time></trkpt>
<trkpt lat="45.8885953948" lon="2.8005510103"><ele></ele><time>2013-8-16T18:43:4Z</time></trkpt>
<trkpt lat="45.8885756973" lon="2.8005205840"><ele></ele><time>2013-8-16T18:43:7Z</time></trkpt>
<trkpt lat="45.8885611966" lon="2.8004912473"><ele></ele><time>2013-8-16T18:43:10Z</time></trkpt>
<trkpt lat="45.8885529824" lon="2.8004708793"><ele></ele><time>2013-8-16T18:43:13Z</time></trkpt>
<trkpt lat="45.8885468636" lon="2.8004557081"><ele></ele><time>2013-8-16T18:43:16Z</time></trkpt>
<trkpt lat="45.8885547426" lon="2.8004254494"><ele></ele><time>2013-8-16T18:43:19Z</time></trkpt>
<trkpt lat="45.8885613643" lon="2.8003954422"><ele></ele><time>2013-8-16T18:43:22Z</time></trkpt>
<trkpt lat="45.8885877673" lon="2.8003683686"><ele></ele><time>2013-8-16T18:43:25Z</time></trkpt>
<trkpt lat="45.8886183612" lon="2.8003662731"><ele></ele><time>2013-8-16T18:43:28Z</time></trkpt>
<trkpt lat="45.8886318561" lon="2.8003638424"><ele></ele><time>2013-8-16T18:43:31Z</time></trkpt>
<trkpt lat="45.8886498772" lon="2.8003653511"><ele></ele><time>2013-8-16T18:43:34Z</time></trkpt>
<trkpt lat="45.8886661381" lon="2.8003778402"><ele></ele><time>2013-8-16T18:43:37Z</time></trkpt>
<trkpt lat="45.8887316845" lon="2.8003970347"><ele></ele><time>2013-8-16T18:43:40Z</time></trkpt>
<trkpt lat="45.8887479454" lon="2.8004090209"><ele></ele><time>2013-8-16T18:43:43Z</time></trkpt>
<trkpt lat="45.8887659665" lon="2.8004144691"><ele></ele><time>2013-8-16T18:43:46Z</time></trkpt>
<trkpt lat="45.8887880947" lon="2.8004163131"><ele></ele><time>2013-8-16T18:43:49Z</time></trkpt>
<trkpt lat="45.8888178505" lon="2.8004245274"><ele></ele><time>2013-8-16T18:43:52Z</time></trkpt>
<trkpt lat="45.8888452593" lon="2.8004396148"><ele></ele><time>2013-8-16T18:43:55Z</time></trkpt>
<trkpt lat="45.8888766915" lon="2.8004521877"><ele></ele><time>2013-8-16T18:43:58Z</time></trkpt>
<trkpt lat="45.8889123984" lon="2.8004724719"><ele></ele><time>2013-8-16T18:44:1Z</time></trkpt>
<trkpt lat="45.8889463451" lon="2.8004948515"><ele></ele><time>2013-8-16T18:44:4Z</time></trkpt>
<trkpt lat="45.8891481813" lon="2.8006532695"><ele></ele><time>2013-8-16T18:44:7Z</time></trkpt>
<trkpt lat="45.8891928568" lon="2.8006905690"><ele></ele><time>2013-8-16T18:44:10Z</time></trkpt>
<trkpt lat="45.8892206009" lon="2.8007049020"><ele></ele><time>2013-8-16T18:44:13Z</time></trkpt>
<trkpt lat="45.8892632648" lon="2.8007370885"><ele></ele><time>2013-8-16T18:44:16Z</time></trkpt>
<trkpt lat="45.8893076051" lon="2.8007573728"><ele></ele><time>2013-8-16T18:44:19Z</time></trkpt>
<trkpt lat="45.8893586509" lon="2.8007760644"><ele></ele><time>2013-8-16T18:44:22Z</time></trkpt>
<trkpt lat="45.8896513470" lon="2.8010056447"><ele></ele><time>2013-8-16T18:44:25Z</time></trkpt>
<trkpt lat="45.8899800014" lon="2.8012827504"><ele></ele><time>2013-8-16T18:44:28Z</time></trkpt>
<trkpt lat="45.8901226614" lon="2.8014106583"><ele></ele><time>2013-8-16T18:44:31Z</time></trkpt>
<trkpt lat="45.8901459631" lon="2.8014269192"><ele></ele><time>2013-8-16T18:44:34Z</time></trkpt>
<trkpt lat="45.8901823405" lon="2.8014483768"><ele></ele><time>2013-8-16T18:44:37Z</time></trkpt>
<trkpt lat="45.8902174607" lon="2.8014695831"><ele></ele><time>2013-8-16T18:44:40Z</time></trkpt>
<trkpt lat="45.8902419358" lon="2.8014743607"><ele></ele><time>2013-8-16T18:44:43Z</time></trkpt>
<trkpt lat="45.8905764576" lon="2.8016865067"><ele></ele><time>2013-8-16T18:44:46Z</time></trkpt>
<trkpt lat="45.8906046208" lon="2.8017088026"><ele></ele><time>2013-8-16T18:44:49Z</time></trkpt>
<trkpt lat="45.8907437604" lon="2.8018390574"><ele></ele><time>2013-8-16T18:44:52Z</time></trkpt>
<trkpt lat="45.8907700796" lon="2.8018620238"><ele></ele><time>2013-8-16T18:44:55Z</time></trkpt>
<trkpt lat="45.8907997515" lon="2.8018786199"><ele></ele><time>2013-8-16T18:44:58Z</time></trkpt>
<trkpt lat="45.8908227179" lon="2.8018983174"><ele></ele><time>2013-8-16T18:45:1Z</time></trkpt>
<trkpt lat="45.8908451814" lon="2.8019208647"><ele></ele><time>2013-8-16T18:45:4Z</time></trkpt>
<trkpt lat="45.8908676449" lon="2.8019432444"><ele></ele><time>2013-8-16T18:45:7Z</time></trkpt>
<trkpt lat="45.8909337781" lon="2.8019932006"><ele></ele><time>2013-8-16T18:45:10Z</time></trkpt>
<trkpt lat="45.8909520507" lon="2.8020165022"><ele></ele><time>2013-8-16T18:45:13Z</time></trkpt>
<trkpt lat="45.8910155855" lon="2.8020963818"><ele></ele><time>2013-8-16T18:45:16Z</time></trkpt>
<trkpt lat="45.8910207823" lon="2.8021116368"><ele></ele><time>2013-8-16T18:45:19Z</time></trkpt>
<trkpt lat="45.8910563216" lon="2.8021480981"><ele></ele><time>2013-8-16T18:45:22Z</time></trkpt>
<trkpt lat="45.8910762705" lon="2.8021623474"><ele></ele><time>2013-8-16T18:45:25Z</time></trkpt>
<trkpt lat="45.8910978958" lon="2.8021810390"><ele></ele><time>2013-8-16T18:45:28Z</time></trkpt>
<trkpt lat="45.8911108039" lon="2.8021962103"><ele></ele><time>2013-8-16T18:45:31Z</time></trkpt>
<trkpt lat="45.8911340218" lon="2.8022115491"><ele></ele><time>2013-8-16T18:45:34Z</time></trkpt>
<trkpt lat="45.8911867440" lon="2.8022706416"><ele></ele><time>2013-8-16T18:45:37Z</time></trkpt>
<trkpt lat="45.8912546374" lon="2.8024566360"><ele></ele><time>2013-8-16T18:45:40Z</time></trkpt>
<trkpt lat="45.8912877459" lon="2.8026212566"><ele></ele><time>2013-8-16T18:45:43Z</time></trkpt>
<trkpt lat="45.8913180884" lon="2.8026578017"><ele></ele><time>2013-8-16T18:45:46Z</time></trkpt>
<trkpt lat="45.8916606568" lon="2.8030361608"><ele></ele><time>2013-8-16T18:45:49Z</time></trkpt>
<trkpt lat="45.8917799313" lon="2.8031825088"><ele></ele><time>2013-8-16T18:45:52Z</time></trkpt>
<trkpt lat="45.8921623975" lon="2.8035593592"><ele></ele><time>2013-8-16T18:45:55Z</time></trkpt>
<trkpt lat="45.8922803309" lon="2.8036749456"><ele></ele><time>2013-8-16T18:45:58Z</time></trkpt>
<trkpt lat="45.8924372401" lon="2.8038955573"><ele></ele><time>2013-8-16T18:46:1Z</time></trkpt>
<trkpt lat="45.8924510702" lon="2.8039093036"><ele></ele><time>2013-8-16T18:46:4Z</time></trkpt>
<trkpt lat="45.8924995176" lon="2.8039229661"><ele></ele><time>2013-8-16T18:46:7Z</time></trkpt>
<trkpt lat="45.8926065546" lon="2.8040529694"><ele></ele><time>2013-8-16T18:46:10Z</time></trkpt>
<trkpt lat="45.8928902820" lon="2.8042929433"><ele></ele><time>2013-8-16T18:46:13Z</time></trkpt>
<trkpt lat="45.8929633722" lon="2.8043381218"><ele></ele><time>2013-8-16T18:46:16Z</time></trkpt>
<trkpt lat="45.8930269908" lon="2.8044192586"><ele></ele><time>2013-8-16T18:46:19Z</time></trkpt>
<trkpt lat="45.8931547310" lon="2.8046207596"><ele></ele><time>2013-8-16T18:46:22Z</time></trkpt>
<trkpt lat="45.8932129014" lon="2.8047052491"><ele></ele><time>2013-8-16T18:46:25Z</time></trkpt>
<trkpt lat="45.8932777774" lon="2.8047695383"><ele></ele><time>2013-8-16T18:46:28Z</time></trkpt>
<trkpt lat="45.8933577407" lon="2.8048206680"><ele></ele><time>2013-8-16T18:46:31Z</time></trkpt>
<trkpt lat="45.8933761809" lon="2.8048269544"><ele></ele><time>2013-8-16T18:46:34Z</time></trkpt>
<trkpt lat="45.8935722336" lon="2.8049640823"><ele></ele><time>2013-8-16T18:46:37Z</time></trkpt>
<trkpt lat="45.8938449807" lon="2.8050170559"><ele></ele><time>2013-8-16T18:46:40Z</time></trkpt>
<trkpt lat="45.8939870540" lon="2.8050179780"><ele></ele><time>2013-8-16T18:46:43Z</time></trkpt>
<trkpt lat="45.8940961864" lon="2.8050033096"><ele></ele><time>2013-8-16T18:46:46Z</time></trkpt>
<trkpt lat="45.8941923268" lon="2.8050149605"><ele></ele><time>2013-8-16T18:46:49Z</time></trkpt>
<trkpt lat="45.8942674287" lon="2.8050170559"><ele></ele><time>2013-8-16T18:46:52Z</time></trkpt>
<trkpt lat="45.8943622280" lon="2.8050075006"><ele></ele><time>2013-8-16T18:46:55Z</time></trkpt>
<trkpt lat="45.8945640642" lon="2.8048251942"><ele></ele><time>2013-8-16T18:46:58Z</time></trkpt>
<trkpt lat="45.8948016074" lon="2.8046906646"><ele></ele><time>2013-8-16T18:47:1Z</time></trkpt>
<trkpt lat="45.8949565887" lon="2.8046565503"><ele></ele><time>2013-8-16T18:47:4Z</time></trkpt>
<trkpt lat="45.8949965704" lon="2.8046353441"><ele></ele><time>2013-8-16T18:47:7Z</time></trkpt>
<trkpt lat="45.8950855862" lon="2.8044942766"><ele></ele><time>2013-8-16T18:47:10Z</time></trkpt>
<trkpt lat="45.8951193653" lon="2.8044506069"><ele></ele><time>2013-8-16T18:47:13Z</time></trkpt>
<trkpt lat="45.8951450977" lon="2.8044088650"><ele></ele><time>2013-8-16T18:47:16Z</time></trkpt>
<trkpt lat="45.8951675612" lon="2.8043687157"><ele></ele><time>2013-8-16T18:47:19Z</time></trkpt>
<trkpt lat="45.8951850794" lon="2.8043190110"><ele></ele><time>2013-8-16T18:47:22Z</time></trkpt>
<trkpt lat="45.8952041902" lon="2.8042732459"><ele></ele><time>2013-8-16T18:47:25Z</time></trkpt>
<trkpt lat="45.8952238038" lon="2.8042313363"><ele></ele><time>2013-8-16T18:47:28Z</time></trkpt>
<trkpt lat="45.8952400647" lon="2.8041988146"><ele></ele><time>2013-8-16T18:47:31Z</time></trkpt>
<trkpt lat="45.8952513803" lon="2.8041611798"><ele></ele><time>2013-8-16T18:47:34Z</time></trkpt>
<trkpt lat="45.8952642046" lon="2.8041227907"><ele></ele><time>2013-8-16T18:47:37Z</time></trkpt>
<trkpt lat="45.8952771965" lon="2.8040898498"><ele></ele><time>2013-8-16T18:47:40Z</time></trkpt>
<trkpt lat="45.8952825610" lon="2.8040582500"><ele></ele><time>2013-8-16T18:47:43Z</time></trkpt>
<trkpt lat="45.8952835668" lon="2.8040208668"><ele></ele><time>2013-8-16T18:47:46Z</time></trkpt>
<trkpt lat="45.8952835668" lon="2.8039882611"><ele></ele><time>2013-8-16T18:47:49Z</time></trkpt>
<trkpt lat="45.8952832315" lon="2.8039522190"><ele></ele><time>2013-8-16T18:47:52Z</time></trkpt>
<trkpt lat="45.8952826448" lon="2.8039137460"><ele></ele><time>2013-8-16T18:47:55Z</time></trkpt>
<trkpt lat="45.8952876739" lon="2.8038777038"><ele></ele><time>2013-8-16T18:47:58Z</time></trkpt>
<trkpt lat="45.8952952176" lon="2.8038379736"><ele></ele><time>2013-8-16T18:48:1Z</time></trkpt>
<trkpt lat="45.8953031804" lon="2.8036600258"><ele></ele><time>2013-8-16T18:48:4Z</time></trkpt>
<trkpt lat="45.8953054436" lon="2.8036360536"><ele></ele><time>2013-8-16T18:48:7Z</time></trkpt>
<trkpt lat="45.8953002468" lon="2.8035846725"><ele></ele><time>2013-8-16T18:48:10Z</time></trkpt>
<trkpt lat="45.8953022584" lon="2.8035548329"><ele></ele><time>2013-8-16T18:48:13Z</time></trkpt>
<trkpt lat="45.8952994924" lon="2.8035205510"><ele></ele><time>2013-8-16T18:48:16Z</time></trkpt>
<trkpt lat="45.8952747658" lon="2.8034291044"><ele></ele><time>2013-8-16T18:48:19Z</time></trkpt>
<trkpt lat="45.8952477761" lon="2.8033589479"><ele></ele><time>2013-8-16T18:48:22Z</time></trkpt>
<trkpt lat="45.8952450939" lon="2.8033262584"><ele></ele><time>2013-8-16T18:48:25Z</time></trkpt>
<trkpt lat="45.8952367958" lon="2.8032830916"><ele></ele><time>2013-8-16T18:48:28Z</time></trkpt>
<trkpt lat="45.8952328563" lon="2.8032408468"><ele></ele><time>2013-8-16T18:48:31Z</time></trkpt>
<trkpt lat="45.8952285815" lon="2.8031985182"><ele></ele><time>2013-8-16T18:48:34Z</time></trkpt>
<trkpt lat="45.8952257317" lon="2.8031618055"><ele></ele><time>2013-8-16T18:48:37Z</time></trkpt>
<trkpt lat="45.8952192776" lon="2.8031270206"><ele></ele><time>2013-8-16T18:48:40Z</time></trkpt>
<trkpt lat="45.8952176850" lon="2.8030964267"><ele></ele><time>2013-8-16T18:48:43Z</time></trkpt>
<trkpt lat="45.8952152543" lon="2.8030593786"><ele></ele><time>2013-8-16T18:48:46Z</time></trkpt>
<trkpt lat="45.8952352870" lon="2.8026695363"><ele></ele><time>2013-8-16T18:48:49Z</time></trkpt>
<trkpt lat="45.8952893503" lon="2.8024939355"><ele></ele><time>2013-8-16T18:48:52Z</time></trkpt>
<trkpt lat="45.8953004982" lon="2.8024485894"><ele></ele><time>2013-8-16T18:48:55Z</time></trkpt>
<trkpt lat="45.8953104727" lon="2.8024097811"><ele></ele><time>2013-8-16T18:48:58Z</time></trkpt>
<trkpt lat="45.8953225426" lon="2.8023653571"><ele></ele><time>2013-8-16T18:49:1Z</time></trkpt>
<trkpt lat="45.8953335229" lon="2.8023235314"><ele></ele><time>2013-8-16T18:49:4Z</time></trkpt>
<trkpt lat="45.8953436650" lon="2.8022846393"><ele></ele><time>2013-8-16T18:49:7Z</time></trkpt>
<trkpt lat="45.8954596706" lon="2.8020111378"><ele></ele><time>2013-8-16T18:49:10Z</time></trkpt>
<trkpt lat="45.8954910189" lon="2.8018744290"><ele></ele><time>2013-8-16T18:49:13Z</time></trkpt>
<trkpt lat="45.8955232054" lon="2.8018062841"><ele></ele><time>2013-8-16T18:49:16Z</time></trkpt>
<trkpt lat="45.8955926076" lon="2.8016809747"><ele></ele><time>2013-8-16T18:49:19Z</time></trkpt>
<trkpt lat="45.8956050966" lon="2.8016482852"><ele></ele><time>2013-8-16T18:49:22Z</time></trkpt>
<trkpt lat="45.8956160769" lon="2.8016173560"><ele></ele><time>2013-8-16T18:49:25Z</time></trkpt>
<trkpt lat="45.8956643566" lon="2.8014531545"><ele></ele><time>2013-8-16T18:49:28Z</time></trkpt>
<trkpt lat="45.8956776001" lon="2.8014190402"><ele></ele><time>2013-8-16T18:49:31Z</time></trkpt>
<trkpt lat="45.8956838865" lon="2.8013795614"><ele></ele><time>2013-8-16T18:49:34Z</time></trkpt>
<trkpt lat="45.8956942800" lon="2.8013403341"><ele></ele><time>2013-8-16T18:49:37Z</time></trkpt>
<trkpt lat="45.8957068529" lon="2.8013035376"><ele></ele><time>2013-8-16T18:49:40Z</time></trkpt>
<trkpt lat="45.8957181685" lon="2.8012680821"><ele></ele><time>2013-8-16T18:49:43Z</time></trkpt>
<trkpt lat="45.8957294840" lon="2.8012270946"><ele></ele><time>2013-8-16T18:49:46Z</time></trkpt>
<trkpt lat="45.8957387041" lon="2.8011861909"><ele></ele><time>2013-8-16T18:49:49Z</time></trkpt>
<trkpt lat="45.8957501873" lon="2.8011487238"><ele></ele><time>2013-8-16T18:49:52Z</time></trkpt>
<trkpt lat="45.8957651071" lon="2.8011211473"><ele></ele><time>2013-8-16T18:49:55Z</time></trkpt>
<trkpt lat="45.8957765903" lon="2.8010859434"><ele></ele><time>2013-8-16T18:49:58Z</time></trkpt>
<trkpt lat="45.8957901690" lon="2.8010519128"><ele></ele><time>2013-8-16T18:50:1Z</time></trkpt>
<trkpt lat="45.8958023228" lon="2.8009934071"><ele></ele><time>2013-8-16T18:50:4Z</time></trkpt>
<trkpt lat="45.8958143089" lon="2.8009349015"><ele></ele><time>2013-8-16T18:50:7Z</time></trkpt>
<trkpt lat="45.8959946875" lon="2.8004257008"><ele></ele><time>2013-8-16T18:50:10Z</time></trkpt>
<trkpt lat="45.8960086852" lon="2.8003811091"><ele></ele><time>2013-8-16T18:50:13Z</time></trkpt>
<trkpt lat="45.8960184082" lon="2.8003275488"><ele></ele><time>2013-8-16T18:50:16Z</time></trkpt>
<trkpt lat="45.8960308135" lon="2.8002885729"><ele></ele><time>2013-8-16T18:50:19Z</time></trkpt>
<trkpt lat="45.8960447274" lon="2.8002561349"><ele></ele><time>2013-8-16T18:50:22Z</time></trkpt>
<trkpt lat="45.8960624970" lon="2.8002145607"><ele></ele><time>2013-8-16T18:50:25Z</time></trkpt>
<trkpt lat="45.8960789256" lon="2.8001752496"><ele></ele><time>2013-8-16T18:50:28Z</time></trkpt>
<trkpt lat="45.8961021435" lon="2.8001342621"><ele></ele><time>2013-8-16T18:50:31Z</time></trkpt>
<trkpt lat="45.8961208351" lon="2.8000991419"><ele></ele><time>2013-8-16T18:50:34Z</time></trkpt>
<trkpt lat="45.8961369283" lon="2.8000719845"><ele></ele><time>2013-8-16T18:50:37Z</time></trkpt>
<trkpt lat="45.8961546142" lon="2.8000421450"><ele></ele><time>2013-8-16T18:50:40Z</time></trkpt>
<trkpt lat="45.8961719647" lon="2.8000273928"><ele></ele><time>2013-8-16T18:50:43Z</time></trkpt>
<trkpt lat="45.8961866330" lon="2.8000106290"><ele></ele><time>2013-8-16T18:50:46Z</time></trkpt>
<trkpt lat="45.8962070849" lon="2.7999584936"><ele></ele><time>2013-8-16T18:50:49Z</time></trkpt>
<trkpt lat="45.8962170593" lon="2.7999099623"><ele></ele><time>2013-8-16T18:50:52Z</time></trkpt>
<trkpt lat="45.8962330688" lon="2.7998697292"><ele></ele><time>2013-8-16T18:50:55Z</time></trkpt>
<trkpt lat="45.8962521795" lon="2.7998299152"><ele></ele><time>2013-8-16T18:50:58Z</time></trkpt>
<trkpt lat="45.8962730505" lon="2.7997942083"><ele></ele><time>2013-8-16T18:51:1Z</time></trkpt>
<trkpt lat="45.8962930832" lon="2.7997598425"><ele></ele><time>2013-8-16T18:51:4Z</time></trkpt>
<trkpt lat="45.8963124454" lon="2.7997295838"><ele></ele><time>2013-8-16T18:51:7Z</time></trkpt>
<trkpt lat="45.8963338193" lon="2.7996957209"><ele></ele><time>2013-8-16T18:51:10Z</time></trkpt>
<trkpt lat="45.8963505831" lon="2.7996661328"><ele></ele><time>2013-8-16T18:51:13Z</time></trkpt>
<trkpt lat="45.8963649999" lon="2.7996433340"><ele></ele><time>2013-8-16T18:51:16Z</time></trkpt>
<trkpt lat="45.8965688478" lon="2.7993109915"><ele></ele><time>2013-8-16T18:51:19Z</time></trkpt>
<trkpt lat="45.8965799119" lon="2.7992728539"><ele></ele><time>2013-8-16T18:51:22Z</time></trkpt>
<trkpt lat="45.8965936583" lon="2.7992516477"><ele></ele><time>2013-8-16T18:51:25Z</time></trkpt>
<trkpt lat="45.8966074884" lon="2.7992228977"><ele></ele><time>2013-8-16T18:51:28Z</time></trkpt>
<trkpt lat="45.8966268506" lon="2.7991943993"><ele></ele><time>2013-8-16T18:51:31Z</time></trkpt>
<trkpt lat="45.8966384176" lon="2.7991580218"><ele></ele><time>2013-8-16T18:51:34Z</time></trkpt>
<trkpt lat="45.8966493141" lon="2.7991269249"><ele></ele><time>2013-8-16T18:51:37Z</time></trkpt>
<trkpt lat="45.8966636471" lon="2.7991059702"><ele></ele><time>2013-8-16T18:51:40Z</time></trkpt>
<trkpt lat="45.8966905531" lon="2.7990578581"><ele></ele><time>2013-8-16T18:51:43Z</time></trkpt>
<trkpt lat="45.8967010304" lon="2.7990224864"><ele></ele><time>2013-8-16T18:51:46Z</time></trkpt>
<trkpt lat="45.8967196383" lon="2.7990001906"><ele></ele><time>2013-8-16T18:51:49Z</time></trkpt>
<trkpt lat="45.8967386652" lon="2.7989846002"><ele></ele><time>2013-8-16T18:51:52Z</time></trkpt>
<trkpt lat="45.8967610449" lon="2.7989680879"><ele></ele><time>2013-8-16T18:51:55Z</time></trkpt>
<trkpt lat="45.8967880346" lon="2.7989414334"><ele></ele><time>2013-8-16T18:51:58Z</time></trkpt>
<trkpt lat="45.8968095761" lon="2.7989140246"><ele></ele><time>2013-8-16T18:52:1Z</time></trkpt>
<trkpt lat="45.8968275134" lon="2.7988839336"><ele></ele><time>2013-8-16T18:52:4Z</time></trkpt>
<trkpt lat="45.8969111647" lon="2.7987711970"><ele></ele><time>2013-8-16T18:52:7Z</time></trkpt>
<trkpt lat="45.8969306946" lon="2.7987591270"><ele></ele><time>2013-8-16T18:52:10Z</time></trkpt>
<trkpt lat="45.8969534095" lon="2.7987435367"><ele></ele><time>2013-8-16T18:52:13Z</time></trkpt>
<trkpt lat="45.8969748672" lon="2.7987264376"><ele></ele><time>2013-8-16T18:52:16Z</time></trkpt>
<trkpt lat="45.8969938941" lon="2.7987116855"><ele></ele><time>2013-8-16T18:52:19Z</time></trkpt>
<trkpt lat="45.8970149327" lon="2.7986908983"><ele></ele><time>2013-8-16T18:52:22Z</time></trkpt>
<trkpt lat="45.8970365580" lon="2.7986634895"><ele></ele><time>2013-8-16T18:52:25Z</time></trkpt>
<trkpt lat="45.8972259890" lon="2.7985064965"><ele></ele><time>2013-8-16T18:52:28Z</time></trkpt>
<trkpt lat="45.8972977381" lon="2.7984615695"><ele></ele><time>2013-8-16T18:52:31Z</time></trkpt>
<trkpt lat="45.8973495383" lon="2.7984423749"><ele></ele><time>2013-8-16T18:52:34Z</time></trkpt>
<trkpt lat="45.8974108100" lon="2.7984430455"><ele></ele><time>2013-8-16T18:52:37Z</time></trkpt>
<trkpt lat="45.8975509554" lon="2.7983748168"><ele></ele><time>2013-8-16T18:52:40Z</time></trkpt>
<trkpt lat="45.8975658752" lon="2.7983619925"><ele></ele><time>2013-8-16T18:52:43Z</time></trkpt>
<trkpt lat="45.8975855727" lon="2.7983511798"><ele></ele><time>2013-8-16T18:52:46Z</time></trkpt>
<trkpt lat="45.8976210281" lon="2.7983276267"><ele></ele><time>2013-8-16T18:52:49Z</time></trkpt>
<trkpt lat="45.8976470120" lon="2.7983184904"><ele></ele><time>2013-8-16T18:52:52Z</time></trkpt>
<trkpt lat="45.8976734988" lon="2.7983096056"><ele></ele><time>2013-8-16T18:52:55Z</time></trkpt>
<trkpt lat="45.8976995666" lon="2.7982982900"><ele></ele><time>2013-8-16T18:52:58Z</time></trkpt>
<trkpt lat="45.8977310825" lon="2.7982912492"><ele></ele><time>2013-8-16T18:53:1Z</time></trkpt>
<trkpt lat="45.8978111297" lon="2.7982733957"><ele></ele><time>2013-8-16T18:53:4Z</time></trkpt>
<trkpt lat="45.8978345990" lon="2.7982612420"><ele></ele><time>2013-8-16T18:53:7Z</time></trkpt>
<trkpt lat="45.8978656959" lon="2.7982556261"><ele></ele><time>2013-8-16T18:53:10Z</time></trkpt>
<trkpt lat="45.8979945257" lon="2.7982168179"><ele></ele><time>2013-8-16T18:53:13Z</time></trkpt>
<trkpt lat="45.8980095293" lon="2.7982243616"><ele></ele><time>2013-8-16T18:53:16Z</time></trkpt>
<trkpt lat="45.8980464097" lon="2.7982051671"><ele></ele><time>2013-8-16T18:53:19Z</time></trkpt>
<trkpt lat="45.8980733156" lon="2.7981876489"><ele></ele><time>2013-8-16T18:53:22Z</time></trkpt>
<trkpt lat="45.8980874810" lon="2.7981516905"><ele></ele><time>2013-8-16T18:53:25Z</time></trkpt>
<trkpt lat="45.8980986290" lon="2.7981272992"><ele></ele><time>2013-8-16T18:53:28Z</time></trkpt>
<trkpt lat="45.8982038219" lon="2.7980138082"><ele></ele><time>2013-8-16T18:53:31Z</time></trkpt>
<trkpt lat="45.8982233517" lon="2.7980109584"><ele></ele><time>2013-8-16T18:53:34Z</time></trkpt>
<trkpt lat="45.8982430492" lon="2.7980107907"><ele></ele><time>2013-8-16T18:53:37Z</time></trkpt>
<trkpt lat="45.8982646745" lon="2.7980050072"><ele></ele><time>2013-8-16T18:53:40Z</time></trkpt>
<trkpt lat="45.8983772434" lon="2.7980051748"><ele></ele><time>2013-8-16T18:53:43Z</time></trkpt>
<trkpt lat="45.8984153811" lon="2.7980128862"><ele></ele><time>2013-8-16T18:53:46Z</time></trkpt>
<trkpt lat="45.8984649181" lon="2.7980307397"><ele></ele><time>2013-8-16T18:53:49Z</time></trkpt>
<trkpt lat="45.8985145390" lon="2.7980374452"><ele></ele><time>2013-8-16T18:53:52Z</time></trkpt>
<trkpt lat="45.8987409342" lon="2.7980835456"><ele></ele><time>2013-8-16T18:53:55Z</time></trkpt>
<trkpt lat="45.8987773955" lon="2.7981059253"><ele></ele><time>2013-8-16T18:53:58Z</time></trkpt>
<trkpt lat="45.8988146950" lon="2.7981252037"><ele></ele><time>2013-8-16T18:54:1Z</time></trkpt>
<trkpt lat="45.8991248254" lon="2.7983001340"><ele></ele><time>2013-8-16T18:54:4Z</time></trkpt>
<trkpt lat="45.8991778828" lon="2.7983255312"><ele></ele><time>2013-8-16T18:54:7Z</time></trkpt>
<trkpt lat="45.8991954010" lon="2.7983372658"><ele></ele><time>2013-8-16T18:54:10Z</time></trkpt>
<trkpt lat="45.8992130868" lon="2.7983461507"><ele></ele><time>2013-8-16T18:54:13Z</time></trkpt>
<trkpt lat="45.8992368076" lon="2.7983591426"><ele></ele><time>2013-8-16T18:54:16Z</time></trkpt>
<trkpt lat="45.8994883485" lon="2.7985639963"><ele></ele><time>2013-8-16T18:54:19Z</time></trkpt>
<trkpt lat="45.8995416574" lon="2.7986177243"><ele></ele><time>2013-8-16T18:54:22Z</time></trkpt>
<trkpt lat="45.8995635342" lon="2.7986340690"><ele></ele><time>2013-8-16T18:54:25Z</time></trkpt>
<trkpt lat="45.8995838184" lon="2.7986498270"><ele></ele><time>2013-8-16T18:54:28Z</time></trkpt>
<trkpt lat="45.8996734209" lon="2.7987393457"><ele></ele><time>2013-8-16T18:54:31Z</time></trkpt>
<trkpt lat="45.8997005783" lon="2.7987796627"><ele></ele><time>2013-8-16T18:54:34Z</time></trkpt>
<trkpt lat="45.8997200243" lon="2.7988080774"><ele></ele><time>2013-8-16T18:54:37Z</time></trkpt>
<trkpt lat="45.9000335913" lon="2.7990766335"><ele></ele><time>2013-8-16T18:54:40Z</time></trkpt>
<trkpt lat="45.9000933543" lon="2.7991159447"><ele></ele><time>2013-8-16T18:54:43Z</time></trkpt>
<trkpt lat="45.9001135547" lon="2.7991324570"><ele></ele><time>2013-8-16T18:54:46Z</time></trkpt>
<trkpt lat="45.9001769219" lon="2.7991781384"><ele></ele><time>2013-8-16T18:54:49Z</time></trkpt>
<trkpt lat="45.9001774248" lon="2.7991779707"><ele></ele><time>2013-8-16T18:54:52Z</time></trkpt>
<trkpt lat="45.9002055880" lon="2.7991911303"><ele></ele><time>2013-8-16T18:54:55Z</time></trkpt>
<trkpt lat="45.9002112877" lon="2.7991941478"><ele></ele><time>2013-8-16T18:54:58Z</time></trkpt>
<trkpt lat="45.9002275486" lon="2.7992026974"><ele></ele><time>2013-8-16T18:55:1Z</time></trkpt>
<trkpt lat="45.9002280515" lon="2.7992028650"><ele></ele><time>2013-8-16T18:55:4Z</time></trkpt>
<trkpt lat="45.9002637584" lon="2.7992199641"><ele></ele><time>2013-8-16T18:55:7Z</time></trkpt>
<trkpt lat="45.9003324900" lon="2.7992325369"><ele></ele><time>2013-8-16T18:55:10Z</time></trkpt>
<trkpt lat="45.9003550373" lon="2.7992355544"><ele></ele><time>2013-8-16T18:55:13Z</time></trkpt>
<trkpt lat="45.9005194064" lon="2.7992890310"><ele></ele><time>2013-8-16T18:55:16Z</time></trkpt>
<trkpt lat="45.9007547703" lon="2.7993616182"><ele></ele><time>2013-8-16T18:55:19Z</time></trkpt>
<trkpt lat="45.9007913154" lon="2.7993837465"><ele></ele><time>2013-8-16T18:55:22Z</time></trkpt>
<trkpt lat="45.9008266870" lon="2.7994075511"><ele></ele><time>2013-8-16T18:55:25Z</time></trkpt>
<trkpt lat="45.9008458816" lon="2.7994144242"><ele></ele><time>2013-8-16T18:55:28Z</time></trkpt>
<trkpt lat="45.9008639865" lon="2.7994211297"><ele></ele><time>2013-8-16T18:55:31Z</time></trkpt>
<trkpt lat="45.9008836839" lon="2.7994245663"><ele></ele><time>2013-8-16T18:55:34Z</time></trkpt>
<trkpt lat="45.9009062313" lon="2.7994346246"><ele></ele><time>2013-8-16T18:55:37Z</time></trkpt>
<trkpt lat="45.9009276889" lon="2.7994481195"><ele></ele><time>2013-8-16T18:55:40Z</time></trkpt>
<trkpt lat="45.9009522479" lon="2.7994696610"><ele></ele><time>2013-8-16T18:55:43Z</time></trkpt>
<trkpt lat="45.9009763878" lon="2.7994940523"><ele></ele><time>2013-8-16T18:55:46Z</time></trkpt>
<trkpt lat="45.9011908807" lon="2.7996956371"><ele></ele><time>2013-8-16T18:55:49Z</time></trkpt>
<trkpt lat="45.9014393203" lon="2.8000146523"><ele></ele><time>2013-8-16T18:55:52Z</time></trkpt>
<trkpt lat="45.9015881829" lon="2.8001343459"><ele></ele><time>2013-8-16T18:55:55Z</time></trkpt>
<trkpt lat="45.9016356245" lon="2.8001800273"><ele></ele><time>2013-8-16T18:55:58Z</time></trkpt>
<trkpt lat="45.9016845748" lon="2.8002555482"><ele></ele><time>2013-8-16T18:56:1Z</time></trkpt>
<trkpt lat="45.9016958904" lon="2.8002779279"><ele></ele><time>2013-8-16T18:56:4Z</time></trkpt>
<trkpt lat="45.9017147496" lon="2.8003009781"><ele></ele><time>2013-8-16T18:56:7Z</time></trkpt>
<trkpt lat="45.9018258937" lon="2.8004314005"><ele></ele><time>2013-8-16T18:56:10Z</time></trkpt>
<trkpt lat="45.9018821362" lon="2.8004545346"><ele></ele><time>2013-8-16T18:56:13Z</time></trkpt>
<trkpt lat="45.9019018337" lon="2.8004646767"><ele></ele><time>2013-8-16T18:56:16Z</time></trkpt>
<trkpt lat="45.9019261412" lon="2.8004706278"><ele></ele><time>2013-8-16T18:56:19Z</time></trkpt>
<trkpt lat="45.9019563999" lon="2.8004785907"><ele></ele><time>2013-8-16T18:56:22Z</time></trkpt>
<trkpt lat="45.9019826353" lon="2.8004946001"><ele></ele><time>2013-8-16T18:56:25Z</time></trkpt>
<trkpt lat="45.9022630099" lon="2.8006498329"><ele></ele><time>2013-8-16T18:56:28Z</time></trkpt>
<trkpt lat="45.9022823721" lon="2.8006489947"><ele></ele><time>2013-8-16T18:56:31Z</time></trkpt>
<trkpt lat="45.9022819530" lon="2.8006516770"><ele></ele><time>2013-8-16T18:56:34Z</time></trkpt>
<trkpt lat="45.9022871498" lon="2.8006509226"><ele></ele><time>2013-8-16T18:56:37Z</time></trkpt>
<trkpt lat="45.9022907540" lon="2.8006505873"><ele></ele><time>2013-8-16T18:56:40Z</time></trkpt>
<trkpt lat="45.9023006447" lon="2.8006579634"><ele></ele><time>2013-8-16T18:56:43Z</time></trkpt>
<trkpt lat="45.9023052547" lon="2.8006593883"><ele></ele><time>2013-8-16T18:56:46Z</time></trkpt>
<trkpt lat="45.9023067635" lon="2.8006610647"><ele></ele><time>2013-8-16T18:56:49Z</time></trkpt>
<trkpt lat="45.9023719747" lon="2.8007033095"><ele></ele><time>2013-8-16T18:56:52Z</time></trkpt>
<trkpt lat="45.9024288040" lon="2.8007406089"><ele></ele><time>2013-8-16T18:56:55Z</time></trkpt>
<trkpt lat="45.9025515150" lon="2.8008275293"><ele></ele><time>2013-8-16T18:56:58Z</time></trkpt>
<trkpt lat="45.9026491642" lon="2.8008796647"><ele></ele><time>2013-8-16T18:57:1Z</time></trkpt>
<trkpt lat="45.9027764853" lon="2.8009665012"><ele></ele><time>2013-8-16T18:57:4Z</time></trkpt>
<trkpt lat="45.9028354939" lon="2.8010103386"><ele></ele><time>2013-8-16T18:57:7Z</time></trkpt>
<trkpt lat="45.9029409382" lon="2.8010509070"><ele></ele><time>2013-8-16T18:57:10Z</time></trkpt>
<trkpt lat="45.9030145314" lon="2.8010859434"><ele></ele><time>2013-8-16T18:57:13Z</time></trkpt>
<trkpt lat="45.9031357337" lon="2.8011431079"><ele></ele><time>2013-8-16T18:57:16Z</time></trkpt>
<trkpt lat="45.9032325447" lon="2.8011787310"><ele></ele><time>2013-8-16T18:57:19Z</time></trkpt>
<trkpt lat="45.9033151064" lon="2.8011581115"><ele></ele><time>2013-8-16T18:57:22Z</time></trkpt>
<trkpt lat="45.9033322055" lon="2.8011565190"><ele></ele><time>2013-8-16T18:57:25Z</time></trkpt>
<trkpt lat="45.9033941478" lon="2.8011435270"><ele></ele><time>2013-8-16T18:57:28Z</time></trkpt>
<trkpt lat="45.9035149310" lon="2.8010484762"><ele></ele><time>2013-8-16T18:57:31Z</time></trkpt>
<trkpt lat="45.9036062937" lon="2.8010096680"><ele></ele><time>2013-8-16T18:57:34Z</time></trkpt>
<trkpt lat="45.9037560783" lon="2.8010420222"><ele></ele><time>2013-8-16T18:57:37Z</time></trkpt>
<trkpt lat="45.9038445912" lon="2.8010232467"><ele></ele><time>2013-8-16T18:57:40Z</time></trkpt>
<trkpt lat="45.9038650431" lon="2.8010095004"><ele></ele><time>2013-8-16T18:57:43Z</time></trkpt>
<trkpt lat="45.9038849082" lon="2.8010056447"><ele></ele><time>2013-8-16T18:57:46Z</time></trkpt>
<trkpt lat="45.9039039351" lon="2.8009941615"><ele></ele><time>2013-8-16T18:57:49Z</time></trkpt>
<trkpt lat="45.9039256442" lon="2.8009872045"><ele></ele><time>2013-8-16T18:57:52Z</time></trkpt>
<trkpt lat="45.9039390553" lon="2.8009695187"><ele></ele><time>2013-8-16T18:57:55Z</time></trkpt>
<trkpt lat="45.9040222038" lon="2.8009179700"><ele></ele><time>2013-8-16T18:57:58Z</time></trkpt>
<trkpt lat="45.9040514566" lon="2.8008929081"><ele></ele><time>2013-8-16T18:58:1Z</time></trkpt>
<trkpt lat="45.9042452462" lon="2.8006558679"><ele></ele><time>2013-8-16T18:58:4Z</time></trkpt>
<trkpt lat="45.9042880777" lon="2.8005818557"><ele></ele><time>2013-8-16T18:58:7Z</time></trkpt>
<trkpt lat="45.9043422248" lon="2.8005101904"><ele></ele><time>2013-8-16T18:58:10Z</time></trkpt>
<trkpt lat="45.9045827854" lon="2.8002088610"><ele></ele><time>2013-8-16T18:58:13Z</time></trkpt>
<trkpt lat="45.9048730507" lon="2.7998809610"><ele></ele><time>2013-8-16T18:58:16Z</time></trkpt>
<trkpt lat="45.9048964363" lon="2.7998690587"><ele></ele><time>2013-8-16T18:58:19Z</time></trkpt>
<trkpt lat="45.9049164690" lon="2.7998548094"><ele></ele><time>2013-8-16T18:58:22Z</time></trkpt>
<trkpt lat="45.9049349092" lon="2.7998342738"><ele></ele><time>2013-8-16T18:58:25Z</time></trkpt>
<trkpt lat="45.9049491584" lon="2.7998109721"><ele></ele><time>2013-8-16T18:58:28Z</time></trkpt>
<trkpt lat="45.9049631562" lon="2.7997883409"><ele></ele><time>2013-8-16T18:58:31Z</time></trkpt>
<trkpt lat="45.9049970191" lon="2.7996760234"><ele></ele><time>2013-8-16T18:58:34Z</time></trkpt>
<trkpt lat="45.9050372522" lon="2.7995266579"><ele></ele><time>2013-8-16T18:58:37Z</time></trkpt>
<trkpt lat="45.9050443769" lon="2.7995037753"><ele></ele><time>2013-8-16T18:58:40Z</time></trkpt>
<trkpt lat="45.9050509147" lon="2.7994838264"><ele></ele><time>2013-8-16T18:58:43Z</time></trkpt>
<trkpt lat="45.9050587937" lon="2.7994671464"><ele></ele><time>2013-8-16T18:58:46Z</time></trkpt>
<trkpt lat="45.9051408526" lon="2.7993715089"><ele></ele><time>2013-8-16T18:58:49Z</time></trkpt>
<trkpt lat="45.9051504079" lon="2.7993651386"><ele></ele><time>2013-8-16T18:58:52Z</time></trkpt>
<trkpt lat="45.9051768947" lon="2.7993263304"><ele></ele><time>2013-8-16T18:58:55Z</time></trkpt>
<trkpt lat="45.9051868692" lon="2.7993100695"><ele></ele><time>2013-8-16T18:58:58Z</time></trkpt>
<trkpt lat="45.9052001964" lon="2.7993005142"><ele></ele><time>2013-8-16T18:59:1Z</time></trkpt>
<trkpt lat="45.9052128531" lon="2.7992823254"><ele></ele><time>2013-8-16T18:59:4Z</time></trkpt>
<trkpt lat="45.9052229952" lon="2.7992615383"><ele></ele><time>2013-8-16T18:59:7Z</time></trkpt>
<trkpt lat="45.9052334726" lon="2.7992444392"><ele></ele><time>2013-8-16T18:59:10Z</time></trkpt>
<trkpt lat="45.9052467160" lon="2.7992226463"><ele></ele><time>2013-8-16T18:59:13Z</time></trkpt>
<trkpt lat="45.9052639827" lon="2.7991988417"><ele></ele><time>2013-8-16T18:59:16Z</time></trkpt>
<trkpt lat="45.9052856918" lon="2.7991704270"><ele></ele><time>2013-8-16T18:59:19Z</time></trkpt>
<trkpt lat="45.9053137712" lon="2.7991430182"><ele></ele><time>2013-8-16T18:59:22Z</time></trkpt>
<trkpt lat="45.9053466283" lon="2.7991109993"><ele></ele><time>2013-8-16T18:59:25Z</time></trkpt>
<trkpt lat="45.9053867776" lon="2.7990843449"><ele></ele><time>2013-8-16T18:59:28Z</time></trkpt>
<trkpt lat="45.9054317046" lon="2.7990624681"><ele></ele><time>2013-8-16T18:59:31Z</time></trkpt>
<trkpt lat="45.9054778051" lon="2.7990421839"><ele></ele><time>2013-8-16T18:59:34Z</time></trkpt>
<trkpt lat="45.9056794737" lon="2.7989714406"><ele></ele><time>2013-8-16T18:59:37Z</time></trkpt>
<trkpt lat="45.9058474470" lon="2.7989462111"><ele></ele><time>2013-8-16T18:59:40Z</time></trkpt>
<trkpt lat="45.9060766082" lon="2.7989944909"><ele></ele><time>2013-8-16T18:59:43Z</time></trkpt>
<trkpt lat="45.9061344434" lon="2.7990128472"><ele></ele><time>2013-8-16T18:59:46Z</time></trkpt>
<trkpt lat="45.9061409812" lon="2.7990086563"><ele></ele><time>2013-8-16T18:59:49Z</time></trkpt>
<trkpt lat="45.9061836451" lon="2.7990093268"><ele></ele><time>2013-8-16T18:59:52Z</time></trkpt>
<trkpt lat="45.9061851539" lon="2.7990098298"><ele></ele><time>2013-8-16T18:59:55Z</time></trkpt>
<trkpt lat="45.9061877523" lon="2.7990105003"><ele></ele><time>2013-8-16T18:59:58Z</time></trkpt>
<trkpt lat="45.9062081203" lon="2.7990078181"><ele></ele><time>2013-8-16T19:0:1Z</time></trkpt>
<trkpt lat="45.9062082879" lon="2.7990079857"><ele></ele><time>2013-8-16T19:0:4Z</time></trkpt>
<trkpt lat="45.9062087070" lon="2.7990084887"><ele></ele><time>2013-8-16T19:0:7Z</time></trkpt>
<trkpt lat="45.9062202740" lon="2.7990089916"><ele></ele><time>2013-8-16T19:0:10Z</time></trkpt>
<trkpt lat="45.9062315058" lon="2.7990458719"><ele></ele><time>2013-8-16T19:0:13Z</time></trkpt>
<trkpt lat="45.9062408097" lon="2.7990773879"><ele></ele><time>2013-8-16T19:0:16Z</time></trkpt>
<trkpt lat="45.9062530473" lon="2.7991360612"><ele></ele><time>2013-8-16T19:0:19Z</time></trkpt>
<trkpt lat="45.9062772710" lon="2.7991711814"><ele></ele><time>2013-8-16T19:0:22Z</time></trkpt>
<trkpt lat="45.9063325077" lon="2.7992738597"><ele></ele><time>2013-8-16T19:0:25Z</time></trkpt>
<trkpt lat="45.9063443262" lon="2.7992874384"><ele></ele><time>2013-8-16T19:0:28Z</time></trkpt>
<trkpt lat="45.9064894170" lon="2.7994228061"><ele></ele><time>2013-8-16T19:0:31Z</time></trkpt>
<trkpt lat="45.9064974636" lon="2.7994283382"><ele></ele><time>2013-8-16T19:0:34Z</time></trkpt>
<trkpt lat="45.9065104555" lon="2.7994393185"><ele></ele><time>2013-8-16T19:0:37Z</time></trkpt>
<trkpt lat="45.9065237828" lon="2.7994535677"><ele></ele><time>2013-8-16T19:0:40Z</time></trkpt>
<trkpt lat="45.9066468291" lon="2.7995723393"><ele></ele><time>2013-8-16T19:0:43Z</time></trkpt>
<trkpt lat="45.9066651016" lon="2.7995937131"><ele></ele><time>2013-8-16T19:0:46Z</time></trkpt>
<trkpt lat="45.9066816140" lon="2.7996297553"><ele></ele><time>2013-8-16T19:0:49Z</time></trkpt>
<trkpt lat="45.9066986293" lon="2.7996543143"><ele></ele><time>2013-8-16T19:0:52Z</time></trkpt>
<trkpt lat="45.9067804366" lon="2.7997510415"><ele></ele><time>2013-8-16T19:0:55Z</time></trkpt>
<trkpt lat="45.9068323206" lon="2.7998402249"><ele></ele><time>2013-8-16T19:0:58Z</time></trkpt>
<trkpt lat="45.9070744738" lon="2.8000325896"><ele></ele><time>2013-8-16T19:1:1Z</time></trkpt>
<trkpt lat="45.9070950095" lon="2.8000684641"><ele></ele><time>2013-8-16T19:1:4Z</time></trkpt>
<trkpt lat="45.9071166348" lon="2.8000923526"><ele></ele><time>2013-8-16T19:1:7Z</time></trkpt>
<trkpt lat="45.9071369190" lon="2.8001157381"><ele></ele><time>2013-8-16T19:1:10Z</time></trkpt>
<trkpt lat="45.9071914852" lon="2.8001920134"><ele></ele><time>2013-8-16T19:1:13Z</time></trkpt>
<trkpt lat="45.9072084166" lon="2.8002257925"><ele></ele><time>2013-8-16T19:1:16Z</time></trkpt>
<trkpt lat="45.9072226658" lon="2.8002477530"><ele></ele><time>2013-8-16T19:1:19Z</time></trkpt>
<trkpt lat="45.9072356578" lon="2.8002649359"><ele></ele><time>2013-8-16T19:1:22Z</time></trkpt>
<trkpt lat="45.9072494041" lon="2.8002837114"><ele></ele><time>2013-8-16T19:1:25Z</time></trkpt>
<trkpt lat="45.9072616417" lon="2.8003031574"><ele></ele><time>2013-8-16T19:1:28Z</time></trkpt>
<trkpt lat="45.9072710294" lon="2.8003295604"><ele></ele><time>2013-8-16T19:1:31Z</time></trkpt>
<trkpt lat="45.9072827641" lon="2.8003573883"><ele></ele><time>2013-8-16T19:1:34Z</time></trkpt>
<trkpt lat="45.9072958399" lon="2.8003867250"><ele></ele><time>2013-8-16T19:1:37Z</time></trkpt>
<trkpt lat="45.9073103406" lon="2.8004166484"><ele></ele><time>2013-8-16T19:1:40Z</time></trkpt>
<trkpt lat="45.9073294513" lon="2.8004484158"><ele></ele><time>2013-8-16T19:1:43Z</time></trkpt>
<trkpt lat="45.9074188862" lon="2.8006543592"><ele></ele><time>2013-8-16T19:1:46Z</time></trkpt>
<trkpt lat="45.9074250050" lon="2.8006779961"><ele></ele><time>2013-8-16T19:1:49Z</time></trkpt>
<trkpt lat="45.9074987657" lon="2.8010270186"><ele></ele><time>2013-8-16T19:1:52Z</time></trkpt>
<trkpt lat="45.9074944910" lon="2.8011787310"><ele></ele><time>2013-8-16T19:1:55Z</time></trkpt>
<trkpt lat="45.9074923117" lon="2.8012135159"><ele></ele><time>2013-8-16T19:1:58Z</time></trkpt>
<trkpt lat="45.9074936528" lon="2.8012518212"><ele></ele><time>2013-8-16T19:2:1Z</time></trkpt>
<trkpt lat="45.9074365720" lon="2.8016963135"><ele></ele><time>2013-8-16T19:2:4Z</time></trkpt>
<trkpt lat="45.9073866997" lon="2.8021391295"><ele></ele><time>2013-8-16T19:2:7Z</time></trkpt>
<trkpt lat="45.9073245898" lon="2.8026792593"><ele></ele><time>2013-8-16T19:2:10Z</time></trkpt>
<trkpt lat="45.9072906431" lon="2.8029449657"><ele></ele><time>2013-8-16T19:2:13Z</time></trkpt>
<trkpt lat="45.9072840214" lon="2.8029769007"><ele></ele><time>2013-8-16T19:2:16Z</time></trkpt>
<trkpt lat="45.9072584566" lon="2.8030752204"><ele></ele><time>2013-8-16T19:2:19Z</time></trkpt>
<trkpt lat="45.9072489012" lon="2.8031043056"><ele></ele><time>2013-8-16T19:2:22Z</time></trkpt>
<trkpt lat="45.9072403517" lon="2.8031325527"><ele></ele><time>2013-8-16T19:2:25Z</time></trkpt>
<trkpt lat="45.9072106797" lon="2.8034751210"><ele></ele><time>2013-8-16T19:2:28Z</time></trkpt>
<trkpt lat="45.9072126914" lon="2.8035105765"><ele></ele><time>2013-8-16T19:2:31Z</time></trkpt>
<trkpt lat="45.9072171338" lon="2.8035466187"><ele></ele><time>2013-8-16T19:2:34Z</time></trkpt>
<trkpt lat="45.9072248451" lon="2.8035810683"><ele></ele><time>2013-8-16T19:2:37Z</time></trkpt>
<trkpt lat="45.9072281141" lon="2.8036523145"><ele></ele><time>2013-8-16T19:2:40Z</time></trkpt>
<trkpt lat="45.9072278626" lon="2.8036922123"><ele></ele><time>2013-8-16T19:2:43Z</time></trkpt>
<trkpt lat="45.9072330594" lon="2.8037269134"><ele></ele><time>2013-8-16T19:2:46Z</time></trkpt>
<trkpt lat="45.9072317183" lon="2.8037618659"><ele></ele><time>2013-8-16T19:2:49Z</time></trkpt>
<trkpt lat="45.9072276950" lon="2.8037961479"><ele></ele><time>2013-8-16T19:2:52Z</time></trkpt>
<trkpt lat="45.9072780702" lon="2.8041041829"><ele></ele><time>2013-8-16T19:2:55Z</time></trkpt>
<trkpt lat="45.9072773997" lon="2.8041378781"><ele></ele><time>2013-8-16T19:2:58Z</time></trkpt>
<trkpt lat="45.9072494041" lon="2.8046120424"><ele></ele><time>2013-8-16T19:3:1Z</time></trkpt>
<trkpt lat="45.9072391782" lon="2.8046455700"><ele></ele><time>2013-8-16T19:3:4Z</time></trkpt>
<trkpt lat="45.9072323889" lon="2.8046801873"><ele></ele><time>2013-8-16T19:3:7Z</time></trkpt>
<trkpt lat="45.9071071632" lon="2.8050786629"><ele></ele><time>2013-8-16T19:3:10Z</time></trkpt>
<trkpt lat="45.9069929179" lon="2.8053752985"><ele></ele><time>2013-8-16T19:3:13Z</time></trkpt>
<trkpt lat="45.9068166465" lon="2.8055846784"><ele></ele><time>2013-8-16T19:3:16Z</time></trkpt>
<trkpt lat="45.9067988768" lon="2.8056036215"><ele></ele><time>2013-8-16T19:3:19Z</time></trkpt>
<trkpt lat="45.9067811072" lon="2.8056137636"><ele></ele><time>2013-8-16T19:3:22Z</time></trkpt>
<trkpt lat="45.9067609906" lon="2.8056397475"><ele></ele><time>2013-8-16T19:3:25Z</time></trkpt>
<trkpt lat="45.9066377766" lon="2.8057834972"><ele></ele><time>2013-8-16T19:3:28Z</time></trkpt>
<trkpt lat="45.9066087753" lon="2.8059124108"><ele></ele><time>2013-8-16T19:3:31Z</time></trkpt>
<trkpt lat="45.9066040814" lon="2.8059327789"><ele></ele><time>2013-8-16T19:3:34Z</time></trkpt>
<trkpt lat="45.9066015668" lon="2.8059485368"><ele></ele><time>2013-8-16T19:3:37Z</time></trkpt>
<trkpt lat="45.9064235352" lon="2.8062374610"><ele></ele><time>2013-8-16T19:3:40Z</time></trkpt>
<trkpt lat="45.9063132294" lon="2.8065501899"><ele></ele><time>2013-8-16T19:3:43Z</time></trkpt>
<trkpt lat="45.9063106310" lon="2.8065580688"><ele></ele><time>2013-8-16T19:3:46Z</time></trkpt>
<trkpt lat="45.9063098766" lon="2.8065587394"><ele></ele><time>2013-8-16T19:3:49Z</time></trkpt>
<trkpt lat="45.9063095413" lon="2.8065587394"><ele></ele><time>2013-8-16T19:3:52Z</time></trkpt>
<trkpt lat="45.9063091222" lon="2.8065587394"><ele></ele><time>2013-8-16T19:3:55Z</time></trkpt>
<trkpt lat="45.9063092060" lon="2.8065583203"><ele></ele><time>2013-8-16T19:3:58Z</time></trkpt>
<trkpt lat="45.9063087031" lon="2.8065578174"><ele></ele><time>2013-8-16T19:4:1Z</time></trkpt>
<trkpt lat="45.9063082002" lon="2.8065587394"><ele></ele><time>2013-8-16T19:4:4Z</time></trkpt>
<trkpt lat="45.9063071106" lon="2.8065604996"><ele></ele><time>2013-8-16T19:4:7Z</time></trkpt>
<trkpt lat="45.9063061886" lon="2.8065632656"><ele></ele><time>2013-8-16T19:4:10Z</time></trkpt>
<trkpt lat="45.9063022491" lon="2.8065683786"><ele></ele><time>2013-8-16T19:4:13Z</time></trkpt>
<trkpt lat="45.9063009080" lon="2.8065706417"><ele></ele><time>2013-8-16T19:4:16Z</time></trkpt>
<trkpt lat="45.9062996507" lon="2.8065728210"><ele></ele><time>2013-8-16T19:4:19Z</time></trkpt>
<trkpt lat="45.9062987287" lon="2.8065741621"><ele></ele><time>2013-8-16T19:4:22Z</time></trkpt>
<trkpt lat="45.9062983096" lon="2.8065739106"><ele></ele><time>2013-8-16T19:4:25Z</time></trkpt>
<trkpt lat="45.9062982257" lon="2.8065744974"><ele></ele><time>2013-8-16T19:4:28Z</time></trkpt>
<trkpt lat="45.9062975552" lon="2.8065753356"><ele></ele><time>2013-8-16T19:4:31Z</time></trkpt>
<trkpt lat="45.9062967170" lon="2.8065768443"><ele></ele><time>2013-8-16T19:4:34Z</time></trkpt>
<trkpt lat="45.9062958788" lon="2.8065780178"><ele></ele><time>2013-8-16T19:4:37Z</time></trkpt>
<trkpt lat="45.9062946215" lon="2.8065792751"><ele></ele><time>2013-8-16T19:4:40Z</time></trkpt>
<trkpt lat="45.9062943701" lon="2.8065795265"><ele></ele><time>2013-8-16T19:4:43Z</time></trkpt>
<trkpt lat="45.9062976390" lon="2.8065781016"><ele></ele><time>2013-8-16T19:4:46Z</time></trkpt>
<trkpt lat="45.9062983934" lon="2.8065777663"><ele></ele><time>2013-8-16T19:4:49Z</time></trkpt>
<trkpt lat="45.9062986448" lon="2.8065775987"><ele></ele><time>2013-8-16T19:4:52Z</time></trkpt>
<trkpt lat="45.9062942863" lon="2.8065742459"><ele></ele><time>2013-8-16T19:4:55Z</time></trkpt>
<trkpt lat="45.9062804561" lon="2.8065935243"><ele></ele><time>2013-8-16T19:4:58Z</time></trkpt>
<trkpt lat="45.9062786121" lon="2.8065952845"><ele></ele><time>2013-8-16T19:5:1Z</time></trkpt>
<trkpt lat="45.9062778577" lon="2.8065969609"><ele></ele><time>2013-8-16T19:5:4Z</time></trkpt>
<trkpt lat="45.9062775224" lon="2.8065985534"><ele></ele><time>2013-8-16T19:5:7Z</time></trkpt>
<trkpt lat="45.9062772710" lon="2.8066004813"><ele></ele><time>2013-8-16T19:5:10Z</time></trkpt>
<trkpt lat="45.9062768519" lon="2.8066021577"><ele></ele><time>2013-8-16T19:5:13Z</time></trkpt>
<trkpt lat="45.9062740020" lon="2.8066081088"><ele></ele><time>2013-8-16T19:5:16Z</time></trkpt>
<trkpt lat="45.9062734153" lon="2.8066097014"><ele></ele><time>2013-8-16T19:5:19Z</time></trkpt>
<trkpt lat="45.9062729962" lon="2.8066111263"><ele></ele><time>2013-8-16T19:5:22Z</time></trkpt>
<trkpt lat="45.9062729962" lon="2.8066122998"><ele></ele><time>2013-8-16T19:5:25Z</time></trkpt>
<trkpt lat="45.9062734991" lon="2.8066124674"><ele></ele><time>2013-8-16T19:5:28Z</time></trkpt>
<trkpt lat="45.9062766843" lon="2.8066154011"><ele></ele><time>2013-8-16T19:5:31Z</time></trkpt>
<trkpt lat="45.9062768519" lon="2.8066159878"><ele></ele><time>2013-8-16T19:5:34Z</time></trkpt>
<trkpt lat="45.9062766843" lon="2.8066166583"><ele></ele><time>2013-8-16T19:5:37Z</time></trkpt>
<trkpt lat="45.9062765166" lon="2.8066174965"><ele></ele><time>2013-8-16T19:5:40Z</time></trkpt>
<trkpt lat="45.9062766843" lon="2.8066179156"><ele></ele><time>2013-8-16T19:5:43Z</time></trkpt>
<trkpt lat="45.9063029196" lon="2.8066120483"><ele></ele><time>2013-8-16T19:5:46Z</time></trkpt>
<trkpt lat="45.9063133132" lon="2.8065962065"><ele></ele><time>2013-8-16T19:5:49Z</time></trkpt>
<trkpt lat="45.9063221980" lon="2.8065730724"><ele></ele><time>2013-8-16T19:5:52Z</time></trkpt>
<trkpt lat="45.9063328430" lon="2.8065486811"><ele></ele><time>2013-8-16T19:5:55Z</time></trkpt>
<trkpt lat="45.9063439909" lon="2.8065187577"><ele></ele><time>2013-8-16T19:5:58Z</time></trkpt>
<trkpt lat="45.9063575696" lon="2.8064817097"><ele></ele><time>2013-8-16T19:6:1Z</time></trkpt>
<trkpt lat="45.9063759260" lon="2.8064411413"><ele></ele><time>2013-8-16T19:6:4Z</time></trkpt>
<trkpt lat="45.9064528719" lon="2.8063009121"><ele></ele><time>2013-8-16T19:6:7Z</time></trkpt>
<trkpt lat="45.9064825438" lon="2.8062436637"><ele></ele><time>2013-8-16T19:6:10Z</time></trkpt>
<trkpt lat="45.9065195918" lon="2.8061882593"><ele></ele><time>2013-8-16T19:6:13Z</time></trkpt>
<trkpt lat="45.9065625910" lon="2.8061324358"><ele></ele><time>2013-8-16T19:6:16Z</time></trkpt>
<trkpt lat="45.9066103678" lon="2.8060755227"><ele></ele><time>2013-8-16T19:6:19Z</time></trkpt>
<trkpt lat="45.9066631738" lon="2.8060188610"><ele></ele><time>2013-8-16T19:6:22Z</time></trkpt>
<trkpt lat="45.9067812748" lon="2.8059162665"><ele></ele><time>2013-8-16T19:6:25Z</time></trkpt>
<trkpt lat="45.9068458155" lon="2.8058668133"><ele></ele><time>2013-8-16T19:6:28Z</time></trkpt>
<trkpt lat="45.9071603883" lon="2.8055565152"><ele></ele><time>2013-8-16T19:6:31Z</time></trkpt>
<trkpt lat="45.9072726220" lon="2.8054001927"><ele></ele><time>2013-8-16T19:6:34Z</time></trkpt>
<trkpt lat="45.9073158726" lon="2.8053105064"><ele></ele><time>2013-8-16T19:6:37Z</time></trkpt>
<trkpt lat="45.9074457083" lon="2.8050071653"><ele></ele><time>2013-8-16T19:6:40Z</time></trkpt>
<trkpt lat="45.9074645676" lon="2.8049386013"><ele></ele><time>2013-8-16T19:6:43Z</time></trkpt>
<trkpt lat="45.9074827563" lon="2.8047509305"><ele></ele><time>2013-8-16T19:6:46Z</time></trkpt>
<trkpt lat="45.9074883722" lon="2.8047882300"><ele></ele><time>2013-8-16T19:6:49Z</time></trkpt>
<trkpt lat="45.9074778110" lon="2.8048721328"><ele></ele><time>2013-8-16T19:6:52Z</time></trkpt>
<trkpt lat="45.9074655734" lon="2.8049271181"><ele></ele><time>2013-8-16T19:6:55Z</time></trkpt>
<trkpt lat="45.9074453730" lon="2.8050370887"><ele></ele><time>2013-8-16T19:6:58Z</time></trkpt>
<trkpt lat="45.9074328840" lon="2.8051661700"><ele></ele><time>2013-8-16T19:7:1Z</time></trkpt>
<trkpt lat="45.9074548446" lon="2.8052000329"><ele></ele><time>2013-8-16T19:7:4Z</time></trkpt>
<trkpt lat="45.9074868634" lon="2.8052297886"><ele></ele><time>2013-8-16T19:7:7Z</time></trkpt>
<trkpt lat="45.9075259231" lon="2.8052520007"><ele></ele><time>2013-8-16T19:7:10Z</time></trkpt>
<trkpt lat="45.9075659048" lon="2.8052648250"><ele></ele><time>2013-8-16T19:7:13Z</time></trkpt>
<trkpt lat="45.9076037072" lon="2.8052711114"><ele></ele><time>2013-8-16T19:7:16Z</time></trkpt>
<trkpt lat="45.9076373186" lon="2.8052618075"><ele></ele><time>2013-8-16T19:7:19Z</time></trkpt>
<trkpt lat="45.9076745342" lon="2.8052421100"><ele></ele><time>2013-8-16T19:7:22Z</time></trkpt>
<trkpt lat="45.9077143483" lon="2.8052167129"><ele></ele><time>2013-8-16T19:7:25Z</time></trkpt>
<trkpt lat="45.9077510610" lon="2.8051852807"><ele></ele><time>2013-8-16T19:7:28Z</time></trkpt>
<trkpt lat="45.9078619536" lon="2.8051021323"><ele></ele><time>2013-8-16T19:7:31Z</time></trkpt>
<trkpt lat="45.9079004265" lon="2.8050606418"><ele></ele><time>2013-8-16T19:7:34Z</time></trkpt>
<trkpt lat="45.9079375584" lon="2.8050194867"><ele></ele><time>2013-8-16T19:7:37Z</time></trkpt>
<trkpt lat="45.9080170188" lon="2.8049289621"><ele></ele><time>2013-8-16T19:7:40Z</time></trkpt>
<trkpt lat="45.9080554079" lon="2.8048765752"><ele></ele><time>2013-8-16T19:7:43Z</time></trkpt>
<trkpt lat="45.9080903605" lon="2.8048223443"><ele></ele><time>2013-8-16T19:7:46Z</time></trkpt>
<trkpt lat="45.9081256483" lon="2.8047702927"><ele></ele><time>2013-8-16T19:7:49Z</time></trkpt>
<trkpt lat="45.9081614390" lon="2.8047205042"><ele></ele><time>2013-8-16T19:7:52Z</time></trkpt>
<trkpt lat="45.9081932902" lon="2.8046671953"><ele></ele><time>2013-8-16T19:7:55Z</time></trkpt>
<trkpt lat="45.9082272369" lon="2.8046133835"><ele></ele><time>2013-8-16T19:7:58Z</time></trkpt>
<trkpt lat="45.9082643688" lon="2.8045716416"><ele></ele><time>2013-8-16T19:8:1Z</time></trkpt>
<trkpt lat="45.9082956333" lon="2.8045360185"><ele></ele><time>2013-8-16T19:8:4Z</time></trkpt>
<trkpt lat="45.9083261434" lon="2.8045034967"><ele></ele><time>2013-8-16T19:8:7Z</time></trkpt>
<trkpt lat="45.9083587490" lon="2.8044809494"><ele></ele><time>2013-8-16T19:8:10Z</time></trkpt>
<trkpt lat="45.9083947074" lon="2.8044711426"><ele></ele><time>2013-8-16T19:8:13Z</time></trkpt>
<trkpt lat="45.9084364492" lon="2.8044822067"><ele></ele><time>2013-8-16T19:8:16Z</time></trkpt>
<trkpt lat="45.9084744193" lon="2.8044998925"><ele></ele><time>2013-8-16T19:8:19Z</time></trkpt>
<trkpt lat="45.9085082822" lon="2.8045123816"><ele></ele><time>2013-8-16T19:8:22Z</time></trkpt>
<trkpt lat="45.9085401334" lon="2.8045087773"><ele></ele><time>2013-8-16T19:8:25Z</time></trkpt>
<trkpt lat="45.9085685480" lon="2.8044987191"><ele></ele><time>2013-8-16T19:8:28Z</time></trkpt>
<trkpt lat="45.9085945319" lon="2.8044901695"><ele></ele><time>2013-8-16T19:8:31Z</time></trkpt>
<trkpt lat="45.9086226113" lon="2.8044802789"><ele></ele><time>2013-8-16T19:8:34Z</time></trkpt>
<trkpt lat="45.9086481761" lon="2.8044610843"><ele></ele><time>2013-8-16T19:8:37Z</time></trkpt>
<trkpt lat="45.9086970426" lon="2.8044658620"><ele></ele><time>2013-8-16T19:8:40Z</time></trkpt>
<trkpt lat="45.9087125491" lon="2.8044758365"><ele></ele><time>2013-8-16T19:8:43Z</time></trkpt>
<trkpt lat="45.9087345935" lon="2.8044827934"><ele></ele><time>2013-8-16T19:8:46Z</time></trkpt>
<trkpt lat="45.9087829571" lon="2.8045041673"><ele></ele><time>2013-8-16T19:8:49Z</time></trkpt>
<trkpt lat="45.9088360146" lon="2.8045220207"><ele></ele><time>2013-8-16T19:8:52Z</time></trkpt>
<trkpt lat="45.9088971186" lon="2.8045213502"><ele></ele><time>2013-8-16T19:8:55Z</time></trkpt>
<trkpt lat="45.9089637548" lon="2.8045209311"><ele></ele><time>2013-8-16T19:8:58Z</time></trkpt>
<trkpt lat="45.9090271220" lon="2.8045218531"><ele></ele><time>2013-8-16T19:9:1Z</time></trkpt>
<trkpt lat="45.9092965163" lon="2.8045469988"><ele></ele><time>2013-8-16T19:9:4Z</time></trkpt>
<trkpt lat="45.9093196504" lon="2.8045454063"><ele></ele><time>2013-8-16T19:9:7Z</time></trkpt>
<trkpt lat="45.9093416948" lon="2.8045430593"><ele></ele><time>2013-8-16T19:9:10Z</time></trkpt>
<trkpt lat="45.9094437025" lon="2.8045191709"><ele></ele><time>2013-8-16T19:9:13Z</time></trkpt>
<trkpt lat="45.9094658308" lon="2.8045261279"><ele></ele><time>2013-8-16T19:9:16Z</time></trkpt>
<trkpt lat="45.9094838519" lon="2.8045288101"><ele></ele><time>2013-8-16T19:9:19Z</time></trkpt>
<trkpt lat="45.9095712751" lon="2.8045264632"><ele></ele><time>2013-8-16T19:9:22Z</time></trkpt>
<trkpt lat="45.9096386656" lon="2.8045089450"><ele></ele><time>2013-8-16T19:9:25Z</time></trkpt>
<trkpt lat="45.9096576087" lon="2.8045055084"><ele></ele><time>2013-8-16T19:9:28Z</time></trkpt>
<trkpt lat="45.9096735343" lon="2.8044997249"><ele></ele><time>2013-8-16T19:9:31Z</time></trkpt>
<trkpt lat="45.9096898790" lon="2.8044913430"><ele></ele><time>2013-8-16T19:9:34Z</time></trkpt>
<trkpt lat="45.9097103309" lon="2.8044783510"><ele></ele><time>2013-8-16T19:9:37Z</time></trkpt>
<trkpt lat="45.9097332973" lon="2.8044621740"><ele></ele><time>2013-8-16T19:9:40Z</time></trkpt>
<trkpt lat="45.9097591974" lon="2.8044315800"><ele></ele><time>2013-8-16T19:9:43Z</time></trkpt>
<trkpt lat="45.9098003525" lon="2.8042438254"><ele></ele><time>2013-8-16T19:9:46Z</time></trkpt>
<trkpt lat="45.9097925574" lon="2.8040430788"><ele></ele><time>2013-8-16T19:9:49Z</time></trkpt>
<trkpt lat="45.9097900428" lon="2.8038258199"><ele></ele><time>2013-8-16T19:9:52Z</time></trkpt>
<trkpt lat="45.9098031186" lon="2.8037702478"><ele></ele><time>2013-8-16T19:9:55Z</time></trkpt>
<trkpt lat="45.9098632168" lon="2.8035573475"><ele></ele><time>2013-8-16T19:9:58Z</time></trkpt>
<trkpt lat="45.9098749515" lon="2.8035529889"><ele></ele><time>2013-8-16T19:10:1Z</time></trkpt>
<trkpt lat="45.9098753706" lon="2.8035520669"><ele></ele><time>2013-8-16T19:10:4Z</time></trkpt>
<trkpt lat="45.9098679945" lon="2.8035398293"><ele></ele><time>2013-8-16T19:10:7Z</time></trkpt>
<trkpt lat="45.9098959062" lon="2.8035053797"><ele></ele><time>2013-8-16T19:10:10Z</time></trkpt>
<trkpt lat="45.9098898713" lon="2.8035685793"><ele></ele><time>2013-8-16T19:10:13Z</time></trkpt>
<trkpt lat="45.9099082276" lon="2.8037633747"><ele></ele><time>2013-8-16T19:10:16Z</time></trkpt>
<trkpt lat="45.9099416714" lon="2.8039429989"><ele></ele><time>2013-8-16T19:10:19Z</time></trkpt>
<trkpt lat="45.9099504724" lon="2.8040149994"><ele></ele><time>2013-8-16T19:10:22Z</time></trkpt>
<trkpt lat="45.9100047033" lon="2.8041723277"><ele></ele><time>2013-8-16T19:10:25Z</time></trkpt>
<trkpt lat="45.9100441821" lon="2.8042781074"><ele></ele><time>2013-8-16T19:10:28Z</time></trkpt>
<trkpt lat="45.9101041127" lon="2.8044427279"><ele></ele><time>2013-8-16T19:10:31Z</time></trkpt>
<trkpt lat="45.9101673961" lon="2.8045543749"><ele></ele><time>2013-8-16T19:10:34Z</time></trkpt>
<trkpt lat="45.9102047794" lon="2.8046497609"><ele></ele><time>2013-8-16T19:10:37Z</time></trkpt>
<trkpt lat="45.9102922864" lon="2.8047724720"><ele></ele><time>2013-8-16T19:10:40Z</time></trkpt>
<trkpt lat="45.9103382193" lon="2.8049331531"><ele></ele><time>2013-8-16T19:10:43Z</time></trkpt>
<trkpt lat="45.9104095493" lon="2.8050707839"><ele></ele><time>2013-8-16T19:10:46Z</time></trkpt>
<trkpt lat="45.9104689769" lon="2.8052078281"><ele></ele><time>2013-8-16T19:10:49Z</time></trkpt>
<trkpt lat="45.9104763530" lon="2.8052380867"><ele></ele><time>2013-8-16T19:10:52Z</time></trkpt>
<trkpt lat="45.9105437435" lon="2.8053485602"><ele></ele><time>2013-8-16T19:10:55Z</time></trkpt>
<trkpt lat="45.9105920233" lon="2.8054344747"><ele></ele><time>2013-8-16T19:10:58Z</time></trkpt>
<trkpt lat="45.9106964618" lon="2.8055657353"><ele></ele><time>2013-8-16T19:11:1Z</time></trkpt>
<trkpt lat="45.9107706416" lon="2.8056097403"><ele></ele><time>2013-8-16T19:11:4Z</time></trkpt>
<trkpt lat="45.9108060971" lon="2.8056376521"><ele></ele><time>2013-8-16T19:11:7Z</time></trkpt>
<trkpt lat="45.9109393694" lon="2.8057140112"><ele></ele><time>2013-8-16T19:11:10Z</time></trkpt>
<trkpt lat="45.9109423868" lon="2.8057403304"><ele></ele><time>2013-8-16T19:11:13Z</time></trkpt>
<trkpt lat="45.9109723940" lon="2.8057740256"><ele></ele><time>2013-8-16T19:11:16Z</time></trkpt>
<trkpt lat="45.9110019822" lon="2.8057840001"><ele></ele><time>2013-8-16T19:11:19Z</time></trkpt>
<trkpt lat="45.9110588115" lon="2.8058140073"><ele></ele><time>2013-8-16T19:11:22Z</time></trkpt>
<trkpt lat="45.9112682752" lon="2.8058939707"><ele></ele><time>2013-8-16T19:11:25Z</time></trkpt>
<trkpt lat="45.9113821853" lon="2.8059206251"><ele></ele><time>2013-8-16T19:11:28Z</time></trkpt>
<trkpt lat="45.9114884678" lon="2.8059663065"><ele></ele><time>2013-8-16T19:11:31Z</time></trkpt>
<trkpt lat="45.9116378333" lon="2.8059377242"><ele></ele><time>2013-8-16T19:11:34Z</time></trkpt>
<trkpt lat="45.9117274359" lon="2.8059780411"><ele></ele><time>2013-8-16T19:11:37Z</time></trkpt>
<trkpt lat="45.9118417650" lon="2.8059900273"><ele></ele><time>2013-8-16T19:11:40Z</time></trkpt>
<trkpt lat="45.9118415974" lon="2.8060019296"><ele></ele><time>2013-8-16T19:11:43Z</time></trkpt>
<trkpt lat="45.9118408430" lon="2.8060029354"><ele></ele><time>2013-8-16T19:11:46Z</time></trkpt>
<trkpt lat="45.9118970856" lon="2.8060348704"><ele></ele><time>2013-8-16T19:11:49Z</time></trkpt>
<trkpt lat="45.9119928908" lon="2.8060769476"><ele></ele><time>2013-8-16T19:11:52Z</time></trkpt>
<trkpt lat="45.9121186193" lon="2.8061445057"><ele></ele><time>2013-8-16T19:11:55Z</time></trkpt>
<trkpt lat="45.9121917095" lon="2.8061761055"><ele></ele><time>2013-8-16T19:11:58Z</time></trkpt>
<trkpt lat="45.9122644644" lon="2.8061995748"><ele></ele><time>2013-8-16T19:12:1Z</time></trkpt>
<trkpt lat="45.9123509657" lon="2.8062007483"><ele></ele><time>2013-8-16T19:12:4Z</time></trkpt>
<trkpt lat="45.9124205355" lon="2.8062712401"><ele></ele><time>2013-8-16T19:12:7Z</time></trkpt>
<trkpt lat="45.9125701524" lon="2.8063313384"><ele></ele><time>2013-8-16T19:12:10Z</time></trkpt>
<trkpt lat="45.9126405604" lon="2.8064456675"><ele></ele><time>2013-8-16T19:12:13Z</time></trkpt>
<trkpt lat="45.9126784466" lon="2.8064225335"><ele></ele><time>2013-8-16T19:12:16Z</time></trkpt>
<trkpt lat="45.9126750939" lon="2.8064071108"><ele></ele><time>2013-8-16T19:12:19Z</time></trkpt>
<trkpt lat="45.9126646165" lon="2.8063632734"><ele></ele><time>2013-8-16T19:12:22Z</time></trkpt>
<trkpt lat="45.9127163328" lon="2.8063938674"><ele></ele><time>2013-8-16T19:12:25Z</time></trkpt>
<trkpt lat="45.9127822146" lon="2.8064833023"><ele></ele><time>2013-8-16T19:12:28Z</time></trkpt>
<trkpt lat="45.9128149878" lon="2.8065076098"><ele></ele><time>2013-8-16T19:12:31Z</time></trkpt>
<trkpt lat="45.9128323384" lon="2.8065710608"><ele></ele><time>2013-8-16T19:12:34Z</time></trkpt>
<trkpt lat="45.9128865693" lon="2.8066589031"><ele></ele><time>2013-8-16T19:12:37Z</time></trkpt>
<trkpt lat="45.9129242878" lon="2.8067461587"><ele></ele><time>2013-8-16T19:12:40Z</time></trkpt>
<trkpt lat="45.9130433947" lon="2.8069951013"><ele></ele><time>2013-8-16T19:12:43Z</time></trkpt>
<trkpt lat="45.9130875673" lon="2.8070587199"><ele></ele><time>2013-8-16T19:12:46Z</time></trkpt>
<trkpt lat="45.9131135512" lon="2.8071163036"><ele></ele><time>2013-8-16T19:12:49Z</time></trkpt>
<trkpt lat="45.9131961130" lon="2.8072391823"><ele></ele><time>2013-8-16T19:12:52Z</time></trkpt>
<trkpt lat="45.9132664371" lon="2.8073033877"><ele></ele><time>2013-8-16T19:12:55Z</time></trkpt>
<trkpt lat="45.9134084266" lon="2.8074302897"><ele></ele><time>2013-8-16T19:12:58Z</time></trkpt>
<trkpt lat="45.9135247674" lon="2.8075855225"><ele></ele><time>2013-8-16T19:13:1Z</time></trkpt>
<trkpt lat="45.9136111848" lon="2.8076690901"><ele></ele><time>2013-8-16T19:13:4Z</time></trkpt>
<trkpt lat="45.9136786591" lon="2.8077786416"><ele></ele><time>2013-8-16T19:13:7Z</time></trkpt>
<trkpt lat="45.9137747996" lon="2.8079753648"><ele></ele><time>2013-8-16T19:13:10Z</time></trkpt>
<trkpt lat="45.9138821717" lon="2.8080889396"><ele></ele><time>2013-8-16T19:13:13Z</time></trkpt>
<trkpt lat="45.9139402583" lon="2.8080861736"><ele></ele><time>2013-8-16T19:13:16Z</time></trkpt>
<trkpt lat="45.9139331337" lon="2.8080275841"><ele></ele><time>2013-8-16T19:13:19Z</time></trkpt>
<trkpt lat="45.9139061440" lon="2.8079806454"><ele></ele><time>2013-8-16T19:13:22Z</time></trkpt>
<trkpt lat="45.9138977621" lon="2.8079580981"><ele></ele><time>2013-8-16T19:13:25Z</time></trkpt>
<trkpt lat="45.9139207285" lon="2.8079335392"><ele></ele><time>2013-8-16T19:13:28Z</time></trkpt>
<trkpt lat="45.9139206447" lon="2.8079335392"><ele></ele><time>2013-8-16T19:13:31Z</time></trkpt>
<trkpt lat="45.9139209799" lon="2.8079374786"><ele></ele><time>2013-8-16T19:13:34Z</time></trkpt>
<trkpt lat="45.9139208123" lon="2.8079394903"><ele></ele><time>2013-8-16T19:13:37Z</time></trkpt>
<trkpt lat="45.9139201418" lon="2.8079435136"><ele></ele><time>2013-8-16T19:13:40Z</time></trkpt>
<trkpt lat="45.9139201418" lon="2.8079433460"><ele></ele><time>2013-8-16T19:13:43Z</time></trkpt>
<trkpt lat="45.9139210638" lon="2.8079430945"><ele></ele><time>2013-8-16T19:13:46Z</time></trkpt>
<trkpt lat="45.9139218181" lon="2.8079425078"><ele></ele><time>2013-8-16T19:13:49Z</time></trkpt>
<trkpt lat="45.9139224887" lon="2.8079413343"><ele></ele><time>2013-8-16T19:13:52Z</time></trkpt>
<trkpt lat="45.9139228240" lon="2.8079414181"><ele></ele><time>2013-8-16T19:13:55Z</time></trkpt>
<trkpt lat="45.9139230754" lon="2.8079416696"><ele></ele><time>2013-8-16T19:13:58Z</time></trkpt>
<trkpt lat="45.9139233269" lon="2.8079410829"><ele></ele><time>2013-8-16T19:14:1Z</time></trkpt>
<trkpt lat="45.9140052181" lon="2.8079926316"><ele></ele><time>2013-8-16T19:14:4Z</time></trkpt>
<trkpt lat="45.9140415117" lon="2.8080449346"><ele></ele><time>2013-8-16T19:14:7Z</time></trkpt>
<trkpt lat="45.9140418470" lon="2.8080481198"><ele></ele><time>2013-8-16T19:14:10Z</time></trkpt>
<trkpt lat="45.9140441101" lon="2.8080474492"><ele></ele><time>2013-8-16T19:14:13Z</time></trkpt>
<trkpt lat="45.9140867740" lon="2.8080918733"><ele></ele><time>2013-8-16T19:14:16Z</time></trkpt>
<trkpt lat="45.9141645581" lon="2.8082098905"><ele></ele><time>2013-8-16T19:14:19Z</time></trkpt>
<trkpt lat="45.9142876044" lon="2.8083409835"><ele></ele><time>2013-8-16T19:14:22Z</time></trkpt>
<trkpt lat="45.9143896960" lon="2.8084158339"><ele></ele><time>2013-8-16T19:14:25Z</time></trkpt>
<trkpt lat="45.9144209605" lon="2.8084348608"><ele></ele><time>2013-8-16T19:14:28Z</time></trkpt>
<trkpt lat="45.9144731797" lon="2.8084875830"><ele></ele><time>2013-8-16T19:14:31Z</time></trkpt>
<trkpt lat="45.9145741817" lon="2.8086396307"><ele></ele><time>2013-8-16T19:14:34Z</time></trkpt>
<trkpt lat="45.9146154206" lon="2.8086872399"><ele></ele><time>2013-8-16T19:14:37Z</time></trkpt>
<trkpt lat="45.9146995749" lon="2.8088271338"><ele></ele><time>2013-8-16T19:14:40Z</time></trkpt>
<trkpt lat="45.9148150776" lon="2.8088950273"><ele></ele><time>2013-8-16T19:14:43Z</time></trkpt>
<trkpt lat="45.9148602560" lon="2.8089816123"><ele></ele><time>2013-8-16T19:14:46Z</time></trkpt>
<trkpt lat="45.9149092901" lon="2.8090489190"><ele></ele><time>2013-8-16T19:14:49Z</time></trkpt>
<trkpt lat="45.9149867389" lon="2.8091656789"><ele></ele><time>2013-8-16T19:14:52Z</time></trkpt>
<trkpt lat="45.9150911774" lon="2.8092886414"><ele></ele><time>2013-8-16T19:14:55Z</time></trkpt>
<trkpt lat="45.9151450731" lon="2.8093636595"><ele></ele><time>2013-8-16T19:14:58Z</time></trkpt>
<trkpt lat="45.9152046684" lon="2.8094212431"><ele></ele><time>2013-8-16T19:15:1Z</time></trkpt>
<trkpt lat="45.9153076820" lon="2.8095196467"><ele></ele><time>2013-8-16T19:15:4Z</time></trkpt>
<trkpt lat="45.9153815266" lon="2.8096302878"><ele></ele><time>2013-8-16T19:15:7Z</time></trkpt>
<trkpt lat="45.9154258668" lon="2.8096832614"><ele></ele><time>2013-8-16T19:15:10Z</time></trkpt>
<trkpt lat="45.9154096060" lon="2.8096872848"><ele></ele><time>2013-8-16T19:15:13Z</time></trkpt>
<trkpt lat="45.9154810198" lon="2.8097982612"><ele></ele><time>2013-8-16T19:15:16Z</time></trkpt>
<trkpt lat="45.9155234322" lon="2.8098231554"><ele></ele><time>2013-8-16T19:15:19Z</time></trkpt>
<trkpt lat="45.9156416170" lon="2.8099527396"><ele></ele><time>2013-8-16T19:15:22Z</time></trkpt>
<trkpt lat="45.9156637453" lon="2.8099472076"><ele></ele><time>2013-8-16T19:15:25Z</time></trkpt>
<trkpt lat="45.9157200716" lon="2.8099813219"><ele></ele><time>2013-8-16T19:15:28Z</time></trkpt>
<trkpt lat="45.9157909825" lon="2.8100399114"><ele></ele><time>2013-8-16T19:15:31Z</time></trkpt>
<trkpt lat="45.9159377497" lon="2.8101456072"><ele></ele><time>2013-8-16T19:15:34Z</time></trkpt>
<trkpt lat="45.9161799867" lon="2.8101905342"><ele></ele><time>2013-8-16T19:15:37Z</time></trkpt>
<trkpt lat="45.9162161127" lon="2.8101896960"><ele></ele><time>2013-8-16T19:15:40Z</time></trkpt>
<trkpt lat="45.9162835870" lon="2.8101882711"><ele></ele><time>2013-8-16T19:15:43Z</time></trkpt>
<trkpt lat="45.9164049570" lon="2.8101812303"><ele></ele><time>2013-8-16T19:15:46Z</time></trkpt>
<trkpt lat="45.9165172745" lon="2.8101275861"><ele></ele><time>2013-8-16T19:15:49Z</time></trkpt>
<trkpt lat="45.9165685717" lon="2.8101052064"><ele></ele><time>2013-8-16T19:15:52Z</time></trkpt>
<trkpt lat="45.9166116547" lon="2.8100810666"><ele></ele><time>2013-8-16T19:15:55Z</time></trkpt>
<trkpt lat="45.9167564940" lon="2.8100421745"><ele></ele><time>2013-8-16T19:15:58Z</time></trkpt>
<trkpt lat="45.9169012494" lon="2.8099762090"><ele></ele><time>2013-8-16T19:16:1Z</time></trkpt>
<trkpt lat="45.9169658739" lon="2.8099525720"><ele></ele><time>2013-8-16T19:16:4Z</time></trkpt>
<trkpt lat="45.9170363657" lon="2.8099479619"><ele></ele><time>2013-8-16T19:16:7Z</time></trkpt>
<trkpt lat="45.9170803707" lon="2.8099541645"><ele></ele><time>2013-8-16T19:16:10Z</time></trkpt>
<trkpt lat="45.9170993976" lon="2.8100254945"><ele></ele><time>2013-8-16T19:16:13Z</time></trkpt>
<trkpt lat="45.9171448275" lon="2.8100858442"><ele></ele><time>2013-8-16T19:16:16Z</time></trkpt>
<trkpt lat="45.9173480887" lon="2.8100916278"><ele></ele><time>2013-8-16T19:16:19Z</time></trkpt>
<trkpt lat="45.9173679538" lon="2.8101018537"><ele></ele><time>2013-8-16T19:16:22Z</time></trkpt>
<trkpt lat="45.9173796885" lon="2.8101058770"><ele></ele><time>2013-8-16T19:16:25Z</time></trkpt>
<trkpt lat="45.9173956979" lon="2.8100978304"><ele></ele><time>2013-8-16T19:16:28Z</time></trkpt>
<trkpt lat="45.9173969552" lon="2.8100954834"><ele></ele><time>2013-8-16T19:16:31Z</time></trkpt>
<trkpt lat="45.9175034892" lon="2.8101612814"><ele></ele><time>2013-8-16T19:16:34Z</time></trkpt>
<trkpt lat="45.9176359233" lon="2.8102227207"><ele></ele><time>2013-8-16T19:16:37Z</time></trkpt>
<trkpt lat="45.9177457262" lon="2.8103079647"><ele></ele><time>2013-8-16T19:16:40Z</time></trkpt>
<trkpt lat="45.9178080037" lon="2.8103713319"><ele></ele><time>2013-8-16T19:16:43Z</time></trkpt>
<trkpt lat="45.9178307187" lon="2.8103813063"><ele></ele><time>2013-8-16T19:16:46Z</time></trkpt>
<trkpt lat="45.9179620631" lon="2.8105093818"><ele></ele><time>2013-8-16T19:16:49Z</time></trkpt>
<trkpt lat="45.9180156235" lon="2.8105346113"><ele></ele><time>2013-8-16T19:16:52Z</time></trkpt>
<trkpt lat="45.9181016218" lon="2.8106263094"><ele></ele><time>2013-8-16T19:16:55Z</time></trkpt>
<trkpt lat="45.9181769751" lon="2.8107078653"><ele></ele><time>2013-8-16T19:16:58Z</time></trkpt>
<trkpt lat="45.9182612132" lon="2.8108016588"><ele></ele><time>2013-8-16T19:17:1Z</time></trkpt>
<trkpt lat="45.9183653165" lon="2.8109677043"><ele></ele><time>2013-8-16T19:17:4Z</time></trkpt>
<trkpt lat="45.9184520692" lon="2.8110900801"><ele></ele><time>2013-8-16T19:17:7Z</time></trkpt>
<trkpt lat="45.9185300209" lon="2.8111933451"><ele></ele><time>2013-8-16T19:17:10Z</time></trkpt>
<trkpt lat="45.9186159354" lon="2.8112060018"><ele></ele><time>2013-8-16T19:17:13Z</time></trkpt>
<trkpt lat="45.9186982457" lon="2.8112113662"><ele></ele><time>2013-8-16T19:17:16Z</time></trkpt>
<trkpt lat="45.9188042767" lon="2.8112284653"><ele></ele><time>2013-8-16T19:17:19Z</time></trkpt>
<trkpt lat="45.9189154208" lon="2.8113087639"><ele></ele><time>2013-8-16T19:17:22Z</time></trkpt>
<trkpt lat="45.9189806320" lon="2.8113903198"><ele></ele><time>2013-8-16T19:17:25Z</time></trkpt>
<trkpt lat="45.9189811349" lon="2.8114630748"><ele></ele><time>2013-8-16T19:17:28Z</time></trkpt>
<trkpt lat="45.9189798776" lon="2.8114593867"><ele></ele><time>2013-8-16T19:17:31Z</time></trkpt>
<trkpt lat="45.9189790394" lon="2.8114572912"><ele></ele><time>2013-8-16T19:17:34Z</time></trkpt>
<trkpt lat="45.9189781174" lon="2.8114562854"><ele></ele><time>2013-8-16T19:17:37Z</time></trkpt>
<trkpt lat="45.9189802967" lon="2.8114567045"><ele></ele><time>2013-8-16T19:17:40Z</time></trkpt>
<trkpt lat="45.9189808834" lon="2.8114578780"><ele></ele><time>2013-8-16T19:17:43Z</time></trkpt>
<trkpt lat="45.9189824760" lon="2.8114623204"><ele></ele><time>2013-8-16T19:17:46Z</time></trkpt>
<trkpt lat="45.9189829789" lon="2.8114642482"><ele></ele><time>2013-8-16T19:17:49Z</time></trkpt>
<trkpt lat="45.9189828951" lon="2.8114647511"><ele></ele><time>2013-8-16T19:17:52Z</time></trkpt>
<trkpt lat="45.9189822245" lon="2.8114639968"><ele></ele><time>2013-8-16T19:17:55Z</time></trkpt>
<trkpt lat="45.9189817216" lon="2.8114634939"><ele></ele><time>2013-8-16T19:17:58Z</time></trkpt>
<trkpt lat="45.9189817216" lon="2.8114629071"><ele></ele><time>2013-8-16T19:18:1Z</time></trkpt>
<trkpt lat="45.9189818893" lon="2.8114613146"><ele></ele><time>2013-8-16T19:18:4Z</time></trkpt>
<trkpt lat="45.9189849906" lon="2.8114551120"><ele></ele><time>2013-8-16T19:18:7Z</time></trkpt>
<trkpt lat="45.9189856611" lon="2.8114542738"><ele></ele><time>2013-8-16T19:18:10Z</time></trkpt>
<trkpt lat="45.9189856611" lon="2.8114532679"><ele></ele><time>2013-8-16T19:18:13Z</time></trkpt>
<trkpt lat="45.9189855773" lon="2.8114516754"><ele></ele><time>2013-8-16T19:18:16Z</time></trkpt>
<trkpt lat="45.9189854097" lon="2.8114507534"><ele></ele><time>2013-8-16T19:18:19Z</time></trkpt>
<trkpt lat="45.9189855773" lon="2.8114506695"><ele></ele><time>2013-8-16T19:18:22Z</time></trkpt>
<trkpt lat="45.9189859126" lon="2.8114509210"><ele></ele><time>2013-8-16T19:18:25Z</time></trkpt>
<trkpt lat="45.9189864155" lon="2.8114511725"><ele></ele><time>2013-8-16T19:18:28Z</time></trkpt>
<trkpt lat="45.9189873375" lon="2.8114505019"><ele></ele><time>2013-8-16T19:18:31Z</time></trkpt>
<trkpt lat="45.9189881757" lon="2.8114518430"><ele></ele><time>2013-8-16T19:18:34Z</time></trkpt>
<trkpt lat="45.9189553186" lon="2.8116040584"><ele></ele><time>2013-8-16T19:18:37Z</time></trkpt>
<trkpt lat="45.9189335257" lon="2.8116510808"><ele></ele><time>2013-8-16T19:18:40Z</time></trkpt>
<trkpt lat="45.9189110622" lon="2.8117236681"><ele></ele><time>2013-8-16T19:18:43Z</time></trkpt>
<trkpt lat="45.9189002495" lon="2.8119957447"><ele></ele><time>2013-8-16T19:18:46Z</time></trkpt>
<trkpt lat="45.9189238027" lon="2.8121471219"><ele></ele><time>2013-8-16T19:18:49Z</time></trkpt>
<trkpt lat="45.9189635329" lon="2.8123191185"><ele></ele><time>2013-8-16T19:18:52Z</time></trkpt>
<trkpt lat="45.9189735074" lon="2.8123927955"><ele></ele><time>2013-8-16T19:18:55Z</time></trkpt>
<trkpt lat="45.9190419037" lon="2.8125294205"><ele></ele><time>2013-8-16T19:18:58Z</time></trkpt>
<trkpt lat="45.9190840647" lon="2.8126372118"><ele></ele><time>2013-8-16T19:19:1Z</time></trkpt>
<trkpt lat="45.9191215318" lon="2.8127524629"><ele></ele><time>2013-8-16T19:19:4Z</time></trkpt>
<trkpt lat="45.9191647824" lon="2.8129437380"><ele></ele><time>2013-8-16T19:19:7Z</time></trkpt>
<trkpt lat="45.9191863239" lon="2.8130285628"><ele></ele><time>2013-8-16T19:19:10Z</time></trkpt>
<trkpt lat="45.9191957116" lon="2.8130393755"><ele></ele><time>2013-8-16T19:19:13Z</time></trkpt>
<trkpt lat="45.9192006569" lon="2.8130356036"><ele></ele><time>2013-8-16T19:19:16Z</time></trkpt>
<trkpt lat="45.9191890899" lon="2.8130352683"><ele></ele><time>2013-8-16T19:19:19Z</time></trkpt>
<trkpt lat="45.9191817138" lon="2.8130493499"><ele></ele><time>2013-8-16T19:19:22Z</time></trkpt>
<trkpt lat="45.9191927779" lon="2.8130408004"><ele></ele><time>2013-8-16T19:19:25Z</time></trkpt>
<trkpt lat="45.9192122240" lon="2.8130817879"><ele></ele><time>2013-8-16T19:19:28Z</time></trkpt>
<trkpt lat="45.9192581568" lon="2.8131632600"><ele></ele><time>2013-8-16T19:19:31Z</time></trkpt>
<trkpt lat="45.9192579892" lon="2.8131640982"><ele></ele><time>2013-8-16T19:19:34Z</time></trkpt>
<trkpt lat="45.9192580730" lon="2.8131640144"><ele></ele><time>2013-8-16T19:19:37Z</time></trkpt>
<trkpt lat="45.9192852303" lon="2.8132301476"><ele></ele><time>2013-8-16T19:19:40Z</time></trkpt>
<trkpt lat="45.9193494357" lon="2.8133599833"><ele></ele><time>2013-8-16T19:19:43Z</time></trkpt>
<trkpt lat="45.9193982184" lon="2.8134147171"><ele></ele><time>2013-8-16T19:19:46Z</time></trkpt>
<trkpt lat="45.9195169061" lon="2.8135626577"><ele></ele><time>2013-8-16T19:19:49Z</time></trkpt>
<trkpt lat="45.9196074307" lon="2.8136881348"><ele></ele><time>2013-8-16T19:19:52Z</time></trkpt>
<trkpt lat="45.9196844604" lon="2.8138098400"><ele></ele><time>2013-8-16T19:19:55Z</time></trkpt>
<trkpt lat="45.9197817743" lon="2.8139021248"><ele></ele><time>2013-8-16T19:19:58Z</time></trkpt>
<trkpt lat="45.9199201595" lon="2.8140184656"><ele></ele><time>2013-8-16T19:20:1Z</time></trkpt>
<trkpt lat="45.9200169705" lon="2.8140617162"><ele></ele><time>2013-8-16T19:20:4Z</time></trkpt>
<trkpt lat="45.9201733768" lon="2.8141490556"><ele></ele><time>2013-8-16T19:20:7Z</time></trkpt>
<trkpt lat="45.9205311164" lon="2.8142363951"><ele></ele><time>2013-8-16T19:20:10Z</time></trkpt>
<trkpt lat="45.9209346212" lon="2.8144279215"><ele></ele><time>2013-8-16T19:20:13Z</time></trkpt>
<trkpt lat="45.9212878346" lon="2.8145980742"><ele></ele><time>2013-8-16T19:20:16Z</time></trkpt>
<trkpt lat="45.9215986356" lon="2.8147518821"><ele></ele><time>2013-8-16T19:20:19Z</time></trkpt>
<trkpt lat="45.9216216020" lon="2.8147540614"><ele></ele><time>2013-8-16T19:20:22Z</time></trkpt>
<trkpt lat="45.9219102748" lon="2.8148889262"><ele></ele><time>2013-8-16T19:20:25Z</time></trkpt>
<trkpt lat="45.9222394321" lon="2.8151886631"><ele></ele><time>2013-8-16T19:20:28Z</time></trkpt>
<trkpt lat="45.9223758057" lon="2.8154184110"><ele></ele><time>2013-8-16T19:20:31Z</time></trkpt>
<trkpt lat="45.9224196430" lon="2.8155351710"><ele></ele><time>2013-8-16T19:20:34Z</time></trkpt>
<trkpt lat="45.9225720260" lon="2.8158156294"><ele></ele><time>2013-8-16T19:20:37Z</time></trkpt>
<trkpt lat="45.9227664024" lon="2.8162894584"><ele></ele><time>2013-8-16T19:20:40Z</time></trkpt>
<trkpt lat="45.9230306838" lon="2.8168295044"><ele></ele><time>2013-8-16T19:20:43Z</time></trkpt>
<trkpt lat="45.9233294148" lon="2.8173008189"><ele></ele><time>2013-8-16T19:20:46Z</time></trkpt>
<trkpt lat="45.9235541336" lon="2.8176181577"><ele></ele><time>2013-8-16T19:20:49Z</time></trkpt>
<trkpt lat="45.9236292355" lon="2.8179870453"><ele></ele><time>2013-8-16T19:20:52Z</time></trkpt>
<trkpt lat="45.9236792754" lon="2.8183908015"><ele></ele><time>2013-8-16T19:20:55Z</time></trkpt>
<trkpt lat="45.9237615019" lon="2.8189085517"><ele></ele><time>2013-8-16T19:20:58Z</time></trkpt>
<trkpt lat="45.9238690417" lon="2.8195262142"><ele></ele><time>2013-8-16T19:21:1Z</time></trkpt>
<trkpt lat="45.9240199998" lon="2.8200780787"><ele></ele><time>2013-8-16T19:21:4Z</time></trkpt>
<trkpt lat="45.9243194014" lon="2.8206235729"><ele></ele><time>2013-8-16T19:21:7Z</time></trkpt>
<trkpt lat="45.9244473930" lon="2.8208938893"><ele></ele><time>2013-8-16T19:21:10Z</time></trkpt>
<trkpt lat="45.9246026259" lon="2.8211349528"><ele></ele><time>2013-8-16T19:21:13Z</time></trkpt>
<trkpt lat="45.9248573519" lon="2.8214659542"><ele></ele><time>2013-8-16T19:21:16Z</time></trkpt>
<trkpt lat="45.9251634590" lon="2.8217239492"><ele></ele><time>2013-8-16T19:21:19Z</time></trkpt>
<trkpt lat="45.9253349528" lon="2.8220310621"><ele></ele><time>2013-8-16T19:21:22Z</time></trkpt>
<trkpt lat="45.9254819714" lon="2.8225462139"><ele></ele><time>2013-8-16T19:21:25Z</time></trkpt>
<trkpt lat="45.9256601706" lon="2.8230176121"><ele></ele><time>2013-8-16T19:21:28Z</time></trkpt>
<trkpt lat="45.9258997254" lon="2.8236028366"><ele></ele><time>2013-8-16T19:21:31Z</time></trkpt>
<trkpt lat="45.9259842150" lon="2.8238738235"><ele></ele><time>2013-8-16T19:21:34Z</time></trkpt>
<trkpt lat="45.9260209277" lon="2.8240158129"><ele></ele><time>2013-8-16T19:21:37Z</time></trkpt>
<trkpt lat="45.9262230154" lon="2.8243997879"><ele></ele><time>2013-8-16T19:21:40Z</time></trkpt>
<trkpt lat="45.9263002966" lon="2.8245817591"><ele></ele><time>2013-8-16T19:21:43Z</time></trkpt>
<trkpt lat="45.9263801761" lon="2.8248333838"><ele></ele><time>2013-8-16T19:21:46Z</time></trkpt>
<trkpt lat="45.9266080800" lon="2.8254499566"><ele></ele><time>2013-8-16T19:21:49Z</time></trkpt>
<trkpt lat="45.9267863631" lon="2.8260631766"><ele></ele><time>2013-8-16T19:21:52Z</time></trkpt>
<trkpt lat="45.9269304480" lon="2.8266255185"><ele></ele><time>2013-8-16T19:21:55Z</time></trkpt>
<trkpt lat="45.9270498902" lon="2.8270917200"><ele></ele><time>2013-8-16T19:21:58Z</time></trkpt>
<trkpt lat="45.9271808993" lon="2.8276133258"><ele></ele><time>2013-8-16T19:22:1Z</time></trkpt>
<trkpt lat="45.9272948094" lon="2.8280756716"><ele></ele><time>2013-8-16T19:22:4Z</time></trkpt>
<trkpt lat="45.9274242260" lon="2.8285868000"><ele></ele><time>2013-8-16T19:22:7Z</time></trkpt>
<trkpt lat="45.9275775310" lon="2.8290349804"><ele></ele><time>2013-8-16T19:22:10Z</time></trkpt>
<trkpt lat="45.9277766012" lon="2.8294298518"><ele></ele><time>2013-8-16T19:22:13Z</time></trkpt>
<trkpt lat="45.9278714843" lon="2.8298841510"><ele></ele><time>2013-8-16T19:22:16Z</time></trkpt>
<trkpt lat="45.9281241987" lon="2.8301095404"><ele></ele><time>2013-8-16T19:22:19Z</time></trkpt>
<trkpt lat="45.9287695214" lon="2.8304788470"><ele></ele><time>2013-8-16T19:22:22Z</time></trkpt>
<trkpt lat="45.9291050490" lon="2.8306595609"><ele></ele><time>2013-8-16T19:22:25Z</time></trkpt>
<trkpt lat="45.9300834686" lon="2.8312026244"><ele></ele><time>2013-8-16T19:22:28Z</time></trkpt>
<trkpt lat="45.9309344832" lon="2.8316860087"><ele></ele><time>2013-8-16T19:22:31Z</time></trkpt>
<trkpt lat="45.9311657399" lon="2.8318741824"><ele></ele><time>2013-8-16T19:22:34Z</time></trkpt>
<trkpt lat="45.9312168695" lon="2.8319393098"><ele></ele><time>2013-8-16T19:22:37Z</time></trkpt>
<trkpt lat="45.9312646464" lon="2.8320077900"><ele></ele><time>2013-8-16T19:22:40Z</time></trkpt>
<trkpt lat="45.9313087352" lon="2.8320840653"><ele></ele><time>2013-8-16T19:22:43Z</time></trkpt>
<trkpt lat="45.9313441068" lon="2.8321681358"><ele></ele><time>2013-8-16T19:22:46Z</time></trkpt>
<trkpt lat="45.9313736111" lon="2.8322576545"><ele></ele><time>2013-8-16T19:22:49Z</time></trkpt>
<trkpt lat="45.9313928057" lon="2.8323518671"><ele></ele><time>2013-8-16T19:22:52Z</time></trkpt>
<trkpt lat="45.9314026125" lon="2.8324526176"><ele></ele><time>2013-8-16T19:22:55Z</time></trkpt>
<trkpt lat="45.9314047080" lon="2.8325579781"><ele></ele><time>2013-8-16T19:22:58Z</time></trkpt>
<trkpt lat="45.9313991759" lon="2.8326630034"><ele></ele><time>2013-8-16T19:23:1Z</time></trkpt>
<trkpt lat="45.9313878603" lon="2.8327707108"><ele></ele><time>2013-8-16T19:23:4Z</time></trkpt>
<trkpt lat="45.9312975034" lon="2.8333686758"><ele></ele><time>2013-8-16T19:23:7Z</time></trkpt>
<trkpt lat="45.9311737865" lon="2.8341704048"><ele></ele><time>2013-8-16T19:23:10Z</time></trkpt>
<trkpt lat="45.9311043844" lon="2.8345716465"><ele></ele><time>2013-8-16T19:23:13Z</time></trkpt>
<trkpt lat="45.9310093336" lon="2.8350717947"><ele></ele><time>2013-8-16T19:23:16Z</time></trkpt>
<trkpt lat="45.9310002811" lon="2.8351463098"><ele></ele><time>2013-8-16T19:23:19Z</time></trkpt>
<trkpt lat="45.9309926536" lon="2.8352141194"><ele></ele><time>2013-8-16T19:23:22Z</time></trkpt>
<trkpt lat="45.9309803322" lon="2.8352794982"><ele></ele><time>2013-8-16T19:23:25Z</time></trkpt>
<trkpt lat="45.9307734668" lon="2.8358492162"><ele></ele><time>2013-8-16T19:23:28Z</time></trkpt>
<trkpt lat="45.9307360835" lon="2.8359144274"><ele></ele><time>2013-8-16T19:23:31Z</time></trkpt>
<trkpt lat="45.9306916595" lon="2.8359718435"><ele></ele><time>2013-8-16T19:23:34Z</time></trkpt>
<trkpt lat="45.9306356683" lon="2.8360157646"><ele></ele><time>2013-8-16T19:23:37Z</time></trkpt>
<trkpt lat="45.9305718821" lon="2.8360481188"><ele></ele><time>2013-8-16T19:23:40Z</time></trkpt>
<trkpt lat="45.9305060003" lon="2.8360757791"><ele></ele><time>2013-8-16T19:23:43Z</time></trkpt>
<trkpt lat="45.9304358438" lon="2.8360963147"><ele></ele><time>2013-8-16T19:23:46Z</time></trkpt>
<trkpt lat="45.9303628374" lon="2.8361076303"><ele></ele><time>2013-8-16T19:23:49Z</time></trkpt>
<trkpt lat="45.9301502723" lon="2.8361507971"><ele></ele><time>2013-8-16T19:23:52Z</time></trkpt>
<trkpt lat="45.9300879948" lon="2.8361796308"><ele></ele><time>2013-8-16T19:23:55Z</time></trkpt>
<trkpt lat="45.9300323389" lon="2.8362134099"><ele></ele><time>2013-8-16T19:23:58Z</time></trkpt>
<trkpt lat="45.9299097955" lon="2.8363153338"><ele></ele><time>2013-8-16T19:24:1Z</time></trkpt>
<trkpt lat="45.9298832249" lon="2.8363548964"><ele></ele><time>2013-8-16T19:24:4Z</time></trkpt>
<trkpt lat="45.9298632760" lon="2.8363919444"><ele></ele><time>2013-8-16T19:24:7Z</time></trkpt>
<trkpt lat="45.9298531339" lon="2.8364351951"><ele></ele><time>2013-8-16T19:24:10Z</time></trkpt>
<trkpt lat="45.9298519604" lon="2.8364871629"><ele></ele><time>2013-8-16T19:24:13Z</time></trkpt>
<trkpt lat="45.9298578277" lon="2.8365486860"><ele></ele><time>2013-8-16T19:24:16Z</time></trkpt>
<trkpt lat="45.9298667125" lon="2.8366164956"><ele></ele><time>2013-8-16T19:24:19Z</time></trkpt>
<trkpt lat="45.9298798721" lon="2.8366871551"><ele></ele><time>2013-8-16T19:24:22Z</time></trkpt>
<trkpt lat="45.9299169201" lon="2.8368345089"><ele></ele><time>2013-8-16T19:24:25Z</time></trkpt>
<trkpt lat="45.9299416468" lon="2.8369046655"><ele></ele><time>2013-8-16T19:24:28Z</time></trkpt>
<trkpt lat="45.9300278127" lon="2.8371151350"><ele></ele><time>2013-8-16T19:24:31Z</time></trkpt>
<trkpt lat="45.9300640225" lon="2.8371813521"><ele></ele><time>2013-8-16T19:24:34Z</time></trkpt>
<trkpt lat="45.9301028308" lon="2.8372411150"><ele></ele><time>2013-8-16T19:24:37Z</time></trkpt>
<trkpt lat="45.9301897511" lon="2.8373482358"><ele></ele><time>2013-8-16T19:24:40Z</time></trkpt>
<trkpt lat="45.9302371088" lon="2.8373978566"><ele></ele><time>2013-8-16T19:24:43Z</time></trkpt>
<trkpt lat="45.9302838799" lon="2.8374540992"><ele></ele><time>2013-8-16T19:24:46Z</time></trkpt>
<trkpt lat="45.9303275496" lon="2.8375145327"><ele></ele><time>2013-8-16T19:24:49Z</time></trkpt>
<trkpt lat="45.9303676989" lon="2.8375798278"><ele></ele><time>2013-8-16T19:24:52Z</time></trkpt>
<trkpt lat="45.9304086026" lon="2.8376477212"><ele></ele><time>2013-8-16T19:24:55Z</time></trkpt>
<trkpt lat="45.9305884782" lon="2.8379408363"><ele></ele><time>2013-8-16T19:24:58Z</time></trkpt>
<trkpt lat="45.9309629817" lon="2.8383981530"><ele></ele><time>2013-8-16T19:25:1Z</time></trkpt>
<trkpt lat="45.9309896361" lon="2.8384685609"><ele></ele><time>2013-8-16T19:25:4Z</time></trkpt>
<trkpt lat="45.9309999458" lon="2.8385440819"><ele></ele><time>2013-8-16T19:25:7Z</time></trkpt>
<trkpt lat="45.9309968445" lon="2.8386025876"><ele></ele><time>2013-8-16T19:25:10Z</time></trkpt>
<trkpt lat="45.9309835173" lon="2.8386372887"><ele></ele><time>2013-8-16T19:25:13Z</time></trkpt>
<trkpt lat="45.9309694357" lon="2.8386595007"><ele></ele><time>2013-8-16T19:25:16Z</time></trkpt>
<trkpt lat="45.9309046436" lon="2.8387642745"><ele></ele><time>2013-8-16T19:25:19Z</time></trkpt>
<trkpt lat="45.9308884665" lon="2.8387759253"><ele></ele><time>2013-8-16T19:25:22Z</time></trkpt>
<trkpt lat="45.9308751393" lon="2.8387917671"><ele></ele><time>2013-8-16T19:25:25Z</time></trkpt>
<trkpt lat="45.9308629017" lon="2.8388146497"><ele></ele><time>2013-8-16T19:25:28Z</time></trkpt>
<trkpt lat="45.9308494907" lon="2.8388365265"><ele></ele><time>2013-8-16T19:25:31Z</time></trkpt>
<trkpt lat="45.9306857921" lon="2.8390761651"><ele></ele><time>2013-8-16T19:25:34Z</time></trkpt>
<trkpt lat="45.9305308945" lon="2.8393208329"><ele></ele><time>2013-8-16T19:25:37Z</time></trkpt>
<trkpt lat="45.9304493386" lon="2.8394144587"><ele></ele><time>2013-8-16T19:25:40Z</time></trkpt>
<trkpt lat="45.9304418787" lon="2.8394359164"><ele></ele><time>2013-8-16T19:25:43Z</time></trkpt>
<trkpt lat="45.9304338321" lon="2.8394535184"><ele></ele><time>2013-8-16T19:25:46Z</time></trkpt>
<trkpt lat="45.9304238576" lon="2.8394701146"><ele></ele><time>2013-8-16T19:25:49Z</time></trkpt>
<trkpt lat="45.9304136317" lon="2.8394901473"><ele></ele><time>2013-8-16T19:25:52Z</time></trkpt>
<trkpt lat="45.9304018971" lon="2.8395142034"><ele></ele><time>2013-8-16T19:25:55Z</time></trkpt>
<trkpt lat="45.9302354325" lon="2.8397896327"><ele></ele><time>2013-8-16T19:25:58Z</time></trkpt>
<trkpt lat="45.9300822951" lon="2.8401745297"><ele></ele><time>2013-8-16T19:26:1Z</time></trkpt>
<trkpt lat="45.9300429840" lon="2.8403236438"><ele></ele><time>2013-8-16T19:26:4Z</time></trkpt>
<trkpt lat="45.9300385416" lon="2.8403549083"><ele></ele><time>2013-8-16T19:26:7Z</time></trkpt>
<trkpt lat="45.9300391283" lon="2.8403864242"><ele></ele><time>2013-8-16T19:26:10Z</time></trkpt>
<trkpt lat="45.9300382063" lon="2.8404163476"><ele></ele><time>2013-8-16T19:26:13Z</time></trkpt>
<trkpt lat="45.9300422296" lon="2.8404451814"><ele></ele><time>2013-8-16T19:26:16Z</time></trkpt>
<trkpt lat="45.9300495218" lon="2.8404767811"><ele></ele><time>2013-8-16T19:26:19Z</time></trkpt>
<trkpt lat="45.9301266354" lon="2.8408784419"><ele></ele><time>2013-8-16T19:26:22Z</time></trkpt>
<trkpt lat="45.9301949479" lon="2.8411014844"><ele></ele><time>2013-8-16T19:26:25Z</time></trkpt>
<trkpt lat="45.9301977977" lon="2.8411210980"><ele></ele><time>2013-8-16T19:26:28Z</time></trkpt>
<trkpt lat="45.9302023239" lon="2.8411419690"><ele></ele><time>2013-8-16T19:26:31Z</time></trkpt>
<trkpt lat="45.9302082751" lon="2.8411651030"><ele></ele><time>2013-8-16T19:26:34Z</time></trkpt>
<trkpt lat="45.9302171599" lon="2.8411950264"><ele></ele><time>2013-8-16T19:26:37Z</time></trkpt>
<trkpt lat="45.9302205965" lon="2.8412246145"><ele></ele><time>2013-8-16T19:26:40Z</time></trkpt>
<trkpt lat="45.9302367736" lon="2.8415992856"><ele></ele><time>2013-8-16T19:26:43Z</time></trkpt>
<trkpt lat="45.9302788507" lon="2.8419829253"><ele></ele><time>2013-8-16T19:26:46Z</time></trkpt>
<trkpt lat="45.9304371849" lon="2.8423345461"><ele></ele><time>2013-8-16T19:26:49Z</time></trkpt>
<trkpt lat="45.9306624066" lon="2.8424956463"><ele></ele><time>2013-8-16T19:26:52Z</time></trkpt>
<trkpt lat="45.9309615567" lon="2.8426175192"><ele></ele><time>2013-8-16T19:26:55Z</time></trkpt>
<trkpt lat="45.9311333019" lon="2.8424831573"><ele></ele><time>2013-8-16T19:26:58Z</time></trkpt>
<trkpt lat="45.9312452842" lon="2.8420917224"><ele></ele><time>2013-8-16T19:27:1Z</time></trkpt>
<trkpt lat="45.9313493036" lon="2.8416525945"><ele></ele><time>2013-8-16T19:27:4Z</time></trkpt>
<trkpt lat="45.9314665664" lon="2.8411246184"><ele></ele><time>2013-8-16T19:27:7Z</time></trkpt>
<trkpt lat="45.9315677360" lon="2.8406844847"><ele></ele><time>2013-8-16T19:27:10Z</time></trkpt>
<trkpt lat="45.9315695800" lon="2.8406583332"><ele></ele><time>2013-8-16T19:27:13Z</time></trkpt>
<trkpt lat="45.9315634612" lon="2.8406332713"><ele></ele><time>2013-8-16T19:27:16Z</time></trkpt>
<trkpt lat="45.9315504692" lon="2.8406141605"><ele></ele><time>2013-8-16T19:27:19Z</time></trkpt>
<trkpt lat="45.9315381479" lon="2.8405999113"><ele></ele><time>2013-8-16T19:27:22Z</time></trkpt>
<trkpt lat="45.9315237310" lon="2.8405879252"><ele></ele><time>2013-8-16T19:27:25Z</time></trkpt>
<trkpt lat="45.9315089788" lon="2.8405813035"><ele></ele><time>2013-8-16T19:27:28Z</time></trkpt>
<trkpt lat="45.9314934723" lon="2.8405744303"><ele></ele><time>2013-8-16T19:27:31Z</time></trkpt>
</trkseg></trk></gpx>